<?xml version="1.0" encoding="UTF-8" standalone="no" ?>
<gpx xmlns="http://www.topografix.com/GPX/1/1" xmlns:xsi="http://www.w3.org/2001/XMLSchema-instance" xsi:schemaLocation="http://www.topografix.com/GPX/1/1 http://www.topografix.com/GPX/1/1/gpx.xsd" version="1.1" creator="VisuGPX - https://www.visugpx.com">
  <metadata>
    <name>ABP-Verdon Tour Lac Esparron-18528361</name>
  </metadata>
  <trk>
    <name><![CDATA[ABP-Verdon Tour Lac Esparron-18528361]]></name>
    <extensions>
      <line xmlns="http://www.topografix.com/GPX/gpx_style/0/2">
        <color>0000FF</color>
        <width>4</width>
      </line>
    </extensions>
    <trkseg>
      <trkpt lat="43.75333" lon="5.88981">
        <ele>311</ele>
        <time>2024-07-01T16:02:06Z</time>
      </trkpt>
      <trkpt lat="43.75319" lon="5.88923">
        <ele>314</ele>
        <time>2024-07-01T16:02:16Z</time>
      </trkpt>
      <trkpt lat="43.75316" lon="5.88897">
        <ele>315</ele>
        <time>2024-07-01T16:02:21Z</time>
      </trkpt>
      <trkpt lat="43.75316" lon="5.8883">
        <ele>314</ele>
        <time>2024-07-01T16:02:32Z</time>
      </trkpt>
      <trkpt lat="43.75325" lon="5.88796">
        <ele>310</ele>
        <time>2024-07-01T16:02:38Z</time>
      </trkpt>
      <trkpt lat="43.75314" lon="5.8872">
        <ele>310</ele>
        <time>2024-07-01T16:02:51Z</time>
      </trkpt>
      <trkpt lat="43.75283" lon="5.88638">
        <ele>314</ele>
        <time>2024-07-01T16:03:07Z</time>
      </trkpt>
      <trkpt lat="43.75237" lon="5.8853">
        <ele>309</ele>
        <time>2024-07-01T16:03:28Z</time>
      </trkpt>
      <trkpt lat="43.75202" lon="5.88422">
        <ele>306</ele>
        <time>2024-07-01T16:03:48Z</time>
      </trkpt>
      <trkpt lat="43.75186" lon="5.88388">
        <ele>306</ele>
        <time>2024-07-01T16:03:55Z</time>
      </trkpt>
      <trkpt lat="43.75161" lon="5.88358">
        <ele>308</ele>
        <time>2024-07-01T16:04:03Z</time>
      </trkpt>
      <trkpt lat="43.75149" lon="5.8832">
        <ele>309</ele>
        <time>2024-07-01T16:04:10Z</time>
      </trkpt>
      <trkpt lat="43.75122" lon="5.88278">
        <ele>311</ele>
        <time>2024-07-01T16:04:19Z</time>
      </trkpt>
      <trkpt lat="43.75102" lon="5.88263">
        <ele>312</ele>
        <time>2024-07-01T16:04:24Z</time>
      </trkpt>
      <trkpt lat="43.75087" lon="5.88244">
        <ele>312</ele>
        <time>2024-07-01T16:04:29Z</time>
      </trkpt>
      <trkpt lat="43.75083" lon="5.88254">
        <ele>313</ele>
        <time>2024-07-01T16:04:31Z</time>
      </trkpt>
      <trkpt lat="43.75079" lon="5.88268">
        <ele>313</ele>
        <time>2024-07-01T16:04:34Z</time>
      </trkpt>
      <trkpt lat="43.75045" lon="5.88417">
        <ele>322</ele>
        <time>2024-07-01T16:05:00Z</time>
      </trkpt>
      <trkpt lat="43.75045" lon="5.88431">
        <ele>323</ele>
        <time>2024-07-01T16:05:02Z</time>
      </trkpt>
      <trkpt lat="43.75049" lon="5.88447">
        <ele>324</ele>
        <time>2024-07-01T16:05:05Z</time>
      </trkpt>
      <trkpt lat="43.75049" lon="5.88455">
        <ele>325</ele>
        <time>2024-07-01T16:05:06Z</time>
      </trkpt>
      <trkpt lat="43.75047" lon="5.88467">
        <ele>326</ele>
        <time>2024-07-01T16:05:09Z</time>
      </trkpt>
      <trkpt lat="43.75051" lon="5.88473">
        <ele>326</ele>
        <time>2024-07-01T16:05:10Z</time>
      </trkpt>
      <trkpt lat="43.75031" lon="5.88504">
        <ele>329</ele>
        <time>2024-07-01T16:05:17Z</time>
      </trkpt>
      <trkpt lat="43.74971" lon="5.885">
        <ele>331</ele>
        <time>2024-07-01T16:05:31Z</time>
      </trkpt>
      <trkpt lat="43.74954" lon="5.88502">
        <ele>331</ele>
        <time>2024-07-01T16:05:35Z</time>
      </trkpt>
      <trkpt lat="43.74924" lon="5.88518">
        <ele>333</ele>
        <time>2024-07-01T16:05:42Z</time>
      </trkpt>
      <trkpt lat="43.74905" lon="5.88535">
        <ele>336</ele>
        <time>2024-07-01T16:05:48Z</time>
      </trkpt>
      <trkpt lat="43.74855" lon="5.88574">
        <ele>342</ele>
        <time>2024-07-01T16:06:01Z</time>
      </trkpt>
      <trkpt lat="43.74834" lon="5.886">
        <ele>346</ele>
        <time>2024-07-01T16:06:08Z</time>
      </trkpt>
      <trkpt lat="43.74807" lon="5.88654">
        <ele>355</ele>
        <time>2024-07-01T16:06:19Z</time>
      </trkpt>
      <trkpt lat="43.74802" lon="5.88661">
        <ele>355</ele>
        <time>2024-07-01T16:06:20Z</time>
      </trkpt>
      <trkpt lat="43.74796" lon="5.88663">
        <ele>356</ele>
        <time>2024-07-01T16:06:22Z</time>
      </trkpt>
      <trkpt lat="43.74789" lon="5.88663">
        <ele>355</ele>
        <time>2024-07-01T16:06:24Z</time>
      </trkpt>
      <trkpt lat="43.7478" lon="5.88657">
        <ele>355</ele>
        <time>2024-07-01T16:06:26Z</time>
      </trkpt>
      <trkpt lat="43.74764" lon="5.88635">
        <ele>352</ele>
        <time>2024-07-01T16:06:31Z</time>
      </trkpt>
      <trkpt lat="43.74756" lon="5.88619">
        <ele>350</ele>
        <time>2024-07-01T16:06:34Z</time>
      </trkpt>
      <trkpt lat="43.7475" lon="5.886">
        <ele>349</ele>
        <time>2024-07-01T16:06:38Z</time>
      </trkpt>
      <trkpt lat="43.74739" lon="5.88555">
        <ele>345</ele>
        <time>2024-07-01T16:06:46Z</time>
      </trkpt>
      <trkpt lat="43.74735" lon="5.8855">
        <ele>345</ele>
        <time>2024-07-01T16:06:47Z</time>
      </trkpt>
      <trkpt lat="43.74723" lon="5.8855">
        <ele>346</ele>
        <time>2024-07-01T16:06:50Z</time>
      </trkpt>
      <trkpt lat="43.74697" lon="5.88559">
        <ele>349</ele>
        <time>2024-07-01T16:06:56Z</time>
      </trkpt>
      <trkpt lat="43.7469" lon="5.88557">
        <ele>350</ele>
        <time>2024-07-01T16:06:58Z</time>
      </trkpt>
      <trkpt lat="43.74665" lon="5.88552">
        <ele>352</ele>
        <time>2024-07-01T16:07:04Z</time>
      </trkpt>
      <trkpt lat="43.74656" lon="5.88554">
        <ele>353</ele>
        <time>2024-07-01T16:07:06Z</time>
      </trkpt>
      <trkpt lat="43.74648" lon="5.8856">
        <ele>356</ele>
        <time>2024-07-01T16:07:08Z</time>
      </trkpt>
      <trkpt lat="43.74644" lon="5.88571">
        <ele>358</ele>
        <time>2024-07-01T16:07:10Z</time>
      </trkpt>
      <trkpt lat="43.74634" lon="5.88583">
        <ele>361</ele>
        <time>2024-07-01T16:07:13Z</time>
      </trkpt>
      <trkpt lat="43.74625" lon="5.88589">
        <ele>364</ele>
        <time>2024-07-01T16:07:16Z</time>
      </trkpt>
      <trkpt lat="43.74616" lon="5.88589">
        <ele>366</ele>
        <time>2024-07-01T16:07:18Z</time>
      </trkpt>
      <trkpt lat="43.74607" lon="5.88586">
        <ele>367</ele>
        <time>2024-07-01T16:07:20Z</time>
      </trkpt>
      <trkpt lat="43.74597" lon="5.88579">
        <ele>367</ele>
        <time>2024-07-01T16:07:22Z</time>
      </trkpt>
      <trkpt lat="43.74563" lon="5.88546">
        <ele>369</ele>
        <time>2024-07-01T16:07:32Z</time>
      </trkpt>
      <trkpt lat="43.74556" lon="5.88544">
        <ele>370</ele>
        <time>2024-07-01T16:07:34Z</time>
      </trkpt>
      <trkpt lat="43.74538" lon="5.8855">
        <ele>373</ele>
        <time>2024-07-01T16:07:38Z</time>
      </trkpt>
      <trkpt lat="43.74527" lon="5.88548">
        <ele>375</ele>
        <time>2024-07-01T16:07:41Z</time>
      </trkpt>
      <trkpt lat="43.745" lon="5.88538">
        <ele>378</ele>
        <time>2024-07-01T16:07:47Z</time>
      </trkpt>
      <trkpt lat="43.74478" lon="5.88538">
        <ele>381</ele>
        <time>2024-07-01T16:07:52Z</time>
      </trkpt>
      <trkpt lat="43.74457" lon="5.88551">
        <ele>383</ele>
        <time>2024-07-01T16:07:58Z</time>
      </trkpt>
      <trkpt lat="43.74447" lon="5.88555">
        <ele>384</ele>
        <time>2024-07-01T16:08:00Z</time>
      </trkpt>
      <trkpt lat="43.74425" lon="5.88567">
        <ele>385</ele>
        <time>2024-07-01T16:08:06Z</time>
      </trkpt>
      <trkpt lat="43.74422" lon="5.88573">
        <ele>385</ele>
        <time>2024-07-01T16:08:07Z</time>
      </trkpt>
      <trkpt lat="43.74404" lon="5.88586">
        <ele>388</ele>
        <time>2024-07-01T16:08:12Z</time>
      </trkpt>
      <trkpt lat="43.74386" lon="5.88647">
        <ele>394</ele>
        <time>2024-07-01T16:08:23Z</time>
      </trkpt>
      <trkpt lat="43.74363" lon="5.88676">
        <ele>398</ele>
        <time>2024-07-01T16:08:30Z</time>
      </trkpt>
      <trkpt lat="43.74285" lon="5.88709">
        <ele>405</ele>
        <time>2024-07-01T16:08:49Z</time>
      </trkpt>
      <trkpt lat="43.7426" lon="5.88729">
        <ele>408</ele>
        <time>2024-07-01T16:08:56Z</time>
      </trkpt>
      <trkpt lat="43.74229" lon="5.8874">
        <ele>411</ele>
        <time>2024-07-01T16:09:03Z</time>
      </trkpt>
      <trkpt lat="43.74212" lon="5.88734">
        <ele>412</ele>
        <time>2024-07-01T16:09:07Z</time>
      </trkpt>
      <trkpt lat="43.74202" lon="5.88729">
        <ele>412</ele>
        <time>2024-07-01T16:09:10Z</time>
      </trkpt>
      <trkpt lat="43.74187" lon="5.88728">
        <ele>412</ele>
        <time>2024-07-01T16:09:13Z</time>
      </trkpt>
      <trkpt lat="43.74175" lon="5.88725">
        <ele>412</ele>
        <time>2024-07-01T16:09:16Z</time>
      </trkpt>
      <trkpt lat="43.74115" lon="5.88741">
        <ele>420</ele>
        <time>2024-07-01T16:09:31Z</time>
      </trkpt>
      <trkpt lat="43.74081" lon="5.88752">
        <ele>424</ele>
        <time>2024-07-01T16:09:39Z</time>
      </trkpt>
      <trkpt lat="43.74066" lon="5.88754">
        <ele>427</ele>
        <time>2024-07-01T16:09:42Z</time>
      </trkpt>
      <trkpt lat="43.74055" lon="5.88751">
        <ele>428</ele>
        <time>2024-07-01T16:09:45Z</time>
      </trkpt>
      <trkpt lat="43.74039" lon="5.88742">
        <ele>430</ele>
        <time>2024-07-01T16:09:49Z</time>
      </trkpt>
      <trkpt lat="43.74027" lon="5.88729">
        <ele>431</ele>
        <time>2024-07-01T16:09:52Z</time>
      </trkpt>
      <trkpt lat="43.74026" lon="5.8872">
        <ele>431</ele>
        <time>2024-07-01T16:09:54Z</time>
      </trkpt>
      <trkpt lat="43.74028" lon="5.88686">
        <ele>428</ele>
        <time>2024-07-01T16:10:00Z</time>
      </trkpt>
      <trkpt lat="43.74025" lon="5.88668">
        <ele>427</ele>
        <time>2024-07-01T16:10:03Z</time>
      </trkpt>
      <trkpt lat="43.74011" lon="5.88651">
        <ele>426</ele>
        <time>2024-07-01T16:10:07Z</time>
      </trkpt>
      <trkpt lat="43.73989" lon="5.88636">
        <ele>424</ele>
        <time>2024-07-01T16:10:13Z</time>
      </trkpt>
      <trkpt lat="43.73969" lon="5.88631">
        <ele>423</ele>
        <time>2024-07-01T16:10:18Z</time>
      </trkpt>
      <trkpt lat="43.73957" lon="5.8863">
        <ele>423</ele>
        <time>2024-07-01T16:10:20Z</time>
      </trkpt>
      <trkpt lat="43.73947" lon="5.88636">
        <ele>424</ele>
        <time>2024-07-01T16:10:23Z</time>
      </trkpt>
      <trkpt lat="43.73928" lon="5.88656">
        <ele>427</ele>
        <time>2024-07-01T16:10:29Z</time>
      </trkpt>
      <trkpt lat="43.73915" lon="5.88676">
        <ele>430</ele>
        <time>2024-07-01T16:10:33Z</time>
      </trkpt>
      <trkpt lat="43.73908" lon="5.88693">
        <ele>430</ele>
        <time>2024-07-01T16:10:36Z</time>
      </trkpt>
      <trkpt lat="43.73907" lon="5.88717">
        <ele>433</ele>
        <time>2024-07-01T16:10:40Z</time>
      </trkpt>
      <trkpt lat="43.7391" lon="5.88765">
        <ele>438</ele>
        <time>2024-07-01T16:10:49Z</time>
      </trkpt>
      <trkpt lat="43.73909" lon="5.88851">
        <ele>444</ele>
        <time>2024-07-01T16:11:03Z</time>
      </trkpt>
      <trkpt lat="43.73911" lon="5.88876">
        <ele>446</ele>
        <time>2024-07-01T16:11:07Z</time>
      </trkpt>
      <trkpt lat="43.73908" lon="5.88885">
        <ele>446</ele>
        <time>2024-07-01T16:11:09Z</time>
      </trkpt>
      <trkpt lat="43.73911" lon="5.88876">
        <ele>446</ele>
        <time>2024-07-01T16:11:11Z</time>
      </trkpt>
      <trkpt lat="43.7391" lon="5.88863">
        <ele>445</ele>
        <time>2024-07-01T16:11:13Z</time>
      </trkpt>
      <trkpt lat="43.73905" lon="5.88867">
        <ele>445</ele>
        <time>2024-07-01T16:11:14Z</time>
      </trkpt>
      <trkpt lat="43.739" lon="5.88867">
        <ele>445</ele>
        <time>2024-07-01T16:11:15Z</time>
      </trkpt>
      <trkpt lat="43.73891" lon="5.88797">
        <ele>437</ele>
        <time>2024-07-01T16:11:27Z</time>
      </trkpt>
      <trkpt lat="43.73893" lon="5.88766">
        <ele>435</ele>
        <time>2024-07-01T16:11:33Z</time>
      </trkpt>
      <trkpt lat="43.7389" lon="5.88755">
        <ele>433</ele>
        <time>2024-07-01T16:11:35Z</time>
      </trkpt>
      <trkpt lat="43.73884" lon="5.88748">
        <ele>431</ele>
        <time>2024-07-01T16:11:37Z</time>
      </trkpt>
      <trkpt lat="43.7386" lon="5.88747">
        <ele>426</ele>
        <time>2024-07-01T16:11:42Z</time>
      </trkpt>
      <trkpt lat="43.73852" lon="5.88738">
        <ele>424</ele>
        <time>2024-07-01T16:11:45Z</time>
      </trkpt>
      <trkpt lat="43.73842" lon="5.88732">
        <ele>421</ele>
        <time>2024-07-01T16:11:47Z</time>
      </trkpt>
      <trkpt lat="43.73827" lon="5.88719">
        <ele>419</ele>
        <time>2024-07-01T16:11:51Z</time>
      </trkpt>
      <trkpt lat="43.73821" lon="5.88711">
        <ele>419</ele>
        <time>2024-07-01T16:11:53Z</time>
      </trkpt>
      <trkpt lat="43.73822" lon="5.88697">
        <ele>418</ele>
        <time>2024-07-01T16:11:56Z</time>
      </trkpt>
      <trkpt lat="43.73831" lon="5.88678">
        <ele>416</ele>
        <time>2024-07-01T16:11:59Z</time>
      </trkpt>
      <trkpt lat="43.73829" lon="5.88646">
        <ele>414</ele>
        <time>2024-07-01T16:12:05Z</time>
      </trkpt>
      <trkpt lat="43.73834" lon="5.88634">
        <ele>413</ele>
        <time>2024-07-01T16:12:07Z</time>
      </trkpt>
      <trkpt lat="43.73817" lon="5.88622">
        <ele>413</ele>
        <time>2024-07-01T16:12:12Z</time>
      </trkpt>
      <trkpt lat="43.73811" lon="5.88612">
        <ele>413</ele>
        <time>2024-07-01T16:12:14Z</time>
      </trkpt>
      <trkpt lat="43.73805" lon="5.88608">
        <ele>413</ele>
        <time>2024-07-01T16:12:15Z</time>
      </trkpt>
      <trkpt lat="43.73801" lon="5.88601">
        <ele>413</ele>
        <time>2024-07-01T16:12:17Z</time>
      </trkpt>
      <trkpt lat="43.73783" lon="5.88591">
        <ele>413</ele>
        <time>2024-07-01T16:12:21Z</time>
      </trkpt>
      <trkpt lat="43.73764" lon="5.88587">
        <ele>414</ele>
        <time>2024-07-01T16:12:26Z</time>
      </trkpt>
      <trkpt lat="43.73724" lon="5.88591">
        <ele>419</ele>
        <time>2024-07-01T16:12:35Z</time>
      </trkpt>
      <trkpt lat="43.737" lon="5.88587">
        <ele>421</ele>
        <time>2024-07-01T16:12:41Z</time>
      </trkpt>
      <trkpt lat="43.73681" lon="5.88577">
        <ele>423</ele>
        <time>2024-07-01T16:12:46Z</time>
      </trkpt>
      <trkpt lat="43.7365" lon="5.88582">
        <ele>425</ele>
        <time>2024-07-01T16:12:53Z</time>
      </trkpt>
      <trkpt lat="43.73633" lon="5.88577">
        <ele>427</ele>
        <time>2024-07-01T16:12:57Z</time>
      </trkpt>
      <trkpt lat="43.73608" lon="5.88563">
        <ele>429</ele>
        <time>2024-07-01T16:13:03Z</time>
      </trkpt>
      <trkpt lat="43.73583" lon="5.88561">
        <ele>431</ele>
        <time>2024-07-01T16:13:09Z</time>
      </trkpt>
      <trkpt lat="43.73546" lon="5.88537">
        <ele>437</ele>
        <time>2024-07-01T16:13:19Z</time>
      </trkpt>
      <trkpt lat="43.73499" lon="5.88534">
        <ele>445</ele>
        <time>2024-07-01T16:13:30Z</time>
      </trkpt>
      <trkpt lat="43.73486" lon="5.88549">
        <ele>447</ele>
        <time>2024-07-01T16:13:34Z</time>
      </trkpt>
      <trkpt lat="43.73459" lon="5.88553">
        <ele>451</ele>
        <time>2024-07-01T16:13:40Z</time>
      </trkpt>
      <trkpt lat="43.73442" lon="5.8855">
        <ele>453</ele>
        <time>2024-07-01T16:13:44Z</time>
      </trkpt>
      <trkpt lat="43.73397" lon="5.88564">
        <ele>460</ele>
        <time>2024-07-01T16:13:55Z</time>
      </trkpt>
      <trkpt lat="43.73393" lon="5.88558">
        <ele>460</ele>
        <time>2024-07-01T16:13:56Z</time>
      </trkpt>
      <trkpt lat="43.73407" lon="5.88527">
        <ele>457</ele>
        <time>2024-07-01T16:14:02Z</time>
      </trkpt>
      <trkpt lat="43.73412" lon="5.88515">
        <ele>456</ele>
        <time>2024-07-01T16:14:05Z</time>
      </trkpt>
      <trkpt lat="43.7341" lon="5.885">
        <ele>455</ele>
        <time>2024-07-01T16:14:07Z</time>
      </trkpt>
      <trkpt lat="43.7342" lon="5.88486">
        <ele>453</ele>
        <time>2024-07-01T16:14:10Z</time>
      </trkpt>
      <trkpt lat="43.73435" lon="5.88474">
        <ele>451</ele>
        <time>2024-07-01T16:14:15Z</time>
      </trkpt>
      <trkpt lat="43.73453" lon="5.88434">
        <ele>450</ele>
        <time>2024-07-01T16:14:22Z</time>
      </trkpt>
      <trkpt lat="43.73414" lon="5.88384">
        <ele>447</ele>
        <time>2024-07-01T16:14:35Z</time>
      </trkpt>
      <trkpt lat="43.73387" lon="5.88376">
        <ele>443</ele>
        <time>2024-07-01T16:14:41Z</time>
      </trkpt>
      <trkpt lat="43.73349" lon="5.8835">
        <ele>435</ele>
        <time>2024-07-01T16:14:51Z</time>
      </trkpt>
      <trkpt lat="43.73338" lon="5.88361">
        <ele>435</ele>
        <time>2024-07-01T16:14:54Z</time>
      </trkpt>
      <trkpt lat="43.73335" lon="5.88381">
        <ele>437</ele>
        <time>2024-07-01T16:14:58Z</time>
      </trkpt>
      <trkpt lat="43.73291" lon="5.88388">
        <ele>433</ele>
        <time>2024-07-01T16:15:08Z</time>
      </trkpt>
      <trkpt lat="43.73268" lon="5.88358">
        <ele>425</ele>
        <time>2024-07-01T16:15:16Z</time>
      </trkpt>
      <trkpt lat="43.73206" lon="5.88333">
        <ele>412</ele>
        <time>2024-07-01T16:15:31Z</time>
      </trkpt>
      <trkpt lat="43.73181" lon="5.88298">
        <ele>404</ele>
        <time>2024-07-01T16:15:39Z</time>
      </trkpt>
      <trkpt lat="43.73165" lon="5.8827">
        <ele>397</ele>
        <time>2024-07-01T16:15:45Z</time>
      </trkpt>
      <trkpt lat="43.73149" lon="5.88266">
        <ele>396</ele>
        <time>2024-07-01T16:15:49Z</time>
      </trkpt>
      <trkpt lat="43.73136" lon="5.88241">
        <ele>392</ele>
        <time>2024-07-01T16:15:54Z</time>
      </trkpt>
      <trkpt lat="43.73143" lon="5.88162">
        <ele>385</ele>
        <time>2024-07-01T16:16:07Z</time>
      </trkpt>
      <trkpt lat="43.73129" lon="5.8814">
        <ele>382</ele>
        <time>2024-07-01T16:16:12Z</time>
      </trkpt>
      <trkpt lat="43.73123" lon="5.88119">
        <ele>380</ele>
        <time>2024-07-01T16:16:16Z</time>
      </trkpt>
      <trkpt lat="43.7311" lon="5.88095">
        <ele>377</ele>
        <time>2024-07-01T16:16:21Z</time>
      </trkpt>
      <trkpt lat="43.73086" lon="5.88096">
        <ele>376</ele>
        <time>2024-07-01T16:16:27Z</time>
      </trkpt>
      <trkpt lat="43.73096" lon="5.88154">
        <ele>382</ele>
        <time>2024-07-01T16:16:37Z</time>
      </trkpt>
      <trkpt lat="43.73092" lon="5.88177">
        <ele>384</ele>
        <time>2024-07-01T16:16:41Z</time>
      </trkpt>
      <trkpt lat="43.73091" lon="5.88207">
        <ele>388</ele>
        <time>2024-07-01T16:16:46Z</time>
      </trkpt>
      <trkpt lat="43.73094" lon="5.88227">
        <ele>390</ele>
        <time>2024-07-01T16:16:49Z</time>
      </trkpt>
      <trkpt lat="43.73085" lon="5.88239">
        <ele>391</ele>
        <time>2024-07-01T16:16:52Z</time>
      </trkpt>
      <trkpt lat="43.73065" lon="5.88227">
        <ele>390</ele>
        <time>2024-07-01T16:16:57Z</time>
      </trkpt>
      <trkpt lat="43.73045" lon="5.88227">
        <ele>390</ele>
        <time>2024-07-01T16:17:02Z</time>
      </trkpt>
      <trkpt lat="43.73004" lon="5.88234">
        <ele>391</ele>
        <time>2024-07-01T16:17:12Z</time>
      </trkpt>
      <trkpt lat="43.72985" lon="5.88226">
        <ele>389</ele>
        <time>2024-07-01T16:17:16Z</time>
      </trkpt>
      <trkpt lat="43.7295" lon="5.882">
        <ele>383</ele>
        <time>2024-07-01T16:17:26Z</time>
      </trkpt>
      <trkpt lat="43.72924" lon="5.88202">
        <ele>382</ele>
        <time>2024-07-01T16:17:32Z</time>
      </trkpt>
      <trkpt lat="43.72903" lon="5.88194">
        <ele>379</ele>
        <time>2024-07-01T16:17:37Z</time>
      </trkpt>
      <trkpt lat="43.7289" lon="5.88197">
        <ele>379</ele>
        <time>2024-07-01T16:17:40Z</time>
      </trkpt>
      <trkpt lat="43.7288" lon="5.88189">
        <ele>377</ele>
        <time>2024-07-01T16:17:43Z</time>
      </trkpt>
      <trkpt lat="43.72868" lon="5.88193">
        <ele>377</ele>
        <time>2024-07-01T16:17:45Z</time>
      </trkpt>
      <trkpt lat="43.72836" lon="5.88212">
        <ele>378</ele>
        <time>2024-07-01T16:17:54Z</time>
      </trkpt>
      <trkpt lat="43.72827" lon="5.88213">
        <ele>377</ele>
        <time>2024-07-01T16:17:56Z</time>
      </trkpt>
      <trkpt lat="43.72814" lon="5.88221">
        <ele>378</ele>
        <time>2024-07-01T16:17:59Z</time>
      </trkpt>
      <trkpt lat="43.72813" lon="5.88231">
        <ele>379</ele>
        <time>2024-07-01T16:18:01Z</time>
      </trkpt>
      <trkpt lat="43.72788" lon="5.88276">
        <ele>382</ele>
        <time>2024-07-01T16:18:10Z</time>
      </trkpt>
      <trkpt lat="43.72769" lon="5.88313">
        <ele>384</ele>
        <time>2024-07-01T16:18:18Z</time>
      </trkpt>
      <trkpt lat="43.72757" lon="5.88347">
        <ele>385</ele>
        <time>2024-07-01T16:18:24Z</time>
      </trkpt>
      <trkpt lat="43.72741" lon="5.88405">
        <ele>387</ele>
        <time>2024-07-01T16:18:35Z</time>
      </trkpt>
      <trkpt lat="43.72734" lon="5.88426">
        <ele>387</ele>
        <time>2024-07-01T16:18:39Z</time>
      </trkpt>
      <trkpt lat="43.72735" lon="5.88454">
        <ele>388</ele>
        <time>2024-07-01T16:18:43Z</time>
      </trkpt>
      <trkpt lat="43.72723" lon="5.88475">
        <ele>387</ele>
        <time>2024-07-01T16:18:48Z</time>
      </trkpt>
      <trkpt lat="43.72716" lon="5.88519">
        <ele>387</ele>
        <time>2024-07-01T16:18:56Z</time>
      </trkpt>
      <trkpt lat="43.72713" lon="5.88533">
        <ele>387</ele>
        <time>2024-07-01T16:18:58Z</time>
      </trkpt>
      <trkpt lat="43.72705" lon="5.88542">
        <ele>386</ele>
        <time>2024-07-01T16:19:00Z</time>
      </trkpt>
      <trkpt lat="43.72698" lon="5.88562">
        <ele>386</ele>
        <time>2024-07-01T16:19:04Z</time>
      </trkpt>
      <trkpt lat="43.72691" lon="5.88605">
        <ele>386</ele>
        <time>2024-07-01T16:19:12Z</time>
      </trkpt>
      <trkpt lat="43.72704" lon="5.88659">
        <ele>388</ele>
        <time>2024-07-01T16:19:21Z</time>
      </trkpt>
      <trkpt lat="43.72707" lon="5.88737">
        <ele>389</ele>
        <time>2024-07-01T16:19:34Z</time>
      </trkpt>
      <trkpt lat="43.72713" lon="5.88754">
        <ele>390</ele>
        <time>2024-07-01T16:19:38Z</time>
      </trkpt>
      <trkpt lat="43.7271" lon="5.8877">
        <ele>390</ele>
        <time>2024-07-01T16:19:40Z</time>
      </trkpt>
      <trkpt lat="43.72707" lon="5.88806">
        <ele>391</ele>
        <time>2024-07-01T16:19:47Z</time>
      </trkpt>
      <trkpt lat="43.72705" lon="5.88843">
        <ele>392</ele>
        <time>2024-07-01T16:19:53Z</time>
      </trkpt>
      <trkpt lat="43.72709" lon="5.88855">
        <ele>392</ele>
        <time>2024-07-01T16:19:55Z</time>
      </trkpt>
      <trkpt lat="43.72704" lon="5.88866">
        <ele>392</ele>
        <time>2024-07-01T16:19:57Z</time>
      </trkpt>
      <trkpt lat="43.72705" lon="5.88884">
        <ele>393</ele>
        <time>2024-07-01T16:20:00Z</time>
      </trkpt>
      <trkpt lat="43.72711" lon="5.88914">
        <ele>395</ele>
        <time>2024-07-01T16:20:06Z</time>
      </trkpt>
      <trkpt lat="43.72701" lon="5.88939">
        <ele>394</ele>
        <time>2024-07-01T16:20:10Z</time>
      </trkpt>
      <trkpt lat="43.72695" lon="5.88973">
        <ele>394</ele>
        <time>2024-07-01T16:20:16Z</time>
      </trkpt>
      <trkpt lat="43.72697" lon="5.89017">
        <ele>394</ele>
        <time>2024-07-01T16:20:24Z</time>
      </trkpt>
      <trkpt lat="43.72718" lon="5.89049">
        <ele>397</ele>
        <time>2024-07-01T16:20:31Z</time>
      </trkpt>
      <trkpt lat="43.72735" lon="5.89084">
        <ele>399</ele>
        <time>2024-07-01T16:20:38Z</time>
      </trkpt>
      <trkpt lat="43.72752" lon="5.89078">
        <ele>400</ele>
        <time>2024-07-01T16:20:42Z</time>
      </trkpt>
      <trkpt lat="43.72759" lon="5.89082">
        <ele>401</ele>
        <time>2024-07-01T16:20:44Z</time>
      </trkpt>
      <trkpt lat="43.72761" lon="5.89092">
        <ele>402</ele>
        <time>2024-07-01T16:20:46Z</time>
      </trkpt>
      <trkpt lat="43.72764" lon="5.89109">
        <ele>404</ele>
        <time>2024-07-01T16:20:49Z</time>
      </trkpt>
      <trkpt lat="43.72761" lon="5.89122">
        <ele>404</ele>
        <time>2024-07-01T16:20:51Z</time>
      </trkpt>
      <trkpt lat="43.72761" lon="5.89133">
        <ele>404</ele>
        <time>2024-07-01T16:20:53Z</time>
      </trkpt>
      <trkpt lat="43.72755" lon="5.8914">
        <ele>404</ele>
        <time>2024-07-01T16:20:55Z</time>
      </trkpt>
      <trkpt lat="43.72735" lon="5.89194">
        <ele>405</ele>
        <time>2024-07-01T16:21:05Z</time>
      </trkpt>
      <trkpt lat="43.72728" lon="5.89208">
        <ele>404</ele>
        <time>2024-07-01T16:21:08Z</time>
      </trkpt>
      <trkpt lat="43.72723" lon="5.89214">
        <ele>404</ele>
        <time>2024-07-01T16:21:09Z</time>
      </trkpt>
      <trkpt lat="43.72721" lon="5.89217">
        <ele>404</ele>
        <time>2024-07-01T16:21:10Z</time>
      </trkpt>
      <trkpt lat="43.72691" lon="5.89229">
        <ele>401</ele>
        <time>2024-07-01T16:21:17Z</time>
      </trkpt>
      <trkpt lat="43.72669" lon="5.89244">
        <ele>400</ele>
        <time>2024-07-01T16:21:23Z</time>
      </trkpt>
      <trkpt lat="43.72651" lon="5.89254">
        <ele>400</ele>
        <time>2024-07-01T16:21:28Z</time>
      </trkpt>
      <trkpt lat="43.72632" lon="5.89244">
        <ele>400</ele>
        <time>2024-07-01T16:21:32Z</time>
      </trkpt>
      <trkpt lat="43.72621" lon="5.89259">
        <ele>400</ele>
        <time>2024-07-01T16:21:36Z</time>
      </trkpt>
      <trkpt lat="43.72617" lon="5.89265">
        <ele>400</ele>
        <time>2024-07-01T16:21:37Z</time>
      </trkpt>
      <trkpt lat="43.72615" lon="5.89275">
        <ele>401</ele>
        <time>2024-07-01T16:21:39Z</time>
      </trkpt>
      <trkpt lat="43.72614" lon="5.89293">
        <ele>401</ele>
        <time>2024-07-01T16:21:42Z</time>
      </trkpt>
      <trkpt lat="43.72592" lon="5.8935">
        <ele>402</ele>
        <time>2024-07-01T16:21:53Z</time>
      </trkpt>
      <trkpt lat="43.72587" lon="5.89358">
        <ele>402</ele>
        <time>2024-07-01T16:21:55Z</time>
      </trkpt>
      <trkpt lat="43.72569" lon="5.89368">
        <ele>404</ele>
        <time>2024-07-01T16:21:59Z</time>
      </trkpt>
      <trkpt lat="43.72549" lon="5.8941">
        <ele>407</ele>
        <time>2024-07-01T16:22:08Z</time>
      </trkpt>
      <trkpt lat="43.7252" lon="5.89447">
        <ele>409</ele>
        <time>2024-07-01T16:22:17Z</time>
      </trkpt>
      <trkpt lat="43.72511" lon="5.89478">
        <ele>410</ele>
        <time>2024-07-01T16:22:23Z</time>
      </trkpt>
      <trkpt lat="43.72505" lon="5.89496">
        <ele>410</ele>
        <time>2024-07-01T16:22:26Z</time>
      </trkpt>
      <trkpt lat="43.72489" lon="5.89519">
        <ele>413</ele>
        <time>2024-07-01T16:22:31Z</time>
      </trkpt>
      <trkpt lat="43.72483" lon="5.8953">
        <ele>414</ele>
        <time>2024-07-01T16:22:34Z</time>
      </trkpt>
      <trkpt lat="43.72473" lon="5.89568">
        <ele>415</ele>
        <time>2024-07-01T16:22:41Z</time>
      </trkpt>
      <trkpt lat="43.72461" lon="5.89597">
        <ele>417</ele>
        <time>2024-07-01T16:22:46Z</time>
      </trkpt>
      <trkpt lat="43.72451" lon="5.89616">
        <ele>418</ele>
        <time>2024-07-01T16:22:50Z</time>
      </trkpt>
      <trkpt lat="43.72441" lon="5.89628">
        <ele>419</ele>
        <time>2024-07-01T16:22:53Z</time>
      </trkpt>
      <trkpt lat="43.72398" lon="5.89667">
        <ele>421</ele>
        <time>2024-07-01T16:23:05Z</time>
      </trkpt>
      <trkpt lat="43.72372" lon="5.89695">
        <ele>423</ele>
        <time>2024-07-01T16:23:13Z</time>
      </trkpt>
      <trkpt lat="43.72363" lon="5.89711">
        <ele>424</ele>
        <time>2024-07-01T16:23:16Z</time>
      </trkpt>
      <trkpt lat="43.72359" lon="5.89713">
        <ele>425</ele>
        <time>2024-07-01T16:23:17Z</time>
      </trkpt>
      <trkpt lat="43.7235" lon="5.89673">
        <ele>425</ele>
        <time>2024-07-01T16:23:24Z</time>
      </trkpt>
      <trkpt lat="43.72336" lon="5.89657">
        <ele>426</ele>
        <time>2024-07-01T16:23:29Z</time>
      </trkpt>
      <trkpt lat="43.72329" lon="5.89657">
        <ele>426</ele>
        <time>2024-07-01T16:23:30Z</time>
      </trkpt>
      <trkpt lat="43.72319" lon="5.89689">
        <ele>426</ele>
        <time>2024-07-01T16:23:36Z</time>
      </trkpt>
      <trkpt lat="43.72313" lon="5.89704">
        <ele>426</ele>
        <time>2024-07-01T16:23:39Z</time>
      </trkpt>
      <trkpt lat="43.72301" lon="5.89725">
        <ele>427</ele>
        <time>2024-07-01T16:23:44Z</time>
      </trkpt>
      <trkpt lat="43.72257" lon="5.89841">
        <ele>433</ele>
        <time>2024-07-01T16:24:06Z</time>
      </trkpt>
      <trkpt lat="43.72238" lon="5.89871">
        <ele>433</ele>
        <time>2024-07-01T16:24:12Z</time>
      </trkpt>
      <trkpt lat="43.72214" lon="5.8992">
        <ele>435</ele>
        <time>2024-07-01T16:24:22Z</time>
      </trkpt>
      <trkpt lat="43.72215" lon="5.89942">
        <ele>435</ele>
        <time>2024-07-01T16:24:26Z</time>
      </trkpt>
      <trkpt lat="43.72219" lon="5.8997">
        <ele>435</ele>
        <time>2024-07-01T16:24:31Z</time>
      </trkpt>
      <trkpt lat="43.72249" lon="5.90065">
        <ele>435</ele>
        <time>2024-07-01T16:24:48Z</time>
      </trkpt>
      <trkpt lat="43.7225" lon="5.90084">
        <ele>435</ele>
        <time>2024-07-01T16:24:52Z</time>
      </trkpt>
      <trkpt lat="43.72248" lon="5.90101">
        <ele>435</ele>
        <time>2024-07-01T16:24:55Z</time>
      </trkpt>
      <trkpt lat="43.72253" lon="5.90194">
        <ele>435</ele>
        <time>2024-07-01T16:25:10Z</time>
      </trkpt>
      <trkpt lat="43.72253" lon="5.90203">
        <ele>436</ele>
        <time>2024-07-01T16:25:12Z</time>
      </trkpt>
      <trkpt lat="43.72245" lon="5.90241">
        <ele>437</ele>
        <time>2024-07-01T16:25:19Z</time>
      </trkpt>
      <trkpt lat="43.72249" lon="5.90248">
        <ele>437</ele>
        <time>2024-07-01T16:25:20Z</time>
      </trkpt>
      <trkpt lat="43.72261" lon="5.90294">
        <ele>439</ele>
        <time>2024-07-01T16:25:28Z</time>
      </trkpt>
      <trkpt lat="43.72277" lon="5.90325">
        <ele>440</ele>
        <time>2024-07-01T16:25:35Z</time>
      </trkpt>
      <trkpt lat="43.7229" lon="5.90356">
        <ele>443</ele>
        <time>2024-07-01T16:25:41Z</time>
      </trkpt>
      <trkpt lat="43.72327" lon="5.90413">
        <ele>451</ele>
        <time>2024-07-01T16:25:54Z</time>
      </trkpt>
      <trkpt lat="43.72356" lon="5.90432">
        <ele>452</ele>
        <time>2024-07-01T16:26:01Z</time>
      </trkpt>
      <trkpt lat="43.7237" lon="5.90454">
        <ele>453</ele>
        <time>2024-07-01T16:26:06Z</time>
      </trkpt>
      <trkpt lat="43.72387" lon="5.90496">
        <ele>456</ele>
        <time>2024-07-01T16:26:14Z</time>
      </trkpt>
      <trkpt lat="43.72398" lon="5.90513">
        <ele>457</ele>
        <time>2024-07-01T16:26:18Z</time>
      </trkpt>
      <trkpt lat="43.7241" lon="5.90546">
        <ele>459</ele>
        <time>2024-07-01T16:26:24Z</time>
      </trkpt>
      <trkpt lat="43.72441" lon="5.90618">
        <ele>460</ele>
        <time>2024-07-01T16:26:38Z</time>
      </trkpt>
      <trkpt lat="43.72482" lon="5.90697">
        <ele>463</ele>
        <time>2024-07-01T16:26:55Z</time>
      </trkpt>
      <trkpt lat="43.72488" lon="5.90718">
        <ele>464</ele>
        <time>2024-07-01T16:26:59Z</time>
      </trkpt>
      <trkpt lat="43.72524" lon="5.90739">
        <ele>468</ele>
        <time>2024-07-01T16:27:08Z</time>
      </trkpt>
      <trkpt lat="43.72553" lon="5.90813">
        <ele>475</ele>
        <time>2024-07-01T16:27:22Z</time>
      </trkpt>
      <trkpt lat="43.72583" lon="5.90843">
        <ele>480</ele>
        <time>2024-07-01T16:27:31Z</time>
      </trkpt>
      <trkpt lat="43.72636" lon="5.90866">
        <ele>485</ele>
        <time>2024-07-01T16:27:44Z</time>
      </trkpt>
      <trkpt lat="43.72663" lon="5.90862">
        <ele>486</ele>
        <time>2024-07-01T16:27:50Z</time>
      </trkpt>
      <trkpt lat="43.72681" lon="5.90855">
        <ele>486</ele>
        <time>2024-07-01T16:27:54Z</time>
      </trkpt>
      <trkpt lat="43.72693" lon="5.90838">
        <ele>486</ele>
        <time>2024-07-01T16:27:58Z</time>
      </trkpt>
      <trkpt lat="43.72713" lon="5.90835">
        <ele>487</ele>
        <time>2024-07-01T16:28:03Z</time>
      </trkpt>
      <trkpt lat="43.72722" lon="5.90841">
        <ele>489</ele>
        <time>2024-07-01T16:28:05Z</time>
      </trkpt>
      <trkpt lat="43.72754" lon="5.90879">
        <ele>493</ele>
        <time>2024-07-01T16:28:15Z</time>
      </trkpt>
      <trkpt lat="43.72764" lon="5.90885">
        <ele>494</ele>
        <time>2024-07-01T16:28:18Z</time>
      </trkpt>
      <trkpt lat="43.72802" lon="5.90878">
        <ele>495</ele>
        <time>2024-07-01T16:28:27Z</time>
      </trkpt>
      <trkpt lat="43.72829" lon="5.90878">
        <ele>496</ele>
        <time>2024-07-01T16:28:33Z</time>
      </trkpt>
      <trkpt lat="43.72843" lon="5.90872">
        <ele>497</ele>
        <time>2024-07-01T16:28:36Z</time>
      </trkpt>
      <trkpt lat="43.72856" lon="5.90852">
        <ele>498</ele>
        <time>2024-07-01T16:28:41Z</time>
      </trkpt>
      <trkpt lat="43.72863" lon="5.90828">
        <ele>499</ele>
        <time>2024-07-01T16:28:45Z</time>
      </trkpt>
      <trkpt lat="43.72886" lon="5.90809">
        <ele>503</ele>
        <time>2024-07-01T16:28:52Z</time>
      </trkpt>
      <trkpt lat="43.72906" lon="5.90755">
        <ele>508</ele>
        <time>2024-07-01T16:29:02Z</time>
      </trkpt>
      <trkpt lat="43.7293" lon="5.90717">
        <ele>513</ele>
        <time>2024-07-01T16:29:10Z</time>
      </trkpt>
      <trkpt lat="43.72984" lon="5.90689">
        <ele>523</ele>
        <time>2024-07-01T16:29:24Z</time>
      </trkpt>
      <trkpt lat="43.73003" lon="5.9067">
        <ele>526</ele>
        <time>2024-07-01T16:29:29Z</time>
      </trkpt>
      <trkpt lat="43.73026" lon="5.90626">
        <ele>533</ele>
        <time>2024-07-01T16:29:38Z</time>
      </trkpt>
      <trkpt lat="43.73035" lon="5.90626">
        <ele>534</ele>
        <time>2024-07-01T16:29:41Z</time>
      </trkpt>
      <trkpt lat="43.73039" lon="5.90636">
        <ele>534</ele>
        <time>2024-07-01T16:29:43Z</time>
      </trkpt>
      <trkpt lat="43.73036" lon="5.90659">
        <ele>532</ele>
        <time>2024-07-01T16:29:46Z</time>
      </trkpt>
      <trkpt lat="43.73044" lon="5.90692">
        <ele>532</ele>
        <time>2024-07-01T16:29:52Z</time>
      </trkpt>
      <trkpt lat="43.73055" lon="5.90714">
        <ele>533</ele>
        <time>2024-07-01T16:29:57Z</time>
      </trkpt>
      <trkpt lat="43.73061" lon="5.90733">
        <ele>533</ele>
        <time>2024-07-01T16:30:00Z</time>
      </trkpt>
      <trkpt lat="43.7307" lon="5.90741">
        <ele>534</ele>
        <time>2024-07-01T16:30:03Z</time>
      </trkpt>
      <trkpt lat="43.73092" lon="5.90754">
        <ele>536</ele>
        <time>2024-07-01T16:30:08Z</time>
      </trkpt>
      <trkpt lat="43.73113" lon="5.90752">
        <ele>537</ele>
        <time>2024-07-01T16:30:13Z</time>
      </trkpt>
      <trkpt lat="43.73127" lon="5.90754">
        <ele>538</ele>
        <time>2024-07-01T16:30:17Z</time>
      </trkpt>
      <trkpt lat="43.73185" lon="5.90765">
        <ele>541</ele>
        <time>2024-07-01T16:30:30Z</time>
      </trkpt>
      <trkpt lat="43.73221" lon="5.90756">
        <ele>543</ele>
        <time>2024-07-01T16:30:39Z</time>
      </trkpt>
      <trkpt lat="43.7323" lon="5.90748">
        <ele>544</ele>
        <time>2024-07-01T16:30:41Z</time>
      </trkpt>
      <trkpt lat="43.7325" lon="5.90747">
        <ele>545</ele>
        <time>2024-07-01T16:30:46Z</time>
      </trkpt>
      <trkpt lat="43.73266" lon="5.90772">
        <ele>547</ele>
        <time>2024-07-01T16:30:52Z</time>
      </trkpt>
      <trkpt lat="43.73273" lon="5.90809">
        <ele>549</ele>
        <time>2024-07-01T16:30:58Z</time>
      </trkpt>
      <trkpt lat="43.73324" lon="5.90852">
        <ele>556</ele>
        <time>2024-07-01T16:31:12Z</time>
      </trkpt>
      <trkpt lat="43.73358" lon="5.90905">
        <ele>562</ele>
        <time>2024-07-01T16:31:24Z</time>
      </trkpt>
      <trkpt lat="43.73382" lon="5.90924">
        <ele>565</ele>
        <time>2024-07-01T16:31:30Z</time>
      </trkpt>
      <trkpt lat="43.73425" lon="5.90974">
        <ele>569</ele>
        <time>2024-07-01T16:31:44Z</time>
      </trkpt>
      <trkpt lat="43.73478" lon="5.91017">
        <ele>574</ele>
        <time>2024-07-01T16:31:58Z</time>
      </trkpt>
      <trkpt lat="43.73498" lon="5.91036">
        <ele>576</ele>
        <time>2024-07-01T16:32:04Z</time>
      </trkpt>
      <trkpt lat="43.73515" lon="5.91046">
        <ele>576</ele>
        <time>2024-07-01T16:32:08Z</time>
      </trkpt>
      <trkpt lat="43.73527" lon="5.9106">
        <ele>576</ele>
        <time>2024-07-01T16:32:12Z</time>
      </trkpt>
      <trkpt lat="43.73545" lon="5.91075">
        <ele>576</ele>
        <time>2024-07-01T16:32:17Z</time>
      </trkpt>
      <trkpt lat="43.73565" lon="5.91095">
        <ele>576</ele>
        <time>2024-07-01T16:32:22Z</time>
      </trkpt>
      <trkpt lat="43.73567" lon="5.91102">
        <ele>576</ele>
        <time>2024-07-01T16:32:24Z</time>
      </trkpt>
      <trkpt lat="43.73565" lon="5.91131">
        <ele>575</ele>
        <time>2024-07-01T16:32:28Z</time>
      </trkpt>
      <trkpt lat="43.73559" lon="5.91149">
        <ele>575</ele>
        <time>2024-07-01T16:32:32Z</time>
      </trkpt>
      <trkpt lat="43.73546" lon="5.91176">
        <ele>576</ele>
        <time>2024-07-01T16:32:37Z</time>
      </trkpt>
      <trkpt lat="43.73535" lon="5.91233">
        <ele>577</ele>
        <time>2024-07-01T16:32:47Z</time>
      </trkpt>
      <trkpt lat="43.73535" lon="5.91248">
        <ele>577</ele>
        <time>2024-07-01T16:32:50Z</time>
      </trkpt>
      <trkpt lat="43.73531" lon="5.91259">
        <ele>577</ele>
        <time>2024-07-01T16:32:52Z</time>
      </trkpt>
      <trkpt lat="43.73521" lon="5.91265">
        <ele>579</ele>
        <time>2024-07-01T16:32:54Z</time>
      </trkpt>
      <trkpt lat="43.73513" lon="5.91285">
        <ele>580</ele>
        <time>2024-07-01T16:32:58Z</time>
      </trkpt>
      <trkpt lat="43.73501" lon="5.91303">
        <ele>582</ele>
        <time>2024-07-01T16:33:02Z</time>
      </trkpt>
      <trkpt lat="43.73497" lon="5.91322">
        <ele>582</ele>
        <time>2024-07-01T16:33:06Z</time>
      </trkpt>
      <trkpt lat="43.73489" lon="5.91336">
        <ele>581</ele>
        <time>2024-07-01T16:33:09Z</time>
      </trkpt>
      <trkpt lat="43.73472" lon="5.91387">
        <ele>579</ele>
        <time>2024-07-01T16:33:18Z</time>
      </trkpt>
      <trkpt lat="43.73461" lon="5.91406">
        <ele>579</ele>
        <time>2024-07-01T16:33:22Z</time>
      </trkpt>
      <trkpt lat="43.73445" lon="5.9142">
        <ele>580</ele>
        <time>2024-07-01T16:33:27Z</time>
      </trkpt>
      <trkpt lat="43.73437" lon="5.91432">
        <ele>582</ele>
        <time>2024-07-01T16:33:29Z</time>
      </trkpt>
      <trkpt lat="43.73423" lon="5.9148">
        <ele>587</ele>
        <time>2024-07-01T16:33:38Z</time>
      </trkpt>
      <trkpt lat="43.73403" lon="5.91528">
        <ele>589</ele>
        <time>2024-07-01T16:33:48Z</time>
      </trkpt>
      <trkpt lat="43.73379" lon="5.91574">
        <ele>590</ele>
        <time>2024-07-01T16:33:57Z</time>
      </trkpt>
      <trkpt lat="43.73369" lon="5.91585">
        <ele>590</ele>
        <time>2024-07-01T16:34:00Z</time>
      </trkpt>
      <trkpt lat="43.73357" lon="5.91613">
        <ele>589</ele>
        <time>2024-07-01T16:34:06Z</time>
      </trkpt>
      <trkpt lat="43.73283" lon="5.91755">
        <ele>587</ele>
        <time>2024-07-01T16:34:35Z</time>
      </trkpt>
      <trkpt lat="43.73247" lon="5.91787">
        <ele>586</ele>
        <time>2024-07-01T16:34:45Z</time>
      </trkpt>
      <trkpt lat="43.73195" lon="5.9183">
        <ele>589</ele>
        <time>2024-07-01T16:34:59Z</time>
      </trkpt>
      <trkpt lat="43.73185" lon="5.91824">
        <ele>589</ele>
        <time>2024-07-01T16:35:02Z</time>
      </trkpt>
      <trkpt lat="43.73151" lon="5.91829">
        <ele>590</ele>
        <time>2024-07-01T16:35:10Z</time>
      </trkpt>
      <trkpt lat="43.73106" lon="5.9183">
        <ele>592</ele>
        <time>2024-07-01T16:35:20Z</time>
      </trkpt>
      <trkpt lat="43.73081" lon="5.91818">
        <ele>592</ele>
        <time>2024-07-01T16:35:27Z</time>
      </trkpt>
      <trkpt lat="43.73056" lon="5.91818">
        <ele>591</ele>
        <time>2024-07-01T16:35:32Z</time>
      </trkpt>
      <trkpt lat="43.73025" lon="5.91855">
        <ele>590</ele>
        <time>2024-07-01T16:35:42Z</time>
      </trkpt>
      <trkpt lat="43.73014" lon="5.91874">
        <ele>590</ele>
        <time>2024-07-01T16:35:46Z</time>
      </trkpt>
      <trkpt lat="43.73014" lon="5.91895">
        <ele>590</ele>
        <time>2024-07-01T16:35:50Z</time>
      </trkpt>
      <trkpt lat="43.7302" lon="5.91909">
        <ele>591</ele>
        <time>2024-07-01T16:35:52Z</time>
      </trkpt>
      <trkpt lat="43.7303" lon="5.91924">
        <ele>591</ele>
        <time>2024-07-01T16:35:56Z</time>
      </trkpt>
      <trkpt lat="43.73053" lon="5.91938">
        <ele>591</ele>
        <time>2024-07-01T16:36:02Z</time>
      </trkpt>
      <trkpt lat="43.73061" lon="5.91945">
        <ele>591</ele>
        <time>2024-07-01T16:36:04Z</time>
      </trkpt>
      <trkpt lat="43.73064" lon="5.91952">
        <ele>591</ele>
        <time>2024-07-01T16:36:05Z</time>
      </trkpt>
      <trkpt lat="43.73064" lon="5.91981">
        <ele>591</ele>
        <time>2024-07-01T16:36:10Z</time>
      </trkpt>
      <trkpt lat="43.73057" lon="5.9201">
        <ele>590</ele>
        <time>2024-07-01T16:36:15Z</time>
      </trkpt>
      <trkpt lat="43.73048" lon="5.92025">
        <ele>589</ele>
        <time>2024-07-01T16:36:19Z</time>
      </trkpt>
      <trkpt lat="43.73044" lon="5.92057">
        <ele>588</ele>
        <time>2024-07-01T16:36:24Z</time>
      </trkpt>
      <trkpt lat="43.73037" lon="5.92081">
        <ele>587</ele>
        <time>2024-07-01T16:36:28Z</time>
      </trkpt>
      <trkpt lat="43.73041" lon="5.92102">
        <ele>587</ele>
        <time>2024-07-01T16:36:32Z</time>
      </trkpt>
      <trkpt lat="43.73025" lon="5.92134">
        <ele>586</ele>
        <time>2024-07-01T16:36:39Z</time>
      </trkpt>
      <trkpt lat="43.73019" lon="5.92158">
        <ele>585</ele>
        <time>2024-07-01T16:36:43Z</time>
      </trkpt>
      <trkpt lat="43.73012" lon="5.92162">
        <ele>585</ele>
        <time>2024-07-01T16:36:45Z</time>
      </trkpt>
      <trkpt lat="43.72995" lon="5.92178">
        <ele>584</ele>
        <time>2024-07-01T16:36:49Z</time>
      </trkpt>
      <trkpt lat="43.72984" lon="5.92184">
        <ele>583</ele>
        <time>2024-07-01T16:36:52Z</time>
      </trkpt>
      <trkpt lat="43.7289" lon="5.92304">
        <ele>576</ele>
        <time>2024-07-01T16:37:22Z</time>
      </trkpt>
      <trkpt lat="43.72824" lon="5.92377">
        <ele>573</ele>
        <time>2024-07-01T16:37:42Z</time>
      </trkpt>
      <trkpt lat="43.72762" lon="5.92507">
        <ele>573</ele>
        <time>2024-07-01T16:38:08Z</time>
      </trkpt>
      <trkpt lat="43.72678" lon="5.92763">
        <ele>573</ele>
        <time>2024-07-01T16:38:56Z</time>
      </trkpt>
      <trkpt lat="43.72669" lon="5.92774">
        <ele>574</ele>
        <time>2024-07-01T16:38:58Z</time>
      </trkpt>
      <trkpt lat="43.72648" lon="5.92803">
        <ele>574</ele>
        <time>2024-07-01T16:39:05Z</time>
      </trkpt>
      <trkpt lat="43.72631" lon="5.9283">
        <ele>573</ele>
        <time>2024-07-01T16:39:11Z</time>
      </trkpt>
      <trkpt lat="43.72614" lon="5.92863">
        <ele>572</ele>
        <time>2024-07-01T16:39:18Z</time>
      </trkpt>
      <trkpt lat="43.72597" lon="5.92878">
        <ele>571</ele>
        <time>2024-07-01T16:39:23Z</time>
      </trkpt>
      <trkpt lat="43.72552" lon="5.92904">
        <ele>572</ele>
        <time>2024-07-01T16:39:34Z</time>
      </trkpt>
      <trkpt lat="43.72449" lon="5.92963">
        <ele>573</ele>
        <time>2024-07-01T16:40:00Z</time>
      </trkpt>
      <trkpt lat="43.72432" lon="5.92978">
        <ele>573</ele>
        <time>2024-07-01T16:40:05Z</time>
      </trkpt>
      <trkpt lat="43.72414" lon="5.92982">
        <ele>573</ele>
        <time>2024-07-01T16:40:09Z</time>
      </trkpt>
      <trkpt lat="43.72436" lon="5.93008">
        <ele>572</ele>
        <time>2024-07-01T16:40:16Z</time>
      </trkpt>
      <trkpt lat="43.72447" lon="5.93026">
        <ele>569</ele>
        <time>2024-07-01T16:40:20Z</time>
      </trkpt>
      <trkpt lat="43.72445" lon="5.93039">
        <ele>567</ele>
        <time>2024-07-01T16:40:22Z</time>
      </trkpt>
      <trkpt lat="43.72438" lon="5.93045">
        <ele>567</ele>
        <time>2024-07-01T16:40:24Z</time>
      </trkpt>
      <trkpt lat="43.7242" lon="5.93043">
        <ele>567</ele>
        <time>2024-07-01T16:40:28Z</time>
      </trkpt>
      <trkpt lat="43.72401" lon="5.93044">
        <ele>568</ele>
        <time>2024-07-01T16:40:33Z</time>
      </trkpt>
      <trkpt lat="43.72393" lon="5.93046">
        <ele>568</ele>
        <time>2024-07-01T16:40:35Z</time>
      </trkpt>
      <trkpt lat="43.72373" lon="5.93064">
        <ele>567</ele>
        <time>2024-07-01T16:40:40Z</time>
      </trkpt>
      <trkpt lat="43.72356" lon="5.93086">
        <ele>565</ele>
        <time>2024-07-01T16:40:46Z</time>
      </trkpt>
      <trkpt lat="43.72348" lon="5.93103">
        <ele>562</ele>
        <time>2024-07-01T16:40:49Z</time>
      </trkpt>
      <trkpt lat="43.72339" lon="5.93137">
        <ele>555</ele>
        <time>2024-07-01T16:40:55Z</time>
      </trkpt>
      <trkpt lat="43.72339" lon="5.93164">
        <ele>549</ele>
        <time>2024-07-01T16:41:00Z</time>
      </trkpt>
      <trkpt lat="43.72338" lon="5.93171">
        <ele>548</ele>
        <time>2024-07-01T16:41:01Z</time>
      </trkpt>
      <trkpt lat="43.72334" lon="5.9318">
        <ele>547</ele>
        <time>2024-07-01T16:41:03Z</time>
      </trkpt>
      <trkpt lat="43.72323" lon="5.93191">
        <ele>547</ele>
        <time>2024-07-01T16:41:06Z</time>
      </trkpt>
      <trkpt lat="43.72303" lon="5.93198">
        <ele>549</ele>
        <time>2024-07-01T16:41:11Z</time>
      </trkpt>
      <trkpt lat="43.72321" lon="5.93208">
        <ele>545</ele>
        <time>2024-07-01T16:41:15Z</time>
      </trkpt>
      <trkpt lat="43.72317" lon="5.93226">
        <ele>544</ele>
        <time>2024-07-01T16:41:19Z</time>
      </trkpt>
      <trkpt lat="43.72321" lon="5.93232">
        <ele>542</ele>
        <time>2024-07-01T16:41:20Z</time>
      </trkpt>
      <trkpt lat="43.72343" lon="5.93233">
        <ele>539</ele>
        <time>2024-07-01T16:41:25Z</time>
      </trkpt>
      <trkpt lat="43.72356" lon="5.93237">
        <ele>537</ele>
        <time>2024-07-01T16:41:28Z</time>
      </trkpt>
      <trkpt lat="43.72376" lon="5.93233">
        <ele>536</ele>
        <time>2024-07-01T16:41:33Z</time>
      </trkpt>
      <trkpt lat="43.72388" lon="5.93238">
        <ele>533</ele>
        <time>2024-07-01T16:41:36Z</time>
      </trkpt>
      <trkpt lat="43.72411" lon="5.93259">
        <ele>528</ele>
        <time>2024-07-01T16:41:42Z</time>
      </trkpt>
      <trkpt lat="43.72426" lon="5.93267">
        <ele>527</ele>
        <time>2024-07-01T16:41:46Z</time>
      </trkpt>
      <trkpt lat="43.72438" lon="5.93277">
        <ele>526</ele>
        <time>2024-07-01T16:41:49Z</time>
      </trkpt>
      <trkpt lat="43.72469" lon="5.93309">
        <ele>520</ele>
        <time>2024-07-01T16:41:58Z</time>
      </trkpt>
      <trkpt lat="43.72487" lon="5.93345">
        <ele>517</ele>
        <time>2024-07-01T16:42:06Z</time>
      </trkpt>
      <trkpt lat="43.72495" lon="5.93353">
        <ele>517</ele>
        <time>2024-07-01T16:42:08Z</time>
      </trkpt>
      <trkpt lat="43.72502" lon="5.93356">
        <ele>517</ele>
        <time>2024-07-01T16:42:10Z</time>
      </trkpt>
      <trkpt lat="43.72515" lon="5.93359">
        <ele>516</ele>
        <time>2024-07-01T16:42:13Z</time>
      </trkpt>
      <trkpt lat="43.72549" lon="5.9336">
        <ele>513</ele>
        <time>2024-07-01T16:42:21Z</time>
      </trkpt>
      <trkpt lat="43.7257" lon="5.93354">
        <ele>510</ele>
        <time>2024-07-01T16:42:26Z</time>
      </trkpt>
      <trkpt lat="43.72589" lon="5.9335">
        <ele>508</ele>
        <time>2024-07-01T16:42:30Z</time>
      </trkpt>
      <trkpt lat="43.72611" lon="5.93338">
        <ele>504</ele>
        <time>2024-07-01T16:42:36Z</time>
      </trkpt>
      <trkpt lat="43.7262" lon="5.93336">
        <ele>503</ele>
        <time>2024-07-01T16:42:38Z</time>
      </trkpt>
      <trkpt lat="43.72635" lon="5.93336">
        <ele>502</ele>
        <time>2024-07-01T16:42:41Z</time>
      </trkpt>
      <trkpt lat="43.72644" lon="5.93337">
        <ele>502</ele>
        <time>2024-07-01T16:42:43Z</time>
      </trkpt>
      <trkpt lat="43.7269" lon="5.93352">
        <ele>501</ele>
        <time>2024-07-01T16:42:55Z</time>
      </trkpt>
      <trkpt lat="43.72701" lon="5.93354">
        <ele>501</ele>
        <time>2024-07-01T16:42:57Z</time>
      </trkpt>
      <trkpt lat="43.72734" lon="5.93353">
        <ele>498</ele>
        <time>2024-07-01T16:43:05Z</time>
      </trkpt>
      <trkpt lat="43.7275" lon="5.93357">
        <ele>496</ele>
        <time>2024-07-01T16:43:09Z</time>
      </trkpt>
      <trkpt lat="43.72765" lon="5.93366">
        <ele>496</ele>
        <time>2024-07-01T16:43:12Z</time>
      </trkpt>
      <trkpt lat="43.728" lon="5.93401">
        <ele>492</ele>
        <time>2024-07-01T16:43:23Z</time>
      </trkpt>
      <trkpt lat="43.72831" lon="5.93442">
        <ele>487</ele>
        <time>2024-07-01T16:43:33Z</time>
      </trkpt>
      <trkpt lat="43.72842" lon="5.93449">
        <ele>486</ele>
        <time>2024-07-01T16:43:35Z</time>
      </trkpt>
      <trkpt lat="43.72855" lon="5.93452">
        <ele>486</ele>
        <time>2024-07-01T16:43:38Z</time>
      </trkpt>
      <trkpt lat="43.72861" lon="5.93456">
        <ele>486</ele>
        <time>2024-07-01T16:43:40Z</time>
      </trkpt>
      <trkpt lat="43.72863" lon="5.9346">
        <ele>486</ele>
        <time>2024-07-01T16:43:41Z</time>
      </trkpt>
      <trkpt lat="43.72864" lon="5.93469">
        <ele>486</ele>
        <time>2024-07-01T16:43:42Z</time>
      </trkpt>
      <trkpt lat="43.72859" lon="5.93495">
        <ele>487</ele>
        <time>2024-07-01T16:43:47Z</time>
      </trkpt>
      <trkpt lat="43.72858" lon="5.93516">
        <ele>487</ele>
        <time>2024-07-01T16:43:50Z</time>
      </trkpt>
      <trkpt lat="43.72855" lon="5.93527">
        <ele>487</ele>
        <time>2024-07-01T16:43:52Z</time>
      </trkpt>
      <trkpt lat="43.72844" lon="5.9354">
        <ele>487</ele>
        <time>2024-07-01T16:43:56Z</time>
      </trkpt>
      <trkpt lat="43.72818" lon="5.93559">
        <ele>489</ele>
        <time>2024-07-01T16:44:03Z</time>
      </trkpt>
      <trkpt lat="43.72814" lon="5.93565">
        <ele>490</ele>
        <time>2024-07-01T16:44:04Z</time>
      </trkpt>
      <trkpt lat="43.72814" lon="5.93581">
        <ele>489</ele>
        <time>2024-07-01T16:44:07Z</time>
      </trkpt>
      <trkpt lat="43.72811" lon="5.93591">
        <ele>490</ele>
        <time>2024-07-01T16:44:09Z</time>
      </trkpt>
      <trkpt lat="43.72787" lon="5.93601">
        <ele>495</ele>
        <time>2024-07-01T16:44:14Z</time>
      </trkpt>
      <trkpt lat="43.72742" lon="5.93613">
        <ele>503</ele>
        <time>2024-07-01T16:44:25Z</time>
      </trkpt>
      <trkpt lat="43.72713" lon="5.93629">
        <ele>508</ele>
        <time>2024-07-01T16:44:32Z</time>
      </trkpt>
      <trkpt lat="43.72695" lon="5.93634">
        <ele>511</ele>
        <time>2024-07-01T16:44:37Z</time>
      </trkpt>
      <trkpt lat="43.72682" lon="5.93655">
        <ele>511</ele>
        <time>2024-07-01T16:44:41Z</time>
      </trkpt>
      <trkpt lat="43.72676" lon="5.93679">
        <ele>511</ele>
        <time>2024-07-01T16:44:46Z</time>
      </trkpt>
      <trkpt lat="43.72662" lon="5.93697">
        <ele>513</ele>
        <time>2024-07-01T16:44:50Z</time>
      </trkpt>
      <trkpt lat="43.7265" lon="5.93705">
        <ele>516</ele>
        <time>2024-07-01T16:44:53Z</time>
      </trkpt>
      <trkpt lat="43.72615" lon="5.93711">
        <ele>523</ele>
        <time>2024-07-01T16:45:01Z</time>
      </trkpt>
      <trkpt lat="43.72623" lon="5.93715">
        <ele>522</ele>
        <time>2024-07-01T16:45:03Z</time>
      </trkpt>
      <trkpt lat="43.72649" lon="5.93752">
        <ele>517</ele>
        <time>2024-07-01T16:45:12Z</time>
      </trkpt>
      <trkpt lat="43.72662" lon="5.93779">
        <ele>514</ele>
        <time>2024-07-01T16:45:18Z</time>
      </trkpt>
      <trkpt lat="43.72665" lon="5.93785">
        <ele>513</ele>
        <time>2024-07-01T16:45:19Z</time>
      </trkpt>
      <trkpt lat="43.72664" lon="5.93789">
        <ele>514</ele>
        <time>2024-07-01T16:45:20Z</time>
      </trkpt>
      <trkpt lat="43.72755" lon="5.93818">
        <ele>511</ele>
        <time>2024-07-01T16:45:41Z</time>
      </trkpt>
      <trkpt lat="43.72781" lon="5.93843">
        <ele>507</ele>
        <time>2024-07-01T16:45:49Z</time>
      </trkpt>
      <trkpt lat="43.72801" lon="5.93845">
        <ele>506</ele>
        <time>2024-07-01T16:45:53Z</time>
      </trkpt>
      <trkpt lat="43.72824" lon="5.93838">
        <ele>505</ele>
        <time>2024-07-01T16:45:59Z</time>
      </trkpt>
      <trkpt lat="43.72846" lon="5.93852">
        <ele>502</ele>
        <time>2024-07-01T16:46:05Z</time>
      </trkpt>
      <trkpt lat="43.72816" lon="5.93895">
        <ele>500</ele>
        <time>2024-07-01T16:46:15Z</time>
      </trkpt>
      <trkpt lat="43.72815" lon="5.93906">
        <ele>499</ele>
        <time>2024-07-01T16:46:17Z</time>
      </trkpt>
      <trkpt lat="43.72809" lon="5.93931">
        <ele>496</ele>
        <time>2024-07-01T16:46:21Z</time>
      </trkpt>
      <trkpt lat="43.72795" lon="5.93958">
        <ele>492</ele>
        <time>2024-07-01T16:46:27Z</time>
      </trkpt>
      <trkpt lat="43.72775" lon="5.93976">
        <ele>488</ele>
        <time>2024-07-01T16:46:32Z</time>
      </trkpt>
      <trkpt lat="43.72778" lon="5.94">
        <ele>485</ele>
        <time>2024-07-01T16:46:36Z</time>
      </trkpt>
      <trkpt lat="43.72757" lon="5.93994">
        <ele>483</ele>
        <time>2024-07-01T16:46:41Z</time>
      </trkpt>
      <trkpt lat="43.7275" lon="5.93995">
        <ele>482</ele>
        <time>2024-07-01T16:46:43Z</time>
      </trkpt>
      <trkpt lat="43.7274" lon="5.94029">
        <ele>480</ele>
        <time>2024-07-01T16:46:49Z</time>
      </trkpt>
      <trkpt lat="43.7274" lon="5.94064">
        <ele>478</ele>
        <time>2024-07-01T16:46:55Z</time>
      </trkpt>
      <trkpt lat="43.72742" lon="5.94076">
        <ele>477</ele>
        <time>2024-07-01T16:46:57Z</time>
      </trkpt>
      <trkpt lat="43.72737" lon="5.94081">
        <ele>477</ele>
        <time>2024-07-01T16:46:59Z</time>
      </trkpt>
      <trkpt lat="43.72718" lon="5.94128">
        <ele>478</ele>
        <time>2024-07-01T16:47:08Z</time>
      </trkpt>
      <trkpt lat="43.72714" lon="5.9414">
        <ele>478</ele>
        <time>2024-07-01T16:47:10Z</time>
      </trkpt>
      <trkpt lat="43.72705" lon="5.94148">
        <ele>479</ele>
        <time>2024-07-01T16:47:12Z</time>
      </trkpt>
      <trkpt lat="43.72658" lon="5.94223">
        <ele>480</ele>
        <time>2024-07-01T16:47:29Z</time>
      </trkpt>
      <trkpt lat="43.72641" lon="5.94262">
        <ele>482</ele>
        <time>2024-07-01T16:47:37Z</time>
      </trkpt>
      <trkpt lat="43.72632" lon="5.94291">
        <ele>485</ele>
        <time>2024-07-01T16:47:42Z</time>
      </trkpt>
      <trkpt lat="43.72603" lon="5.94354">
        <ele>487</ele>
        <time>2024-07-01T16:47:55Z</time>
      </trkpt>
      <trkpt lat="43.72562" lon="5.94396">
        <ele>480</ele>
        <time>2024-07-01T16:48:07Z</time>
      </trkpt>
      <trkpt lat="43.72551" lon="5.94403">
        <ele>479</ele>
        <time>2024-07-01T16:48:10Z</time>
      </trkpt>
      <trkpt lat="43.72524" lon="5.94414">
        <ele>478</ele>
        <time>2024-07-01T16:48:16Z</time>
      </trkpt>
      <trkpt lat="43.72504" lon="5.94418">
        <ele>479</ele>
        <time>2024-07-01T16:48:21Z</time>
      </trkpt>
      <trkpt lat="43.72495" lon="5.94423">
        <ele>479</ele>
        <time>2024-07-01T16:48:23Z</time>
      </trkpt>
      <trkpt lat="43.72486" lon="5.94432">
        <ele>479</ele>
        <time>2024-07-01T16:48:26Z</time>
      </trkpt>
      <trkpt lat="43.72469" lon="5.94458">
        <ele>479</ele>
        <time>2024-07-01T16:48:32Z</time>
      </trkpt>
      <trkpt lat="43.72463" lon="5.94472">
        <ele>478</ele>
        <time>2024-07-01T16:48:34Z</time>
      </trkpt>
      <trkpt lat="43.72462" lon="5.94486">
        <ele>477</ele>
        <time>2024-07-01T16:48:37Z</time>
      </trkpt>
      <trkpt lat="43.72464" lon="5.94501">
        <ele>474</ele>
        <time>2024-07-01T16:48:39Z</time>
      </trkpt>
      <trkpt lat="43.72461" lon="5.94514">
        <ele>473</ele>
        <time>2024-07-01T16:48:42Z</time>
      </trkpt>
      <trkpt lat="43.72444" lon="5.94547">
        <ele>471</ele>
        <time>2024-07-01T16:48:48Z</time>
      </trkpt>
      <trkpt lat="43.72427" lon="5.9457">
        <ele>469</ele>
        <time>2024-07-01T16:48:54Z</time>
      </trkpt>
      <trkpt lat="43.72416" lon="5.94581">
        <ele>467</ele>
        <time>2024-07-01T16:48:57Z</time>
      </trkpt>
      <trkpt lat="43.72407" lon="5.94584">
        <ele>468</ele>
        <time>2024-07-01T16:48:59Z</time>
      </trkpt>
      <trkpt lat="43.72403" lon="5.94589">
        <ele>468</ele>
        <time>2024-07-01T16:49:01Z</time>
      </trkpt>
      <trkpt lat="43.72406" lon="5.94596">
        <ele>468</ele>
        <time>2024-07-01T16:49:02Z</time>
      </trkpt>
      <trkpt lat="43.72446" lon="5.94608">
        <ele>466</ele>
        <time>2024-07-01T16:49:11Z</time>
      </trkpt>
      <trkpt lat="43.72453" lon="5.94614">
        <ele>466</ele>
        <time>2024-07-01T16:49:13Z</time>
      </trkpt>
      <trkpt lat="43.72457" lon="5.94626">
        <ele>466</ele>
        <time>2024-07-01T16:49:16Z</time>
      </trkpt>
      <trkpt lat="43.72449" lon="5.94625">
        <ele>467</ele>
        <time>2024-07-01T16:49:18Z</time>
      </trkpt>
      <trkpt lat="43.72442" lon="5.94651">
        <ele>468</ele>
        <time>2024-07-01T16:49:22Z</time>
      </trkpt>
      <trkpt lat="43.72443" lon="5.9466">
        <ele>468</ele>
        <time>2024-07-01T16:49:24Z</time>
      </trkpt>
      <trkpt lat="43.72466" lon="5.94686">
        <ele>471</ele>
        <time>2024-07-01T16:49:31Z</time>
      </trkpt>
      <trkpt lat="43.72472" lon="5.9469">
        <ele>471</ele>
        <time>2024-07-01T16:49:32Z</time>
      </trkpt>
      <trkpt lat="43.72481" lon="5.94689">
        <ele>471</ele>
        <time>2024-07-01T16:49:34Z</time>
      </trkpt>
      <trkpt lat="43.72511" lon="5.94674">
        <ele>469</ele>
        <time>2024-07-01T16:49:42Z</time>
      </trkpt>
      <trkpt lat="43.7253" lon="5.94652">
        <ele>468</ele>
        <time>2024-07-01T16:49:48Z</time>
      </trkpt>
      <trkpt lat="43.7254" lon="5.94647">
        <ele>469</ele>
        <time>2024-07-01T16:49:50Z</time>
      </trkpt>
      <trkpt lat="43.72559" lon="5.94642">
        <ele>470</ele>
        <time>2024-07-01T16:49:55Z</time>
      </trkpt>
      <trkpt lat="43.72571" lon="5.94641">
        <ele>470</ele>
        <time>2024-07-01T16:49:57Z</time>
      </trkpt>
      <trkpt lat="43.72586" lon="5.94647">
        <ele>471</ele>
        <time>2024-07-01T16:50:01Z</time>
      </trkpt>
      <trkpt lat="43.72596" lon="5.94654">
        <ele>470</ele>
        <time>2024-07-01T16:50:04Z</time>
      </trkpt>
      <trkpt lat="43.72601" lon="5.94665">
        <ele>471</ele>
        <time>2024-07-01T16:50:06Z</time>
      </trkpt>
      <trkpt lat="43.72603" lon="5.94674">
        <ele>471</ele>
        <time>2024-07-01T16:50:07Z</time>
      </trkpt>
      <trkpt lat="43.72603" lon="5.94689">
        <ele>473</ele>
        <time>2024-07-01T16:50:10Z</time>
      </trkpt>
      <trkpt lat="43.72598" lon="5.94706">
        <ele>475</ele>
        <time>2024-07-01T16:50:13Z</time>
      </trkpt>
      <trkpt lat="43.7258" lon="5.94746">
        <ele>481</ele>
        <time>2024-07-01T16:50:21Z</time>
      </trkpt>
      <trkpt lat="43.72564" lon="5.94771">
        <ele>481</ele>
        <time>2024-07-01T16:50:27Z</time>
      </trkpt>
      <trkpt lat="43.7256" lon="5.9478">
        <ele>482</ele>
        <time>2024-07-01T16:50:28Z</time>
      </trkpt>
      <trkpt lat="43.72557" lon="5.94792">
        <ele>483</ele>
        <time>2024-07-01T16:50:31Z</time>
      </trkpt>
      <trkpt lat="43.72555" lon="5.94828">
        <ele>485</ele>
        <time>2024-07-01T16:50:37Z</time>
      </trkpt>
      <trkpt lat="43.72538" lon="5.94895">
        <ele>487</ele>
        <time>2024-07-01T16:50:49Z</time>
      </trkpt>
      <trkpt lat="43.72519" lon="5.94947">
        <ele>486</ele>
        <time>2024-07-01T16:50:58Z</time>
      </trkpt>
      <trkpt lat="43.7251" lon="5.94959">
        <ele>485</ele>
        <time>2024-07-01T16:51:01Z</time>
      </trkpt>
      <trkpt lat="43.72499" lon="5.9497">
        <ele>484</ele>
        <time>2024-07-01T16:51:05Z</time>
      </trkpt>
      <trkpt lat="43.72488" lon="5.94973">
        <ele>484</ele>
        <time>2024-07-01T16:51:07Z</time>
      </trkpt>
      <trkpt lat="43.72479" lon="5.94973">
        <ele>483</ele>
        <time>2024-07-01T16:51:09Z</time>
      </trkpt>
      <trkpt lat="43.72469" lon="5.9497">
        <ele>483</ele>
        <time>2024-07-01T16:51:12Z</time>
      </trkpt>
      <trkpt lat="43.72431" lon="5.9495">
        <ele>485</ele>
        <time>2024-07-01T16:51:21Z</time>
      </trkpt>
      <trkpt lat="43.72397" lon="5.94938">
        <ele>487</ele>
        <time>2024-07-01T16:51:29Z</time>
      </trkpt>
      <trkpt lat="43.72391" lon="5.94938">
        <ele>487</ele>
        <time>2024-07-01T16:51:31Z</time>
      </trkpt>
      <trkpt lat="43.72382" lon="5.94949">
        <ele>486</ele>
        <time>2024-07-01T16:51:34Z</time>
      </trkpt>
      <trkpt lat="43.72382" lon="5.94965">
        <ele>486</ele>
        <time>2024-07-01T16:51:36Z</time>
      </trkpt>
      <trkpt lat="43.72391" lon="5.9501">
        <ele>483</ele>
        <time>2024-07-01T16:51:44Z</time>
      </trkpt>
      <trkpt lat="43.72397" lon="5.9506">
        <ele>482</ele>
        <time>2024-07-01T16:51:53Z</time>
      </trkpt>
      <trkpt lat="43.72412" lon="5.95092">
        <ele>480</ele>
        <time>2024-07-01T16:51:59Z</time>
      </trkpt>
      <trkpt lat="43.72438" lon="5.95126">
        <ele>480</ele>
        <time>2024-07-01T16:52:07Z</time>
      </trkpt>
      <trkpt lat="43.72461" lon="5.95151">
        <ele>480</ele>
        <time>2024-07-01T16:52:14Z</time>
      </trkpt>
      <trkpt lat="43.72477" lon="5.95175">
        <ele>480</ele>
        <time>2024-07-01T16:52:20Z</time>
      </trkpt>
      <trkpt lat="43.72483" lon="5.95189">
        <ele>481</ele>
        <time>2024-07-01T16:52:23Z</time>
      </trkpt>
      <trkpt lat="43.72491" lon="5.95241">
        <ele>485</ele>
        <time>2024-07-01T16:52:32Z</time>
      </trkpt>
      <trkpt lat="43.72503" lon="5.95255">
        <ele>485</ele>
        <time>2024-07-01T16:52:35Z</time>
      </trkpt>
      <trkpt lat="43.72511" lon="5.95268">
        <ele>484</ele>
        <time>2024-07-01T16:52:38Z</time>
      </trkpt>
      <trkpt lat="43.72522" lon="5.95298">
        <ele>484</ele>
        <time>2024-07-01T16:52:44Z</time>
      </trkpt>
      <trkpt lat="43.7253" lon="5.95324">
        <ele>485</ele>
        <time>2024-07-01T16:52:49Z</time>
      </trkpt>
      <trkpt lat="43.72534" lon="5.95362">
        <ele>485</ele>
        <time>2024-07-01T16:52:55Z</time>
      </trkpt>
      <trkpt lat="43.72556" lon="5.95375">
        <ele>484</ele>
        <time>2024-07-01T16:53:01Z</time>
      </trkpt>
      <trkpt lat="43.72583" lon="5.95381">
        <ele>483</ele>
        <time>2024-07-01T16:53:07Z</time>
      </trkpt>
      <trkpt lat="43.72607" lon="5.95394">
        <ele>484</ele>
        <time>2024-07-01T16:53:13Z</time>
      </trkpt>
      <trkpt lat="43.7262" lon="5.95397">
        <ele>484</ele>
        <time>2024-07-01T16:53:16Z</time>
      </trkpt>
      <trkpt lat="43.72696" lon="5.9539">
        <ele>485</ele>
        <time>2024-07-01T16:53:34Z</time>
      </trkpt>
      <trkpt lat="43.72709" lon="5.9539">
        <ele>485</ele>
        <time>2024-07-01T16:53:37Z</time>
      </trkpt>
      <trkpt lat="43.72718" lon="5.95393">
        <ele>486</ele>
        <time>2024-07-01T16:53:39Z</time>
      </trkpt>
      <trkpt lat="43.72735" lon="5.9541">
        <ele>488</ele>
        <time>2024-07-01T16:53:44Z</time>
      </trkpt>
      <trkpt lat="43.72797" lon="5.95434">
        <ele>488</ele>
        <time>2024-07-01T16:53:59Z</time>
      </trkpt>
      <trkpt lat="43.72829" lon="5.95449">
        <ele>488</ele>
        <time>2024-07-01T16:54:07Z</time>
      </trkpt>
      <trkpt lat="43.7289" lon="5.95471">
        <ele>484</ele>
        <time>2024-07-01T16:54:22Z</time>
      </trkpt>
      <trkpt lat="43.72903" lon="5.95478">
        <ele>483</ele>
        <time>2024-07-01T16:54:25Z</time>
      </trkpt>
      <trkpt lat="43.72924" lon="5.95486">
        <ele>481</ele>
        <time>2024-07-01T16:54:30Z</time>
      </trkpt>
      <trkpt lat="43.72943" lon="5.95497">
        <ele>478</ele>
        <time>2024-07-01T16:54:35Z</time>
      </trkpt>
      <trkpt lat="43.72992" lon="5.95505">
        <ele>467</ele>
        <time>2024-07-01T16:54:46Z</time>
      </trkpt>
      <trkpt lat="43.7301" lon="5.95506">
        <ele>464</ele>
        <time>2024-07-01T16:54:51Z</time>
      </trkpt>
      <trkpt lat="43.73022" lon="5.9551">
        <ele>462</ele>
        <time>2024-07-01T16:54:53Z</time>
      </trkpt>
      <trkpt lat="43.73042" lon="5.95525">
        <ele>460</ele>
        <time>2024-07-01T16:54:59Z</time>
      </trkpt>
      <trkpt lat="43.73057" lon="5.95548">
        <ele>460</ele>
        <time>2024-07-01T16:55:04Z</time>
      </trkpt>
      <trkpt lat="43.73079" lon="5.95609">
        <ele>457</ele>
        <time>2024-07-01T16:55:15Z</time>
      </trkpt>
      <trkpt lat="43.73087" lon="5.95642">
        <ele>454</ele>
        <time>2024-07-01T16:55:21Z</time>
      </trkpt>
      <trkpt lat="43.73093" lon="5.95658">
        <ele>453</ele>
        <time>2024-07-01T16:55:24Z</time>
      </trkpt>
      <trkpt lat="43.73106" lon="5.95675">
        <ele>449</ele>
        <time>2024-07-01T16:55:29Z</time>
      </trkpt>
      <trkpt lat="43.73129" lon="5.95714">
        <ele>443</ele>
        <time>2024-07-01T16:55:37Z</time>
      </trkpt>
      <trkpt lat="43.73138" lon="5.95718">
        <ele>441</ele>
        <time>2024-07-01T16:55:39Z</time>
      </trkpt>
      <trkpt lat="43.73145" lon="5.95714">
        <ele>440</ele>
        <time>2024-07-01T16:55:41Z</time>
      </trkpt>
      <trkpt lat="43.73156" lon="5.95691">
        <ele>440</ele>
        <time>2024-07-01T16:55:46Z</time>
      </trkpt>
      <trkpt lat="43.73162" lon="5.95674">
        <ele>439</ele>
        <time>2024-07-01T16:55:49Z</time>
      </trkpt>
      <trkpt lat="43.73175" lon="5.95625">
        <ele>437</ele>
        <time>2024-07-01T16:55:58Z</time>
      </trkpt>
      <trkpt lat="43.73176" lon="5.95602">
        <ele>437</ele>
        <time>2024-07-01T16:56:02Z</time>
      </trkpt>
      <trkpt lat="43.73177" lon="5.95562">
        <ele>437</ele>
        <time>2024-07-01T16:56:08Z</time>
      </trkpt>
      <trkpt lat="43.73172" lon="5.95537">
        <ele>438</ele>
        <time>2024-07-01T16:56:13Z</time>
      </trkpt>
      <trkpt lat="43.73171" lon="5.95523">
        <ele>439</ele>
        <time>2024-07-01T16:56:15Z</time>
      </trkpt>
      <trkpt lat="43.73184" lon="5.9549">
        <ele>435</ele>
        <time>2024-07-01T16:56:21Z</time>
      </trkpt>
      <trkpt lat="43.73197" lon="5.95424">
        <ele>426</ele>
        <time>2024-07-01T16:56:33Z</time>
      </trkpt>
      <trkpt lat="43.73198" lon="5.95396">
        <ele>422</ele>
        <time>2024-07-01T16:56:38Z</time>
      </trkpt>
      <trkpt lat="43.73206" lon="5.95382">
        <ele>418</ele>
        <time>2024-07-01T16:56:41Z</time>
      </trkpt>
      <trkpt lat="43.7321" lon="5.95364">
        <ele>415</ele>
        <time>2024-07-01T16:56:44Z</time>
      </trkpt>
      <trkpt lat="43.7321" lon="5.95349">
        <ele>413</ele>
        <time>2024-07-01T16:56:46Z</time>
      </trkpt>
      <trkpt lat="43.73207" lon="5.95344">
        <ele>413</ele>
        <time>2024-07-01T16:56:47Z</time>
      </trkpt>
      <trkpt lat="43.73209" lon="5.95337">
        <ele>412</ele>
        <time>2024-07-01T16:56:49Z</time>
      </trkpt>
      <trkpt lat="43.7322" lon="5.95335">
        <ele>410</ele>
        <time>2024-07-01T16:56:51Z</time>
      </trkpt>
      <trkpt lat="43.73239" lon="5.95338">
        <ele>406</ele>
        <time>2024-07-01T16:56:56Z</time>
      </trkpt>
      <trkpt lat="43.73245" lon="5.95337">
        <ele>405</ele>
        <time>2024-07-01T16:56:57Z</time>
      </trkpt>
      <trkpt lat="43.73249" lon="5.95333">
        <ele>404</ele>
        <time>2024-07-01T16:56:58Z</time>
      </trkpt>
      <trkpt lat="43.73259" lon="5.95352">
        <ele>403</ele>
        <time>2024-07-01T16:57:02Z</time>
      </trkpt>
      <trkpt lat="43.73258" lon="5.95369">
        <ele>405</ele>
        <time>2024-07-01T16:57:05Z</time>
      </trkpt>
      <trkpt lat="43.73263" lon="5.95381">
        <ele>405</ele>
        <time>2024-07-01T16:57:08Z</time>
      </trkpt>
      <trkpt lat="43.7327" lon="5.95413">
        <ele>405</ele>
        <time>2024-07-01T16:57:13Z</time>
      </trkpt>
      <trkpt lat="43.7327" lon="5.95427">
        <ele>406</ele>
        <time>2024-07-01T16:57:16Z</time>
      </trkpt>
      <trkpt lat="43.73271" lon="5.95452">
        <ele>407</ele>
        <time>2024-07-01T16:57:20Z</time>
      </trkpt>
      <trkpt lat="43.73275" lon="5.95474">
        <ele>407</ele>
        <time>2024-07-01T16:57:24Z</time>
      </trkpt>
      <trkpt lat="43.73284" lon="5.95503">
        <ele>405</ele>
        <time>2024-07-01T16:57:29Z</time>
      </trkpt>
      <trkpt lat="43.73292" lon="5.95513">
        <ele>403</ele>
        <time>2024-07-01T16:57:31Z</time>
      </trkpt>
      <trkpt lat="43.73298" lon="5.95535">
        <ele>402</ele>
        <time>2024-07-01T16:57:35Z</time>
      </trkpt>
      <trkpt lat="43.73301" lon="5.95555">
        <ele>402</ele>
        <time>2024-07-01T16:57:39Z</time>
      </trkpt>
      <trkpt lat="43.73299" lon="5.95618">
        <ele>405</ele>
        <time>2024-07-01T16:57:50Z</time>
      </trkpt>
      <trkpt lat="43.73319" lon="5.95662">
        <ele>401</ele>
        <time>2024-07-01T16:57:58Z</time>
      </trkpt>
      <trkpt lat="43.73322" lon="5.95675">
        <ele>400</ele>
        <time>2024-07-01T16:58:01Z</time>
      </trkpt>
      <trkpt lat="43.73321" lon="5.95692">
        <ele>400</ele>
        <time>2024-07-01T16:58:03Z</time>
      </trkpt>
      <trkpt lat="43.73314" lon="5.95736">
        <ele>401</ele>
        <time>2024-07-01T16:58:11Z</time>
      </trkpt>
      <trkpt lat="43.73315" lon="5.95764">
        <ele>399</ele>
        <time>2024-07-01T16:58:16Z</time>
      </trkpt>
      <trkpt lat="43.73304" lon="5.95795">
        <ele>401</ele>
        <time>2024-07-01T16:58:22Z</time>
      </trkpt>
      <trkpt lat="43.733" lon="5.95808">
        <ele>401</ele>
        <time>2024-07-01T16:58:24Z</time>
      </trkpt>
      <trkpt lat="43.733" lon="5.95822">
        <ele>400</ele>
        <time>2024-07-01T16:58:26Z</time>
      </trkpt>
      <trkpt lat="43.73288" lon="5.95855">
        <ele>401</ele>
        <time>2024-07-01T16:58:33Z</time>
      </trkpt>
      <trkpt lat="43.73286" lon="5.95867">
        <ele>401</ele>
        <time>2024-07-01T16:58:35Z</time>
      </trkpt>
      <trkpt lat="43.73291" lon="5.95884">
        <ele>398</ele>
        <time>2024-07-01T16:58:38Z</time>
      </trkpt>
      <trkpt lat="43.73292" lon="5.95897">
        <ele>397</ele>
        <time>2024-07-01T16:58:40Z</time>
      </trkpt>
      <trkpt lat="43.73276" lon="5.95932">
        <ele>400</ele>
        <time>2024-07-01T16:58:47Z</time>
      </trkpt>
      <trkpt lat="43.73276" lon="5.95962">
        <ele>398</ele>
        <time>2024-07-01T16:58:52Z</time>
      </trkpt>
      <trkpt lat="43.73272" lon="5.95981">
        <ele>398</ele>
        <time>2024-07-01T16:58:55Z</time>
      </trkpt>
      <trkpt lat="43.73277" lon="5.96006">
        <ele>395</ele>
        <time>2024-07-01T16:59:00Z</time>
      </trkpt>
      <trkpt lat="43.73279" lon="5.96052">
        <ele>391</ele>
        <time>2024-07-01T16:59:08Z</time>
      </trkpt>
      <trkpt lat="43.73277" lon="5.96065">
        <ele>390</ele>
        <time>2024-07-01T16:59:10Z</time>
      </trkpt>
      <trkpt lat="43.73266" lon="5.96086">
        <ele>390</ele>
        <time>2024-07-01T16:59:14Z</time>
      </trkpt>
      <trkpt lat="43.73264" lon="5.96103">
        <ele>388</ele>
        <time>2024-07-01T16:59:17Z</time>
      </trkpt>
      <trkpt lat="43.73289" lon="5.96134">
        <ele>382</ele>
        <time>2024-07-01T16:59:25Z</time>
      </trkpt>
      <trkpt lat="43.73292" lon="5.96149">
        <ele>380</ele>
        <time>2024-07-01T16:59:28Z</time>
      </trkpt>
      <trkpt lat="43.7329" lon="5.96182">
        <ele>378</ele>
        <time>2024-07-01T16:59:33Z</time>
      </trkpt>
      <trkpt lat="43.73317" lon="5.96189">
        <ele>376</ele>
        <time>2024-07-01T16:59:40Z</time>
      </trkpt>
      <trkpt lat="43.73332" lon="5.96196">
        <ele>374</ele>
        <time>2024-07-01T16:59:43Z</time>
      </trkpt>
      <trkpt lat="43.73354" lon="5.96217">
        <ele>372</ele>
        <time>2024-07-01T16:59:49Z</time>
      </trkpt>
      <trkpt lat="43.73397" lon="5.96269">
        <ele>369</ele>
        <time>2024-07-01T17:00:03Z</time>
      </trkpt>
      <trkpt lat="43.73421" lon="5.96302">
        <ele>368</ele>
        <time>2024-07-01T17:00:11Z</time>
      </trkpt>
      <trkpt lat="43.73407" lon="5.96282">
        <ele>369</ele>
        <time>2024-07-01T17:00:15Z</time>
      </trkpt>
      <trkpt lat="43.73399" lon="5.96293">
        <ele>369</ele>
        <time>2024-07-01T17:00:18Z</time>
      </trkpt>
      <trkpt lat="43.73385" lon="5.96278">
        <ele>369</ele>
        <time>2024-07-01T17:00:22Z</time>
      </trkpt>
      <trkpt lat="43.73364" lon="5.96267">
        <ele>370</ele>
        <time>2024-07-01T17:00:27Z</time>
      </trkpt>
      <trkpt lat="43.73342" lon="5.96266">
        <ele>370</ele>
        <time>2024-07-01T17:00:33Z</time>
      </trkpt>
      <trkpt lat="43.73332" lon="5.96272">
        <ele>370</ele>
        <time>2024-07-01T17:00:35Z</time>
      </trkpt>
      <trkpt lat="43.73325" lon="5.96273">
        <ele>370</ele>
        <time>2024-07-01T17:00:37Z</time>
      </trkpt>
      <trkpt lat="43.73306" lon="5.96263">
        <ele>371</ele>
        <time>2024-07-01T17:00:41Z</time>
      </trkpt>
      <trkpt lat="43.73276" lon="5.96286">
        <ele>370</ele>
        <time>2024-07-01T17:00:50Z</time>
      </trkpt>
      <trkpt lat="43.73271" lon="5.9628">
        <ele>371</ele>
        <time>2024-07-01T17:00:51Z</time>
      </trkpt>
      <trkpt lat="43.73257" lon="5.96276">
        <ele>371</ele>
        <time>2024-07-01T17:00:54Z</time>
      </trkpt>
      <trkpt lat="43.73247" lon="5.96278">
        <ele>371</ele>
        <time>2024-07-01T17:00:57Z</time>
      </trkpt>
      <trkpt lat="43.73229" lon="5.96293">
        <ele>369</ele>
        <time>2024-07-01T17:01:02Z</time>
      </trkpt>
      <trkpt lat="43.73209" lon="5.96302">
        <ele>368</ele>
        <time>2024-07-01T17:01:07Z</time>
      </trkpt>
      <trkpt lat="43.73196" lon="5.96301">
        <ele>367</ele>
        <time>2024-07-01T17:01:10Z</time>
      </trkpt>
      <trkpt lat="43.73182" lon="5.96296">
        <ele>367</ele>
        <time>2024-07-01T17:01:13Z</time>
      </trkpt>
      <trkpt lat="43.73168" lon="5.96311">
        <ele>366</ele>
        <time>2024-07-01T17:01:17Z</time>
      </trkpt>
      <trkpt lat="43.73167" lon="5.96303">
        <ele>366</ele>
        <time>2024-07-01T17:01:18Z</time>
      </trkpt>
      <trkpt lat="43.73174" lon="5.96259">
        <ele>370</ele>
        <time>2024-07-01T17:01:26Z</time>
      </trkpt>
      <trkpt lat="43.73171" lon="5.96247">
        <ele>371</ele>
        <time>2024-07-01T17:01:28Z</time>
      </trkpt>
      <trkpt lat="43.7316" lon="5.96243">
        <ele>371</ele>
        <time>2024-07-01T17:01:31Z</time>
      </trkpt>
      <trkpt lat="43.73133" lon="5.96244">
        <ele>372</ele>
        <time>2024-07-01T17:01:37Z</time>
      </trkpt>
      <trkpt lat="43.73121" lon="5.96257">
        <ele>370</ele>
        <time>2024-07-01T17:01:41Z</time>
      </trkpt>
      <trkpt lat="43.73107" lon="5.96276">
        <ele>368</ele>
        <time>2024-07-01T17:01:45Z</time>
      </trkpt>
      <trkpt lat="43.73096" lon="5.96287">
        <ele>367</ele>
        <time>2024-07-01T17:01:49Z</time>
      </trkpt>
      <trkpt lat="43.73087" lon="5.96294">
        <ele>367</ele>
        <time>2024-07-01T17:01:51Z</time>
      </trkpt>
      <trkpt lat="43.73076" lon="5.963">
        <ele>367</ele>
        <time>2024-07-01T17:01:54Z</time>
      </trkpt>
      <trkpt lat="43.73053" lon="5.96304">
        <ele>370</ele>
        <time>2024-07-01T17:01:59Z</time>
      </trkpt>
      <trkpt lat="43.73019" lon="5.96316">
        <ele>372</ele>
        <time>2024-07-01T17:02:07Z</time>
      </trkpt>
      <trkpt lat="43.72971" lon="5.96339">
        <ele>373</ele>
        <time>2024-07-01T17:02:19Z</time>
      </trkpt>
      <trkpt lat="43.72917" lon="5.96355">
        <ele>375</ele>
        <time>2024-07-01T17:02:32Z</time>
      </trkpt>
      <trkpt lat="43.72881" lon="5.96362">
        <ele>373</ele>
        <time>2024-07-01T17:02:41Z</time>
      </trkpt>
      <trkpt lat="43.72837" lon="5.96361">
        <ele>371</ele>
        <time>2024-07-01T17:02:51Z</time>
      </trkpt>
      <trkpt lat="43.7282" lon="5.96358">
        <ele>371</ele>
        <time>2024-07-01T17:02:55Z</time>
      </trkpt>
      <trkpt lat="43.72797" lon="5.96344">
        <ele>371</ele>
        <time>2024-07-01T17:03:01Z</time>
      </trkpt>
      <trkpt lat="43.72759" lon="5.96331">
        <ele>369</ele>
        <time>2024-07-01T17:03:10Z</time>
      </trkpt>
      <trkpt lat="43.72731" lon="5.96317">
        <ele>372</ele>
        <time>2024-07-01T17:03:17Z</time>
      </trkpt>
      <trkpt lat="43.72694" lon="5.96325">
        <ele>370</ele>
        <time>2024-07-01T17:03:26Z</time>
      </trkpt>
      <trkpt lat="43.7268" lon="5.96329">
        <ele>368</ele>
        <time>2024-07-01T17:03:29Z</time>
      </trkpt>
      <trkpt lat="43.72675" lon="5.96327">
        <ele>369</ele>
        <time>2024-07-01T17:03:30Z</time>
      </trkpt>
      <trkpt lat="43.7267" lon="5.9632">
        <ele>371</ele>
        <time>2024-07-01T17:03:32Z</time>
      </trkpt>
      <trkpt lat="43.72646" lon="5.96307">
        <ele>372</ele>
        <time>2024-07-01T17:03:38Z</time>
      </trkpt>
      <trkpt lat="43.72582" lon="5.96281">
        <ele>372</ele>
        <time>2024-07-01T17:03:53Z</time>
      </trkpt>
      <trkpt lat="43.72575" lon="5.96274">
        <ele>373</ele>
        <time>2024-07-01T17:03:55Z</time>
      </trkpt>
      <trkpt lat="43.72559" lon="5.96239">
        <ele>379</ele>
        <time>2024-07-01T17:04:02Z</time>
      </trkpt>
      <trkpt lat="43.72527" lon="5.96242">
        <ele>377</ele>
        <time>2024-07-01T17:04:10Z</time>
      </trkpt>
      <trkpt lat="43.72511" lon="5.96233">
        <ele>377</ele>
        <time>2024-07-01T17:04:14Z</time>
      </trkpt>
      <trkpt lat="43.72477" lon="5.96172">
        <ele>387</ele>
        <time>2024-07-01T17:04:27Z</time>
      </trkpt>
      <trkpt lat="43.72473" lon="5.96147">
        <ele>389</ele>
        <time>2024-07-01T17:04:31Z</time>
      </trkpt>
      <trkpt lat="43.72467" lon="5.96083">
        <ele>394</ele>
        <time>2024-07-01T17:04:42Z</time>
      </trkpt>
      <trkpt lat="43.72461" lon="5.96045">
        <ele>397</ele>
        <time>2024-07-01T17:04:49Z</time>
      </trkpt>
      <trkpt lat="43.7242" lon="5.95959">
        <ele>402</ele>
        <time>2024-07-01T17:05:06Z</time>
      </trkpt>
      <trkpt lat="43.72388" lon="5.95886">
        <ele>411</ele>
        <time>2024-07-01T17:05:20Z</time>
      </trkpt>
      <trkpt lat="43.72346" lon="5.95807">
        <ele>416</ele>
        <time>2024-07-01T17:05:37Z</time>
      </trkpt>
      <trkpt lat="43.72329" lon="5.95786">
        <ele>417</ele>
        <time>2024-07-01T17:05:42Z</time>
      </trkpt>
      <trkpt lat="43.7232" lon="5.95778">
        <ele>418</ele>
        <time>2024-07-01T17:05:45Z</time>
      </trkpt>
      <trkpt lat="43.72294" lon="5.95766">
        <ele>419</ele>
        <time>2024-07-01T17:05:51Z</time>
      </trkpt>
      <trkpt lat="43.72228" lon="5.95741">
        <ele>422</ele>
        <time>2024-07-01T17:06:07Z</time>
      </trkpt>
      <trkpt lat="43.7212" lon="5.95714">
        <ele>436</ele>
        <time>2024-07-01T17:06:33Z</time>
      </trkpt>
      <trkpt lat="43.72115" lon="5.9571">
        <ele>437</ele>
        <time>2024-07-01T17:06:34Z</time>
      </trkpt>
      <trkpt lat="43.72111" lon="5.95702">
        <ele>437</ele>
        <time>2024-07-01T17:06:36Z</time>
      </trkpt>
      <trkpt lat="43.7211" lon="5.95699">
        <ele>437</ele>
        <time>2024-07-01T17:06:36Z</time>
      </trkpt>
      <trkpt lat="43.7211" lon="5.95689">
        <ele>438</ele>
        <time>2024-07-01T17:06:38Z</time>
      </trkpt>
      <trkpt lat="43.72116" lon="5.95653">
        <ele>441</ele>
        <time>2024-07-01T17:06:44Z</time>
      </trkpt>
      <trkpt lat="43.72116" lon="5.95641">
        <ele>443</ele>
        <time>2024-07-01T17:06:46Z</time>
      </trkpt>
      <trkpt lat="43.72112" lon="5.95626">
        <ele>445</ele>
        <time>2024-07-01T17:06:49Z</time>
      </trkpt>
      <trkpt lat="43.7209" lon="5.95597">
        <ele>446</ele>
        <time>2024-07-01T17:06:56Z</time>
      </trkpt>
      <trkpt lat="43.72076" lon="5.95587">
        <ele>447</ele>
        <time>2024-07-01T17:07:00Z</time>
      </trkpt>
      <trkpt lat="43.72027" lon="5.95565">
        <ele>455</ele>
        <time>2024-07-01T17:07:12Z</time>
      </trkpt>
      <trkpt lat="43.72022" lon="5.95559">
        <ele>456</ele>
        <time>2024-07-01T17:07:13Z</time>
      </trkpt>
      <trkpt lat="43.7203" lon="5.95551">
        <ele>457</ele>
        <time>2024-07-01T17:07:16Z</time>
      </trkpt>
      <trkpt lat="43.72063" lon="5.95552">
        <ele>456</ele>
        <time>2024-07-01T17:07:23Z</time>
      </trkpt>
      <trkpt lat="43.72069" lon="5.95547">
        <ele>457</ele>
        <time>2024-07-01T17:07:25Z</time>
      </trkpt>
      <trkpt lat="43.72062" lon="5.95533">
        <ele>461</ele>
        <time>2024-07-01T17:07:28Z</time>
      </trkpt>
      <trkpt lat="43.72038" lon="5.95527">
        <ele>462</ele>
        <time>2024-07-01T17:07:34Z</time>
      </trkpt>
      <trkpt lat="43.72006" lon="5.95512">
        <ele>464</ele>
        <time>2024-07-01T17:07:41Z</time>
      </trkpt>
      <trkpt lat="43.71994" lon="5.95501">
        <ele>466</ele>
        <time>2024-07-01T17:07:45Z</time>
      </trkpt>
      <trkpt lat="43.71983" lon="5.95489">
        <ele>471</ele>
        <time>2024-07-01T17:07:48Z</time>
      </trkpt>
      <trkpt lat="43.7192" lon="5.95442">
        <ele>482</ele>
        <time>2024-07-01T17:08:05Z</time>
      </trkpt>
      <trkpt lat="43.71888" lon="5.95426">
        <ele>487</ele>
        <time>2024-07-01T17:08:13Z</time>
      </trkpt>
      <trkpt lat="43.71867" lon="5.95411">
        <ele>490</ele>
        <time>2024-07-01T17:08:18Z</time>
      </trkpt>
      <trkpt lat="43.71851" lon="5.95394">
        <ele>492</ele>
        <time>2024-07-01T17:08:23Z</time>
      </trkpt>
      <trkpt lat="43.71834" lon="5.95368">
        <ele>492</ele>
        <time>2024-07-01T17:08:29Z</time>
      </trkpt>
      <trkpt lat="43.71823" lon="5.95355">
        <ele>492</ele>
        <time>2024-07-01T17:08:32Z</time>
      </trkpt>
      <trkpt lat="43.71782" lon="5.95341">
        <ele>492</ele>
        <time>2024-07-01T17:08:42Z</time>
      </trkpt>
      <trkpt lat="43.71749" lon="5.95308">
        <ele>494</ele>
        <time>2024-07-01T17:08:52Z</time>
      </trkpt>
      <trkpt lat="43.71732" lon="5.95297">
        <ele>498</ele>
        <time>2024-07-01T17:08:56Z</time>
      </trkpt>
      <trkpt lat="43.71713" lon="5.95299">
        <ele>499</ele>
        <time>2024-07-01T17:09:00Z</time>
      </trkpt>
      <trkpt lat="43.71704" lon="5.95286">
        <ele>501</ele>
        <time>2024-07-01T17:09:04Z</time>
      </trkpt>
      <trkpt lat="43.71665" lon="5.95205">
        <ele>505</ele>
        <time>2024-07-01T17:09:20Z</time>
      </trkpt>
      <trkpt lat="43.71613" lon="5.95133">
        <ele>513</ele>
        <time>2024-07-01T17:09:37Z</time>
      </trkpt>
      <trkpt lat="43.71592" lon="5.95116">
        <ele>513</ele>
        <time>2024-07-01T17:09:43Z</time>
      </trkpt>
      <trkpt lat="43.71557" lon="5.95096">
        <ele>516</ele>
        <time>2024-07-01T17:09:52Z</time>
      </trkpt>
      <trkpt lat="43.71502" lon="5.95062">
        <ele>524</ele>
        <time>2024-07-01T17:10:06Z</time>
      </trkpt>
      <trkpt lat="43.71491" lon="5.95053">
        <ele>525</ele>
        <time>2024-07-01T17:10:09Z</time>
      </trkpt>
      <trkpt lat="43.71486" lon="5.95047">
        <ele>526</ele>
        <time>2024-07-01T17:10:10Z</time>
      </trkpt>
      <trkpt lat="43.71484" lon="5.95041">
        <ele>526</ele>
        <time>2024-07-01T17:10:11Z</time>
      </trkpt>
      <trkpt lat="43.71486" lon="5.9503">
        <ele>526</ele>
        <time>2024-07-01T17:10:13Z</time>
      </trkpt>
      <trkpt lat="43.71498" lon="5.95">
        <ele>526</ele>
        <time>2024-07-01T17:10:19Z</time>
      </trkpt>
      <trkpt lat="43.715" lon="5.94986">
        <ele>528</ele>
        <time>2024-07-01T17:10:21Z</time>
      </trkpt>
      <trkpt lat="43.71497" lon="5.94978">
        <ele>529</ele>
        <time>2024-07-01T17:10:23Z</time>
      </trkpt>
      <trkpt lat="43.71429" lon="5.94945">
        <ele>534</ele>
        <time>2024-07-01T17:10:40Z</time>
      </trkpt>
      <trkpt lat="43.71422" lon="5.94913">
        <ele>535</ele>
        <time>2024-07-01T17:10:45Z</time>
      </trkpt>
      <trkpt lat="43.71422" lon="5.94895">
        <ele>536</ele>
        <time>2024-07-01T17:10:49Z</time>
      </trkpt>
      <trkpt lat="43.71422" lon="5.94913">
        <ele>535</ele>
        <time>2024-07-01T17:10:52Z</time>
      </trkpt>
      <trkpt lat="43.71411" lon="5.94936">
        <ele>534</ele>
        <time>2024-07-01T17:10:56Z</time>
      </trkpt>
      <trkpt lat="43.71386" lon="5.94913">
        <ele>535</ele>
        <time>2024-07-01T17:11:03Z</time>
      </trkpt>
      <trkpt lat="43.7137" lon="5.94909">
        <ele>535</ele>
        <time>2024-07-01T17:11:07Z</time>
      </trkpt>
      <trkpt lat="43.71344" lon="5.94917">
        <ele>535</ele>
        <time>2024-07-01T17:11:13Z</time>
      </trkpt>
      <trkpt lat="43.71338" lon="5.94926">
        <ele>534</ele>
        <time>2024-07-01T17:11:15Z</time>
      </trkpt>
      <trkpt lat="43.71329" lon="5.94938">
        <ele>534</ele>
        <time>2024-07-01T17:11:18Z</time>
      </trkpt>
      <trkpt lat="43.71316" lon="5.94971">
        <ele>531</ele>
        <time>2024-07-01T17:11:25Z</time>
      </trkpt>
      <trkpt lat="43.71303" lon="5.94982">
        <ele>530</ele>
        <time>2024-07-01T17:11:28Z</time>
      </trkpt>
      <trkpt lat="43.71282" lon="5.95017">
        <ele>527</ele>
        <time>2024-07-01T17:11:36Z</time>
      </trkpt>
      <trkpt lat="43.71257" lon="5.95023">
        <ele>526</ele>
        <time>2024-07-01T17:11:42Z</time>
      </trkpt>
      <trkpt lat="43.71246" lon="5.95029">
        <ele>525</ele>
        <time>2024-07-01T17:11:44Z</time>
      </trkpt>
      <trkpt lat="43.71225" lon="5.9506">
        <ele>522</ele>
        <time>2024-07-01T17:11:52Z</time>
      </trkpt>
      <trkpt lat="43.71206" lon="5.95064">
        <ele>521</ele>
        <time>2024-07-01T17:11:56Z</time>
      </trkpt>
      <trkpt lat="43.71176" lon="5.95078">
        <ele>520</ele>
        <time>2024-07-01T17:12:04Z</time>
      </trkpt>
      <trkpt lat="43.71134" lon="5.95066">
        <ele>519</ele>
        <time>2024-07-01T17:12:14Z</time>
      </trkpt>
      <trkpt lat="43.71125" lon="5.95067">
        <ele>518</ele>
        <time>2024-07-01T17:12:16Z</time>
      </trkpt>
      <trkpt lat="43.7109" lon="5.95097">
        <ele>516</ele>
        <time>2024-07-01T17:12:25Z</time>
      </trkpt>
      <trkpt lat="43.71078" lon="5.95113">
        <ele>515</ele>
        <time>2024-07-01T17:12:29Z</time>
      </trkpt>
      <trkpt lat="43.71067" lon="5.95134">
        <ele>515</ele>
        <time>2024-07-01T17:12:34Z</time>
      </trkpt>
      <trkpt lat="43.71056" lon="5.95147">
        <ele>514</ele>
        <time>2024-07-01T17:12:37Z</time>
      </trkpt>
      <trkpt lat="43.71035" lon="5.95182">
        <ele>512</ele>
        <time>2024-07-01T17:12:45Z</time>
      </trkpt>
      <trkpt lat="43.71028" lon="5.95197">
        <ele>511</ele>
        <time>2024-07-01T17:12:48Z</time>
      </trkpt>
      <trkpt lat="43.71024" lon="5.95213">
        <ele>510</ele>
        <time>2024-07-01T17:12:50Z</time>
      </trkpt>
      <trkpt lat="43.71019" lon="5.95221">
        <ele>509</ele>
        <time>2024-07-01T17:12:52Z</time>
      </trkpt>
      <trkpt lat="43.71002" lon="5.95237">
        <ele>508</ele>
        <time>2024-07-01T17:12:57Z</time>
      </trkpt>
      <trkpt lat="43.70983" lon="5.95247">
        <ele>507</ele>
        <time>2024-07-01T17:13:02Z</time>
      </trkpt>
      <trkpt lat="43.70975" lon="5.95247">
        <ele>507</ele>
        <time>2024-07-01T17:13:04Z</time>
      </trkpt>
      <trkpt lat="43.70972" lon="5.95253">
        <ele>507</ele>
        <time>2024-07-01T17:13:05Z</time>
      </trkpt>
      <trkpt lat="43.70965" lon="5.95274">
        <ele>507</ele>
        <time>2024-07-01T17:13:09Z</time>
      </trkpt>
      <trkpt lat="43.7096" lon="5.9528">
        <ele>507</ele>
        <time>2024-07-01T17:13:10Z</time>
      </trkpt>
      <trkpt lat="43.70951" lon="5.95279">
        <ele>507</ele>
        <time>2024-07-01T17:13:12Z</time>
      </trkpt>
      <trkpt lat="43.70922" lon="5.9527">
        <ele>508</ele>
        <time>2024-07-01T17:13:19Z</time>
      </trkpt>
      <trkpt lat="43.70872" lon="5.95245">
        <ele>510</ele>
        <time>2024-07-01T17:13:32Z</time>
      </trkpt>
      <trkpt lat="43.70855" lon="5.95247">
        <ele>511</ele>
        <time>2024-07-01T17:13:36Z</time>
      </trkpt>
      <trkpt lat="43.70837" lon="5.95233">
        <ele>512</ele>
        <time>2024-07-01T17:13:41Z</time>
      </trkpt>
      <trkpt lat="43.7082" lon="5.95225">
        <ele>512</ele>
        <time>2024-07-01T17:13:45Z</time>
      </trkpt>
      <trkpt lat="43.70813" lon="5.95226">
        <ele>512</ele>
        <time>2024-07-01T17:13:46Z</time>
      </trkpt>
      <trkpt lat="43.70798" lon="5.95235">
        <ele>512</ele>
        <time>2024-07-01T17:13:50Z</time>
      </trkpt>
      <trkpt lat="43.70788" lon="5.95237">
        <ele>512</ele>
        <time>2024-07-01T17:13:53Z</time>
      </trkpt>
      <trkpt lat="43.70781" lon="5.95227">
        <ele>512</ele>
        <time>2024-07-01T17:13:55Z</time>
      </trkpt>
      <trkpt lat="43.70777" lon="5.95225">
        <ele>512</ele>
        <time>2024-07-01T17:13:56Z</time>
      </trkpt>
      <trkpt lat="43.7077" lon="5.95225">
        <ele>512</ele>
        <time>2024-07-01T17:13:58Z</time>
      </trkpt>
      <trkpt lat="43.70741" lon="5.95234">
        <ele>512</ele>
        <time>2024-07-01T17:14:05Z</time>
      </trkpt>
      <trkpt lat="43.70708" lon="5.95231">
        <ele>512</ele>
        <time>2024-07-01T17:14:12Z</time>
      </trkpt>
      <trkpt lat="43.7058" lon="5.95244">
        <ele>514</ele>
        <time>2024-07-01T17:14:42Z</time>
      </trkpt>
      <trkpt lat="43.70555" lon="5.95252">
        <ele>513</ele>
        <time>2024-07-01T17:14:48Z</time>
      </trkpt>
      <trkpt lat="43.7053" lon="5.95268">
        <ele>513</ele>
        <time>2024-07-01T17:14:55Z</time>
      </trkpt>
      <trkpt lat="43.70506" lon="5.95277">
        <ele>513</ele>
        <time>2024-07-01T17:15:01Z</time>
      </trkpt>
      <trkpt lat="43.70487" lon="5.95274">
        <ele>513</ele>
        <time>2024-07-01T17:15:05Z</time>
      </trkpt>
      <trkpt lat="43.7046" lon="5.95275">
        <ele>513</ele>
        <time>2024-07-01T17:15:11Z</time>
      </trkpt>
      <trkpt lat="43.70448" lon="5.9528">
        <ele>513</ele>
        <time>2024-07-01T17:15:14Z</time>
      </trkpt>
      <trkpt lat="43.70432" lon="5.95281">
        <ele>513</ele>
        <time>2024-07-01T17:15:18Z</time>
      </trkpt>
      <trkpt lat="43.70422" lon="5.95279">
        <ele>513</ele>
        <time>2024-07-01T17:15:20Z</time>
      </trkpt>
      <trkpt lat="43.70424" lon="5.95327">
        <ele>514</ele>
        <time>2024-07-01T17:15:28Z</time>
      </trkpt>
      <trkpt lat="43.7035" lon="5.95446">
        <ele>516</ele>
        <time>2024-07-01T17:15:55Z</time>
      </trkpt>
      <trkpt lat="43.70344" lon="5.95459">
        <ele>517</ele>
        <time>2024-07-01T17:15:58Z</time>
      </trkpt>
      <trkpt lat="43.70287" lon="5.95581">
        <ele>518</ele>
        <time>2024-07-01T17:16:22Z</time>
      </trkpt>
      <trkpt lat="43.70187" lon="5.95817">
        <ele>516</ele>
        <time>2024-07-01T17:17:08Z</time>
      </trkpt>
      <trkpt lat="43.70151" lon="5.95897">
        <ele>517</ele>
        <time>2024-07-01T17:17:24Z</time>
      </trkpt>
      <trkpt lat="43.70157" lon="5.95902">
        <ele>517</ele>
        <time>2024-07-01T17:17:26Z</time>
      </trkpt>
      <trkpt lat="43.70161" lon="5.95915">
        <ele>516</ele>
        <time>2024-07-01T17:17:28Z</time>
      </trkpt>
      <trkpt lat="43.70195" lon="5.95938">
        <ele>515</ele>
        <time>2024-07-01T17:17:37Z</time>
      </trkpt>
      <trkpt lat="43.70204" lon="5.95938">
        <ele>515</ele>
        <time>2024-07-01T17:17:39Z</time>
      </trkpt>
      <trkpt lat="43.70219" lon="5.95952">
        <ele>515</ele>
        <time>2024-07-01T17:17:43Z</time>
      </trkpt>
      <trkpt lat="43.70223" lon="5.95981">
        <ele>515</ele>
        <time>2024-07-01T17:17:48Z</time>
      </trkpt>
      <trkpt lat="43.70231" lon="5.96002">
        <ele>515</ele>
        <time>2024-07-01T17:17:52Z</time>
      </trkpt>
      <trkpt lat="43.70257" lon="5.96031">
        <ele>515</ele>
        <time>2024-07-01T17:18:00Z</time>
      </trkpt>
      <trkpt lat="43.70257" lon="5.9604">
        <ele>515</ele>
        <time>2024-07-01T17:18:02Z</time>
      </trkpt>
      <trkpt lat="43.70246" lon="5.96062">
        <ele>515</ele>
        <time>2024-07-01T17:18:06Z</time>
      </trkpt>
      <trkpt lat="43.70246" lon="5.96076">
        <ele>515</ele>
        <time>2024-07-01T17:18:09Z</time>
      </trkpt>
      <trkpt lat="43.70262" lon="5.96092">
        <ele>515</ele>
        <time>2024-07-01T17:18:13Z</time>
      </trkpt>
      <trkpt lat="43.70254" lon="5.96127">
        <ele>514</ele>
        <time>2024-07-01T17:18:19Z</time>
      </trkpt>
      <trkpt lat="43.70243" lon="5.9614">
        <ele>515</ele>
        <time>2024-07-01T17:18:23Z</time>
      </trkpt>
      <trkpt lat="43.70229" lon="5.96174">
        <ele>515</ele>
        <time>2024-07-01T17:18:29Z</time>
      </trkpt>
      <trkpt lat="43.70227" lon="5.96209">
        <ele>515</ele>
        <time>2024-07-01T17:18:35Z</time>
      </trkpt>
      <trkpt lat="43.7023" lon="5.9623">
        <ele>515</ele>
        <time>2024-07-01T17:18:39Z</time>
      </trkpt>
      <trkpt lat="43.70228" lon="5.96237">
        <ele>515</ele>
        <time>2024-07-01T17:18:40Z</time>
      </trkpt>
      <trkpt lat="43.70218" lon="5.96254">
        <ele>516</ele>
        <time>2024-07-01T17:18:44Z</time>
      </trkpt>
      <trkpt lat="43.70216" lon="5.96307">
        <ele>515</ele>
        <time>2024-07-01T17:18:53Z</time>
      </trkpt>
      <trkpt lat="43.70211" lon="5.96333">
        <ele>515</ele>
        <time>2024-07-01T17:18:57Z</time>
      </trkpt>
      <trkpt lat="43.70214" lon="5.96413">
        <ele>512</ele>
        <time>2024-07-01T17:19:11Z</time>
      </trkpt>
      <trkpt lat="43.70211" lon="5.96429">
        <ele>512</ele>
        <time>2024-07-01T17:19:14Z</time>
      </trkpt>
      <trkpt lat="43.70172" lon="5.96438">
        <ele>513</ele>
        <time>2024-07-01T17:19:23Z</time>
      </trkpt>
      <trkpt lat="43.70162" lon="5.96442">
        <ele>514</ele>
        <time>2024-07-01T17:19:25Z</time>
      </trkpt>
      <trkpt lat="43.7013" lon="5.96478">
        <ele>513</ele>
        <time>2024-07-01T17:19:35Z</time>
      </trkpt>
      <trkpt lat="43.70106" lon="5.9651">
        <ele>514</ele>
        <time>2024-07-01T17:19:43Z</time>
      </trkpt>
      <trkpt lat="43.70091" lon="5.96521">
        <ele>514</ele>
        <time>2024-07-01T17:19:47Z</time>
      </trkpt>
      <trkpt lat="43.70094" lon="5.96547">
        <ele>515</ele>
        <time>2024-07-01T17:19:51Z</time>
      </trkpt>
      <trkpt lat="43.70103" lon="5.96575">
        <ele>515</ele>
        <time>2024-07-01T17:19:56Z</time>
      </trkpt>
      <trkpt lat="43.70103" lon="5.96583">
        <ele>516</ele>
        <time>2024-07-01T17:19:58Z</time>
      </trkpt>
      <trkpt lat="43.7009" lon="5.96678">
        <ele>517</ele>
        <time>2024-07-01T17:20:14Z</time>
      </trkpt>
      <trkpt lat="43.70081" lon="5.96721">
        <ele>518</ele>
        <time>2024-07-01T17:20:22Z</time>
      </trkpt>
      <trkpt lat="43.70072" lon="5.96777">
        <ele>519</ele>
        <time>2024-07-01T17:20:31Z</time>
      </trkpt>
      <trkpt lat="43.70061" lon="5.96812">
        <ele>518</ele>
        <time>2024-07-01T17:20:38Z</time>
      </trkpt>
      <trkpt lat="43.70044" lon="5.96845">
        <ele>519</ele>
        <time>2024-07-01T17:20:45Z</time>
      </trkpt>
      <trkpt lat="43.70031" lon="5.96866">
        <ele>519</ele>
        <time>2024-07-01T17:20:49Z</time>
      </trkpt>
      <trkpt lat="43.69962" lon="5.96949">
        <ele>520</ele>
        <time>2024-07-01T17:21:11Z</time>
      </trkpt>
      <trkpt lat="43.69922" lon="5.97019">
        <ele>522</ele>
        <time>2024-07-01T17:21:26Z</time>
      </trkpt>
      <trkpt lat="43.69899" lon="5.97053">
        <ele>523</ele>
        <time>2024-07-01T17:21:33Z</time>
      </trkpt>
      <trkpt lat="43.69852" lon="5.97135">
        <ele>524</ele>
        <time>2024-07-01T17:21:51Z</time>
      </trkpt>
      <trkpt lat="43.69789" lon="5.97261">
        <ele>525</ele>
        <time>2024-07-01T17:22:17Z</time>
      </trkpt>
      <trkpt lat="43.69772" lon="5.97309">
        <ele>526</ele>
        <time>2024-07-01T17:22:26Z</time>
      </trkpt>
      <trkpt lat="43.69757" lon="5.9736">
        <ele>528</ele>
        <time>2024-07-01T17:22:35Z</time>
      </trkpt>
      <trkpt lat="43.69742" lon="5.97359">
        <ele>528</ele>
        <time>2024-07-01T17:22:39Z</time>
      </trkpt>
      <trkpt lat="43.69757" lon="5.9736">
        <ele>528</ele>
        <time>2024-07-01T17:22:42Z</time>
      </trkpt>
      <trkpt lat="43.69761" lon="5.97363">
        <ele>528</ele>
        <time>2024-07-01T17:22:43Z</time>
      </trkpt>
      <trkpt lat="43.69764" lon="5.97379">
        <ele>528</ele>
        <time>2024-07-01T17:22:46Z</time>
      </trkpt>
      <trkpt lat="43.69767" lon="5.97405">
        <ele>529</ele>
        <time>2024-07-01T17:22:51Z</time>
      </trkpt>
      <trkpt lat="43.69772" lon="5.97416">
        <ele>529</ele>
        <time>2024-07-01T17:22:53Z</time>
      </trkpt>
      <trkpt lat="43.69773" lon="5.97426">
        <ele>530</ele>
        <time>2024-07-01T17:22:55Z</time>
      </trkpt>
      <trkpt lat="43.69771" lon="5.97438">
        <ele>530</ele>
        <time>2024-07-01T17:22:57Z</time>
      </trkpt>
      <trkpt lat="43.69767" lon="5.97445">
        <ele>530</ele>
        <time>2024-07-01T17:22:58Z</time>
      </trkpt>
      <trkpt lat="43.6976" lon="5.97452">
        <ele>530</ele>
        <time>2024-07-01T17:23:00Z</time>
      </trkpt>
      <trkpt lat="43.69789" lon="5.97484">
        <ele>532</ele>
        <time>2024-07-01T17:23:09Z</time>
      </trkpt>
      <trkpt lat="43.69825" lon="5.97516">
        <ele>534</ele>
        <time>2024-07-01T17:23:19Z</time>
      </trkpt>
      <trkpt lat="43.69826" lon="5.97525">
        <ele>534</ele>
        <time>2024-07-01T17:23:20Z</time>
      </trkpt>
      <trkpt lat="43.69834" lon="5.97533">
        <ele>535</ele>
        <time>2024-07-01T17:23:23Z</time>
      </trkpt>
      <trkpt lat="43.69885" lon="5.9759">
        <ele>535</ele>
        <time>2024-07-01T17:23:38Z</time>
      </trkpt>
      <trkpt lat="43.69903" lon="5.97601">
        <ele>534</ele>
        <time>2024-07-01T17:23:43Z</time>
      </trkpt>
      <trkpt lat="43.69914" lon="5.97611">
        <ele>534</ele>
        <time>2024-07-01T17:23:46Z</time>
      </trkpt>
      <trkpt lat="43.69925" lon="5.97626">
        <ele>534</ele>
        <time>2024-07-01T17:23:49Z</time>
      </trkpt>
      <trkpt lat="43.69941" lon="5.97648">
        <ele>535</ele>
        <time>2024-07-01T17:23:54Z</time>
      </trkpt>
      <trkpt lat="43.69942" lon="5.97655">
        <ele>535</ele>
        <time>2024-07-01T17:23:56Z</time>
      </trkpt>
      <trkpt lat="43.69939" lon="5.97681">
        <ele>536</ele>
        <time>2024-07-01T17:24:00Z</time>
      </trkpt>
      <trkpt lat="43.69939" lon="5.9769">
        <ele>536</ele>
        <time>2024-07-01T17:24:02Z</time>
      </trkpt>
      <trkpt lat="43.69954" lon="5.97717">
        <ele>538</ele>
        <time>2024-07-01T17:24:07Z</time>
      </trkpt>
      <trkpt lat="43.69991" lon="5.97754">
        <ele>541</ele>
        <time>2024-07-01T17:24:18Z</time>
      </trkpt>
      <trkpt lat="43.70031" lon="5.97756">
        <ele>543</ele>
        <time>2024-07-01T17:24:27Z</time>
      </trkpt>
      <trkpt lat="43.70057" lon="5.97789">
        <ele>546</ele>
        <time>2024-07-01T17:24:36Z</time>
      </trkpt>
      <trkpt lat="43.70076" lon="5.97803">
        <ele>548</ele>
        <time>2024-07-01T17:24:41Z</time>
      </trkpt>
      <trkpt lat="43.70079" lon="5.97832">
        <ele>550</ele>
        <time>2024-07-01T17:24:46Z</time>
      </trkpt>
      <trkpt lat="43.70069" lon="5.97883">
        <ele>549</ele>
        <time>2024-07-01T17:24:55Z</time>
      </trkpt>
      <trkpt lat="43.70049" lon="5.97926">
        <ele>548</ele>
        <time>2024-07-01T17:25:03Z</time>
      </trkpt>
      <trkpt lat="43.7002" lon="5.97958">
        <ele>547</ele>
        <time>2024-07-01T17:25:12Z</time>
      </trkpt>
      <trkpt lat="43.69962" lon="5.98072">
        <ele>550</ele>
        <time>2024-07-01T17:25:35Z</time>
      </trkpt>
      <trkpt lat="43.69942" lon="5.98133">
        <ele>552</ele>
        <time>2024-07-01T17:25:47Z</time>
      </trkpt>
      <trkpt lat="43.69938" lon="5.98191">
        <ele>554</ele>
        <time>2024-07-01T17:25:57Z</time>
      </trkpt>
      <trkpt lat="43.69929" lon="5.98222">
        <ele>555</ele>
        <time>2024-07-01T17:26:02Z</time>
      </trkpt>
      <trkpt lat="43.69923" lon="5.98243">
        <ele>556</ele>
        <time>2024-07-01T17:26:06Z</time>
      </trkpt>
      <trkpt lat="43.69908" lon="5.98274">
        <ele>556</ele>
        <time>2024-07-01T17:26:12Z</time>
      </trkpt>
      <trkpt lat="43.69901" lon="5.98313">
        <ele>557</ele>
        <time>2024-07-01T17:26:19Z</time>
      </trkpt>
      <trkpt lat="43.69875" lon="5.98357">
        <ele>556</ele>
        <time>2024-07-01T17:26:29Z</time>
      </trkpt>
      <trkpt lat="43.69856" lon="5.984">
        <ele>555</ele>
        <time>2024-07-01T17:26:37Z</time>
      </trkpt>
      <trkpt lat="43.69806" lon="5.98564">
        <ele>557</ele>
        <time>2024-07-01T17:27:07Z</time>
      </trkpt>
      <trkpt lat="43.69777" lon="5.98637">
        <ele>555</ele>
        <time>2024-07-01T17:27:21Z</time>
      </trkpt>
      <trkpt lat="43.69746" lon="5.98701">
        <ele>554</ele>
        <time>2024-07-01T17:27:34Z</time>
      </trkpt>
      <trkpt lat="43.69723" lon="5.98761">
        <ele>554</ele>
        <time>2024-07-01T17:27:46Z</time>
      </trkpt>
      <trkpt lat="43.69699" lon="5.98778">
        <ele>552</ele>
        <time>2024-07-01T17:27:52Z</time>
      </trkpt>
      <trkpt lat="43.69662" lon="5.98789">
        <ele>550</ele>
        <time>2024-07-01T17:28:01Z</time>
      </trkpt>
      <trkpt lat="43.69633" lon="5.98809">
        <ele>549</ele>
        <time>2024-07-01T17:28:08Z</time>
      </trkpt>
      <trkpt lat="43.69604" lon="5.98836">
        <ele>548</ele>
        <time>2024-07-01T17:28:17Z</time>
      </trkpt>
      <trkpt lat="43.69641" lon="5.98885">
        <ele>548</ele>
        <time>2024-07-01T17:28:29Z</time>
      </trkpt>
      <trkpt lat="43.69685" lon="5.98966">
        <ele>548</ele>
        <time>2024-07-01T17:28:46Z</time>
      </trkpt>
      <trkpt lat="43.69688" lon="5.98984">
        <ele>547</ele>
        <time>2024-07-01T17:28:49Z</time>
      </trkpt>
      <trkpt lat="43.69729" lon="5.99066">
        <ele>550</ele>
        <time>2024-07-01T17:29:06Z</time>
      </trkpt>
      <trkpt lat="43.69757" lon="5.99141">
        <ele>551</ele>
        <time>2024-07-01T17:29:20Z</time>
      </trkpt>
      <trkpt lat="43.69763" lon="5.99156">
        <ele>552</ele>
        <time>2024-07-01T17:29:23Z</time>
      </trkpt>
      <trkpt lat="43.69799" lon="5.99195">
        <ele>555</ele>
        <time>2024-07-01T17:29:33Z</time>
      </trkpt>
      <trkpt lat="43.69804" lon="5.99207">
        <ele>555</ele>
        <time>2024-07-01T17:29:36Z</time>
      </trkpt>
      <trkpt lat="43.69805" lon="5.99241">
        <ele>556</ele>
        <time>2024-07-01T17:29:42Z</time>
      </trkpt>
      <trkpt lat="43.69811" lon="5.99309">
        <ele>556</ele>
        <time>2024-07-01T17:29:53Z</time>
      </trkpt>
      <trkpt lat="43.69822" lon="5.99357">
        <ele>555</ele>
        <time>2024-07-01T17:30:02Z</time>
      </trkpt>
      <trkpt lat="43.69817" lon="5.99402">
        <ele>554</ele>
        <time>2024-07-01T17:30:09Z</time>
      </trkpt>
      <trkpt lat="43.69807" lon="5.99429">
        <ele>554</ele>
        <time>2024-07-01T17:30:14Z</time>
      </trkpt>
      <trkpt lat="43.69792" lon="5.99447">
        <ele>554</ele>
        <time>2024-07-01T17:30:19Z</time>
      </trkpt>
      <trkpt lat="43.69778" lon="5.99455">
        <ele>555</ele>
        <time>2024-07-01T17:30:23Z</time>
      </trkpt>
      <trkpt lat="43.69759" lon="5.99457">
        <ele>556</ele>
        <time>2024-07-01T17:30:27Z</time>
      </trkpt>
      <trkpt lat="43.69731" lon="5.99455">
        <ele>556</ele>
        <time>2024-07-01T17:30:34Z</time>
      </trkpt>
      <trkpt lat="43.69698" lon="5.99489">
        <ele>556</ele>
        <time>2024-07-01T17:30:43Z</time>
      </trkpt>
      <trkpt lat="43.69657" lon="5.99515">
        <ele>555</ele>
        <time>2024-07-01T17:30:54Z</time>
      </trkpt>
      <trkpt lat="43.69637" lon="5.99533">
        <ele>554</ele>
        <time>2024-07-01T17:30:59Z</time>
      </trkpt>
      <trkpt lat="43.69553" lon="5.99628">
        <ele>550</ele>
        <time>2024-07-01T17:31:25Z</time>
      </trkpt>
      <trkpt lat="43.69543" lon="5.99642">
        <ele>550</ele>
        <time>2024-07-01T17:31:28Z</time>
      </trkpt>
      <trkpt lat="43.69537" lon="5.99658">
        <ele>550</ele>
        <time>2024-07-01T17:31:31Z</time>
      </trkpt>
      <trkpt lat="43.69535" lon="5.99678">
        <ele>550</ele>
        <time>2024-07-01T17:31:34Z</time>
      </trkpt>
      <trkpt lat="43.69527" lon="5.99699">
        <ele>550</ele>
        <time>2024-07-01T17:31:38Z</time>
      </trkpt>
      <trkpt lat="43.69518" lon="5.99714">
        <ele>549</ele>
        <time>2024-07-01T17:31:42Z</time>
      </trkpt>
      <trkpt lat="43.69509" lon="5.99722">
        <ele>549</ele>
        <time>2024-07-01T17:31:44Z</time>
      </trkpt>
      <trkpt lat="43.69498" lon="5.99735">
        <ele>548</ele>
        <time>2024-07-01T17:31:48Z</time>
      </trkpt>
      <trkpt lat="43.69495" lon="5.9975">
        <ele>548</ele>
        <time>2024-07-01T17:31:50Z</time>
      </trkpt>
      <trkpt lat="43.69498" lon="5.99769">
        <ele>547</ele>
        <time>2024-07-01T17:31:54Z</time>
      </trkpt>
      <trkpt lat="43.69496" lon="5.99789">
        <ele>547</ele>
        <time>2024-07-01T17:31:57Z</time>
      </trkpt>
      <trkpt lat="43.69497" lon="5.99813">
        <ele>546</ele>
        <time>2024-07-01T17:32:01Z</time>
      </trkpt>
      <trkpt lat="43.69487" lon="5.99857">
        <ele>545</ele>
        <time>2024-07-01T17:32:09Z</time>
      </trkpt>
      <trkpt lat="43.69483" lon="5.99887">
        <ele>544</ele>
        <time>2024-07-01T17:32:14Z</time>
      </trkpt>
      <trkpt lat="43.69475" lon="5.99912">
        <ele>544</ele>
        <time>2024-07-01T17:32:19Z</time>
      </trkpt>
      <trkpt lat="43.69462" lon="5.99934">
        <ele>543</ele>
        <time>2024-07-01T17:32:23Z</time>
      </trkpt>
      <trkpt lat="43.69449" lon="5.99947">
        <ele>542</ele>
        <time>2024-07-01T17:32:27Z</time>
      </trkpt>
      <trkpt lat="43.69376" lon="6.00004">
        <ele>539</ele>
        <time>2024-07-01T17:32:47Z</time>
      </trkpt>
      <trkpt lat="43.69364" lon="6.0002">
        <ele>539</ele>
        <time>2024-07-01T17:32:51Z</time>
      </trkpt>
      <trkpt lat="43.69343" lon="6.00067">
        <ele>538</ele>
        <time>2024-07-01T17:33:00Z</time>
      </trkpt>
      <trkpt lat="43.69336" lon="6.00089">
        <ele>538</ele>
        <time>2024-07-01T17:33:04Z</time>
      </trkpt>
      <trkpt lat="43.69313" lon="6.00131">
        <ele>537</ele>
        <time>2024-07-01T17:33:13Z</time>
      </trkpt>
      <trkpt lat="43.69305" lon="6.00153">
        <ele>536</ele>
        <time>2024-07-01T17:33:17Z</time>
      </trkpt>
      <trkpt lat="43.69297" lon="6.00198">
        <ele>535</ele>
        <time>2024-07-01T17:33:25Z</time>
      </trkpt>
      <trkpt lat="43.69279" lon="6.00243">
        <ele>534</ele>
        <time>2024-07-01T17:33:34Z</time>
      </trkpt>
      <trkpt lat="43.69265" lon="6.00292">
        <ele>533</ele>
        <time>2024-07-01T17:33:42Z</time>
      </trkpt>
      <trkpt lat="43.69236" lon="6.00347">
        <ele>531</ele>
        <time>2024-07-01T17:33:54Z</time>
      </trkpt>
      <trkpt lat="43.69198" lon="6.00428">
        <ele>529</ele>
        <time>2024-07-01T17:34:10Z</time>
      </trkpt>
      <trkpt lat="43.69186" lon="6.00441">
        <ele>528</ele>
        <time>2024-07-01T17:34:14Z</time>
      </trkpt>
      <trkpt lat="43.69138" lon="6.00478">
        <ele>526</ele>
        <time>2024-07-01T17:34:27Z</time>
      </trkpt>
      <trkpt lat="43.6911" lon="6.00491">
        <ele>525</ele>
        <time>2024-07-01T17:34:33Z</time>
      </trkpt>
      <trkpt lat="43.69104" lon="6.00504">
        <ele>524</ele>
        <time>2024-07-01T17:34:36Z</time>
      </trkpt>
      <trkpt lat="43.69061" lon="6.00559">
        <ele>523</ele>
        <time>2024-07-01T17:34:50Z</time>
      </trkpt>
      <trkpt lat="43.69052" lon="6.00581">
        <ele>523</ele>
        <time>2024-07-01T17:34:54Z</time>
      </trkpt>
      <trkpt lat="43.69043" lon="6.00613">
        <ele>522</ele>
        <time>2024-07-01T17:35:00Z</time>
      </trkpt>
      <trkpt lat="43.69035" lon="6.00658">
        <ele>520</ele>
        <time>2024-07-01T17:35:08Z</time>
      </trkpt>
      <trkpt lat="43.69035" lon="6.00667">
        <ele>520</ele>
        <time>2024-07-01T17:35:09Z</time>
      </trkpt>
      <trkpt lat="43.69037" lon="6.00676">
        <ele>520</ele>
        <time>2024-07-01T17:35:11Z</time>
      </trkpt>
      <trkpt lat="43.69044" lon="6.00693">
        <ele>519</ele>
        <time>2024-07-01T17:35:14Z</time>
      </trkpt>
      <trkpt lat="43.69076" lon="6.00754">
        <ele>515</ele>
        <time>2024-07-01T17:35:27Z</time>
      </trkpt>
      <trkpt lat="43.69081" lon="6.0077">
        <ele>515</ele>
        <time>2024-07-01T17:35:30Z</time>
      </trkpt>
      <trkpt lat="43.69082" lon="6.00784">
        <ele>514</ele>
        <time>2024-07-01T17:35:32Z</time>
      </trkpt>
      <trkpt lat="43.69078" lon="6.00817">
        <ele>514</ele>
        <time>2024-07-01T17:35:38Z</time>
      </trkpt>
      <trkpt lat="43.69062" lon="6.00898">
        <ele>509</ele>
        <time>2024-07-01T17:35:52Z</time>
      </trkpt>
      <trkpt lat="43.69061" lon="6.00914">
        <ele>508</ele>
        <time>2024-07-01T17:35:55Z</time>
      </trkpt>
      <trkpt lat="43.69064" lon="6.00927">
        <ele>507</ele>
        <time>2024-07-01T17:35:57Z</time>
      </trkpt>
      <trkpt lat="43.69104" lon="6.0099">
        <ele>502</ele>
        <time>2024-07-01T17:36:11Z</time>
      </trkpt>
      <trkpt lat="43.69111" lon="6.00995">
        <ele>502</ele>
        <time>2024-07-01T17:36:13Z</time>
      </trkpt>
      <trkpt lat="43.69121" lon="6.00995">
        <ele>502</ele>
        <time>2024-07-01T17:36:15Z</time>
      </trkpt>
      <trkpt lat="43.69127" lon="6.00987">
        <ele>502</ele>
        <time>2024-07-01T17:36:17Z</time>
      </trkpt>
      <trkpt lat="43.69132" lon="6.00969">
        <ele>502</ele>
        <time>2024-07-01T17:36:21Z</time>
      </trkpt>
      <trkpt lat="43.69143" lon="6.00958">
        <ele>502</ele>
        <time>2024-07-01T17:36:24Z</time>
      </trkpt>
      <trkpt lat="43.69197" lon="6.00927">
        <ele>501</ele>
        <time>2024-07-01T17:36:37Z</time>
      </trkpt>
      <trkpt lat="43.69242" lon="6.0091">
        <ele>501</ele>
        <time>2024-07-01T17:36:48Z</time>
      </trkpt>
      <trkpt lat="43.69253" lon="6.00909">
        <ele>501</ele>
        <time>2024-07-01T17:36:51Z</time>
      </trkpt>
      <trkpt lat="43.69274" lon="6.00916">
        <ele>500</ele>
        <time>2024-07-01T17:36:56Z</time>
      </trkpt>
      <trkpt lat="43.69304" lon="6.00928">
        <ele>501</ele>
        <time>2024-07-01T17:37:03Z</time>
      </trkpt>
      <trkpt lat="43.69319" lon="6.00944">
        <ele>501</ele>
        <time>2024-07-01T17:37:08Z</time>
      </trkpt>
      <trkpt lat="43.69363" lon="6.0099">
        <ele>501</ele>
        <time>2024-07-01T17:37:20Z</time>
      </trkpt>
      <trkpt lat="43.69374" lon="6.01009">
        <ele>501</ele>
        <time>2024-07-01T17:37:25Z</time>
      </trkpt>
      <trkpt lat="43.69377" lon="6.01021">
        <ele>501</ele>
        <time>2024-07-01T17:37:27Z</time>
      </trkpt>
      <trkpt lat="43.69375" lon="6.01036">
        <ele>501</ele>
        <time>2024-07-01T17:37:29Z</time>
      </trkpt>
      <trkpt lat="43.69343" lon="6.01084">
        <ele>498</ele>
        <time>2024-07-01T17:37:40Z</time>
      </trkpt>
      <trkpt lat="43.69316" lon="6.01132">
        <ele>499</ele>
        <time>2024-07-01T17:37:51Z</time>
      </trkpt>
      <trkpt lat="43.69307" lon="6.01157">
        <ele>499</ele>
        <time>2024-07-01T17:37:55Z</time>
      </trkpt>
      <trkpt lat="43.69303" lon="6.01181">
        <ele>499</ele>
        <time>2024-07-01T17:37:59Z</time>
      </trkpt>
      <trkpt lat="43.69297" lon="6.01202">
        <ele>500</ele>
        <time>2024-07-01T17:38:03Z</time>
      </trkpt>
      <trkpt lat="43.693" lon="6.01206">
        <ele>500</ele>
        <time>2024-07-01T17:38:04Z</time>
      </trkpt>
      <trkpt lat="43.69302" lon="6.01219">
        <ele>500</ele>
        <time>2024-07-01T17:38:06Z</time>
      </trkpt>
      <trkpt lat="43.69307" lon="6.01224">
        <ele>500</ele>
        <time>2024-07-01T17:38:08Z</time>
      </trkpt>
      <trkpt lat="43.69313" lon="6.01226">
        <ele>499</ele>
        <time>2024-07-01T17:38:09Z</time>
      </trkpt>
      <trkpt lat="43.69335" lon="6.01213">
        <ele>498</ele>
        <time>2024-07-01T17:38:15Z</time>
      </trkpt>
      <trkpt lat="43.69355" lon="6.01198">
        <ele>498</ele>
        <time>2024-07-01T17:38:20Z</time>
      </trkpt>
      <trkpt lat="43.69436" lon="6.01165">
        <ele>497</ele>
        <time>2024-07-01T17:38:40Z</time>
      </trkpt>
      <trkpt lat="43.6945" lon="6.01157">
        <ele>497</ele>
        <time>2024-07-01T17:38:44Z</time>
      </trkpt>
      <trkpt lat="43.69472" lon="6.01151">
        <ele>498</ele>
        <time>2024-07-01T17:38:49Z</time>
      </trkpt>
      <trkpt lat="43.6951" lon="6.01133">
        <ele>499</ele>
        <time>2024-07-01T17:38:58Z</time>
      </trkpt>
      <trkpt lat="43.69527" lon="6.01136">
        <ele>499</ele>
        <time>2024-07-01T17:39:02Z</time>
      </trkpt>
      <trkpt lat="43.6954" lon="6.01134">
        <ele>499</ele>
        <time>2024-07-01T17:39:05Z</time>
      </trkpt>
      <trkpt lat="43.69561" lon="6.0115">
        <ele>497</ele>
        <time>2024-07-01T17:39:11Z</time>
      </trkpt>
      <trkpt lat="43.69577" lon="6.01181">
        <ele>493</ele>
        <time>2024-07-01T17:39:17Z</time>
      </trkpt>
      <trkpt lat="43.69592" lon="6.01235">
        <ele>491</ele>
        <time>2024-07-01T17:39:27Z</time>
      </trkpt>
      <trkpt lat="43.69606" lon="6.01263">
        <ele>492</ele>
        <time>2024-07-01T17:39:33Z</time>
      </trkpt>
      <trkpt lat="43.6961" lon="6.01283">
        <ele>493</ele>
        <time>2024-07-01T17:39:36Z</time>
      </trkpt>
      <trkpt lat="43.69619" lon="6.01304">
        <ele>493</ele>
        <time>2024-07-01T17:39:40Z</time>
      </trkpt>
      <trkpt lat="43.69627" lon="6.01317">
        <ele>493</ele>
        <time>2024-07-01T17:39:43Z</time>
      </trkpt>
      <trkpt lat="43.69637" lon="6.01321">
        <ele>492</ele>
        <time>2024-07-01T17:39:46Z</time>
      </trkpt>
      <trkpt lat="43.69654" lon="6.01319">
        <ele>490</ele>
        <time>2024-07-01T17:39:50Z</time>
      </trkpt>
      <trkpt lat="43.69697" lon="6.01332">
        <ele>486</ele>
        <time>2024-07-01T17:40:00Z</time>
      </trkpt>
      <trkpt lat="43.69748" lon="6.01358">
        <ele>487</ele>
        <time>2024-07-01T17:40:13Z</time>
      </trkpt>
      <trkpt lat="43.6976" lon="6.01366">
        <ele>488</ele>
        <time>2024-07-01T17:40:16Z</time>
      </trkpt>
      <trkpt lat="43.69782" lon="6.01375">
        <ele>489</ele>
        <time>2024-07-01T17:40:21Z</time>
      </trkpt>
      <trkpt lat="43.69792" lon="6.01377">
        <ele>489</ele>
        <time>2024-07-01T17:40:23Z</time>
      </trkpt>
      <trkpt lat="43.69801" lon="6.01373">
        <ele>488</ele>
        <time>2024-07-01T17:40:26Z</time>
      </trkpt>
      <trkpt lat="43.69819" lon="6.01372">
        <ele>487</ele>
        <time>2024-07-01T17:40:30Z</time>
      </trkpt>
      <trkpt lat="43.69825" lon="6.01366">
        <ele>486</ele>
        <time>2024-07-01T17:40:32Z</time>
      </trkpt>
      <trkpt lat="43.6985" lon="6.01338">
        <ele>486</ele>
        <time>2024-07-01T17:40:39Z</time>
      </trkpt>
      <trkpt lat="43.69854" lon="6.01332">
        <ele>487</ele>
        <time>2024-07-01T17:40:40Z</time>
      </trkpt>
      <trkpt lat="43.69854" lon="6.01314">
        <ele>487</ele>
        <time>2024-07-01T17:40:44Z</time>
      </trkpt>
      <trkpt lat="43.69846" lon="6.01293">
        <ele>486</ele>
        <time>2024-07-01T17:40:48Z</time>
      </trkpt>
      <trkpt lat="43.69838" lon="6.01283">
        <ele>485</ele>
        <time>2024-07-01T17:40:50Z</time>
      </trkpt>
      <trkpt lat="43.69819" lon="6.0127">
        <ele>484</ele>
        <time>2024-07-01T17:40:55Z</time>
      </trkpt>
      <trkpt lat="43.69805" lon="6.01266">
        <ele>484</ele>
        <time>2024-07-01T17:40:58Z</time>
      </trkpt>
      <trkpt lat="43.69756" lon="6.01261">
        <ele>481</ele>
        <time>2024-07-01T17:41:10Z</time>
      </trkpt>
      <trkpt lat="43.69749" lon="6.01255">
        <ele>480</ele>
        <time>2024-07-01T17:41:12Z</time>
      </trkpt>
      <trkpt lat="43.69741" lon="6.01231">
        <ele>481</ele>
        <time>2024-07-01T17:41:16Z</time>
      </trkpt>
      <trkpt lat="43.69736" lon="6.01225">
        <ele>482</ele>
        <time>2024-07-01T17:41:18Z</time>
      </trkpt>
      <trkpt lat="43.69716" lon="6.01177">
        <ele>485</ele>
        <time>2024-07-01T17:41:27Z</time>
      </trkpt>
      <trkpt lat="43.69708" lon="6.01153">
        <ele>485</ele>
        <time>2024-07-01T17:41:32Z</time>
      </trkpt>
      <trkpt lat="43.69705" lon="6.01107">
        <ele>486</ele>
        <time>2024-07-01T17:41:39Z</time>
      </trkpt>
      <trkpt lat="43.6971" lon="6.01091">
        <ele>485</ele>
        <time>2024-07-01T17:41:42Z</time>
      </trkpt>
      <trkpt lat="43.69726" lon="6.01068">
        <ele>483</ele>
        <time>2024-07-01T17:41:48Z</time>
      </trkpt>
      <trkpt lat="43.69743" lon="6.01047">
        <ele>482</ele>
        <time>2024-07-01T17:41:53Z</time>
      </trkpt>
      <trkpt lat="43.69767" lon="6.01043">
        <ele>481</ele>
        <time>2024-07-01T17:41:59Z</time>
      </trkpt>
      <trkpt lat="43.69782" lon="6.0105">
        <ele>480</ele>
        <time>2024-07-01T17:42:02Z</time>
      </trkpt>
      <trkpt lat="43.6979" lon="6.01055">
        <ele>479</ele>
        <time>2024-07-01T17:42:04Z</time>
      </trkpt>
      <trkpt lat="43.69802" lon="6.01087">
        <ele>474</ele>
        <time>2024-07-01T17:42:10Z</time>
      </trkpt>
      <trkpt lat="43.69811" lon="6.01098">
        <ele>476</ele>
        <time>2024-07-01T17:42:13Z</time>
      </trkpt>
      <trkpt lat="43.69824" lon="6.01102">
        <ele>477</ele>
        <time>2024-07-01T17:42:16Z</time>
      </trkpt>
      <trkpt lat="43.69844" lon="6.011">
        <ele>477</ele>
        <time>2024-07-01T17:42:21Z</time>
      </trkpt>
      <trkpt lat="43.69867" lon="6.0109">
        <ele>476</ele>
        <time>2024-07-01T17:42:27Z</time>
      </trkpt>
      <trkpt lat="43.6988" lon="6.0109">
        <ele>476</ele>
        <time>2024-07-01T17:42:30Z</time>
      </trkpt>
      <trkpt lat="43.69898" lon="6.01084">
        <ele>476</ele>
        <time>2024-07-01T17:42:34Z</time>
      </trkpt>
      <trkpt lat="43.69937" lon="6.01097">
        <ele>476</ele>
        <time>2024-07-01T17:42:43Z</time>
      </trkpt>
      <trkpt lat="43.69976" lon="6.01126">
        <ele>472</ele>
        <time>2024-07-01T17:42:54Z</time>
      </trkpt>
      <trkpt lat="43.70011" lon="6.01171">
        <ele>466</ele>
        <time>2024-07-01T17:43:05Z</time>
      </trkpt>
      <trkpt lat="43.70039" lon="6.01204">
        <ele>469</ele>
        <time>2024-07-01T17:43:14Z</time>
      </trkpt>
      <trkpt lat="43.70036" lon="6.01208">
        <ele>470</ele>
        <time>2024-07-01T17:43:15Z</time>
      </trkpt>
      <trkpt lat="43.70036" lon="6.01213">
        <ele>471</ele>
        <time>2024-07-01T17:43:15Z</time>
      </trkpt>
      <trkpt lat="43.70064" lon="6.01242">
        <ele>471</ele>
        <time>2024-07-01T17:43:24Z</time>
      </trkpt>
      <trkpt lat="43.70094" lon="6.01242">
        <ele>466</ele>
        <time>2024-07-01T17:43:31Z</time>
      </trkpt>
      <trkpt lat="43.70114" lon="6.01239">
        <ele>465</ele>
        <time>2024-07-01T17:43:35Z</time>
      </trkpt>
      <trkpt lat="43.70132" lon="6.01232">
        <ele>464</ele>
        <time>2024-07-01T17:43:40Z</time>
      </trkpt>
      <trkpt lat="43.70142" lon="6.01211">
        <ele>463</ele>
        <time>2024-07-01T17:43:44Z</time>
      </trkpt>
      <trkpt lat="43.70155" lon="6.01202">
        <ele>462</ele>
        <time>2024-07-01T17:43:47Z</time>
      </trkpt>
      <trkpt lat="43.70161" lon="6.012">
        <ele>462</ele>
        <time>2024-07-01T17:43:49Z</time>
      </trkpt>
      <trkpt lat="43.70165" lon="6.01201">
        <ele>462</ele>
        <time>2024-07-01T17:43:50Z</time>
      </trkpt>
      <trkpt lat="43.70163" lon="6.01207">
        <ele>462</ele>
        <time>2024-07-01T17:43:51Z</time>
      </trkpt>
      <trkpt lat="43.70162" lon="6.01218">
        <ele>463</ele>
        <time>2024-07-01T17:43:53Z</time>
      </trkpt>
      <trkpt lat="43.70158" lon="6.01249">
        <ele>463</ele>
        <time>2024-07-01T17:43:58Z</time>
      </trkpt>
      <trkpt lat="43.70148" lon="6.01286">
        <ele>465</ele>
        <time>2024-07-01T17:44:05Z</time>
      </trkpt>
      <trkpt lat="43.70122" lon="6.0132">
        <ele>475</ele>
        <time>2024-07-01T17:44:13Z</time>
      </trkpt>
      <trkpt lat="43.70089" lon="6.01389">
        <ele>489</ele>
        <time>2024-07-01T17:44:27Z</time>
      </trkpt>
      <trkpt lat="43.7006" lon="6.01443">
        <ele>498</ele>
        <time>2024-07-01T17:44:38Z</time>
      </trkpt>
      <trkpt lat="43.70003" lon="6.01533">
        <ele>511</ele>
        <time>2024-07-01T17:44:58Z</time>
      </trkpt>
      <trkpt lat="43.69975" lon="6.01592">
        <ele>512</ele>
        <time>2024-07-01T17:45:10Z</time>
      </trkpt>
      <trkpt lat="43.69947" lon="6.01665">
        <ele>511</ele>
        <time>2024-07-01T17:45:24Z</time>
      </trkpt>
      <trkpt lat="43.69938" lon="6.01713">
        <ele>515</ele>
        <time>2024-07-01T17:45:33Z</time>
      </trkpt>
      <trkpt lat="43.69942" lon="6.01744">
        <ele>513</ele>
        <time>2024-07-01T17:45:38Z</time>
      </trkpt>
      <trkpt lat="43.69948" lon="6.01762">
        <ele>511</ele>
        <time>2024-07-01T17:45:41Z</time>
      </trkpt>
      <trkpt lat="43.69952" lon="6.01794">
        <ele>512</ele>
        <time>2024-07-01T17:45:47Z</time>
      </trkpt>
      <trkpt lat="43.69953" lon="6.01828">
        <ele>514</ele>
        <time>2024-07-01T17:45:53Z</time>
      </trkpt>
      <trkpt lat="43.69949" lon="6.01835">
        <ele>516</ele>
        <time>2024-07-01T17:45:54Z</time>
      </trkpt>
      <trkpt lat="43.69939" lon="6.01844">
        <ele>520</ele>
        <time>2024-07-01T17:45:57Z</time>
      </trkpt>
      <trkpt lat="43.69919" lon="6.01856">
        <ele>527</ele>
        <time>2024-07-01T17:46:02Z</time>
      </trkpt>
      <trkpt lat="43.69879" lon="6.01864">
        <ele>533</ele>
        <time>2024-07-01T17:46:11Z</time>
      </trkpt>
      <trkpt lat="43.69865" lon="6.01861">
        <ele>534</ele>
        <time>2024-07-01T17:46:15Z</time>
      </trkpt>
      <trkpt lat="43.69828" lon="6.01863">
        <ele>539</ele>
        <time>2024-07-01T17:46:23Z</time>
      </trkpt>
      <trkpt lat="43.69802" lon="6.01876">
        <ele>540</ele>
        <time>2024-07-01T17:46:30Z</time>
      </trkpt>
      <trkpt lat="43.69789" lon="6.01877">
        <ele>541</ele>
        <time>2024-07-01T17:46:33Z</time>
      </trkpt>
      <trkpt lat="43.69779" lon="6.01885">
        <ele>542</ele>
        <time>2024-07-01T17:46:36Z</time>
      </trkpt>
      <trkpt lat="43.69773" lon="6.01897">
        <ele>542</ele>
        <time>2024-07-01T17:46:38Z</time>
      </trkpt>
      <trkpt lat="43.69772" lon="6.01908">
        <ele>542</ele>
        <time>2024-07-01T17:46:40Z</time>
      </trkpt>
      <trkpt lat="43.69783" lon="6.01918">
        <ele>541</ele>
        <time>2024-07-01T17:46:43Z</time>
      </trkpt>
      <trkpt lat="43.69786" lon="6.01925">
        <ele>541</ele>
        <time>2024-07-01T17:46:44Z</time>
      </trkpt>
      <trkpt lat="43.69786" lon="6.01932">
        <ele>541</ele>
        <time>2024-07-01T17:46:46Z</time>
      </trkpt>
      <trkpt lat="43.69786" lon="6.0194">
        <ele>541</ele>
        <time>2024-07-01T17:46:47Z</time>
      </trkpt>
      <trkpt lat="43.69779" lon="6.01954">
        <ele>541</ele>
        <time>2024-07-01T17:46:50Z</time>
      </trkpt>
      <trkpt lat="43.69779" lon="6.01981">
        <ele>541</ele>
        <time>2024-07-01T17:46:54Z</time>
      </trkpt>
      <trkpt lat="43.69777" lon="6.01988">
        <ele>541</ele>
        <time>2024-07-01T17:46:56Z</time>
      </trkpt>
      <trkpt lat="43.69783" lon="6.02043">
        <ele>541</ele>
        <time>2024-07-01T17:47:05Z</time>
      </trkpt>
      <trkpt lat="43.69781" lon="6.02058">
        <ele>540</ele>
        <time>2024-07-01T17:47:08Z</time>
      </trkpt>
      <trkpt lat="43.69772" lon="6.02085">
        <ele>541</ele>
        <time>2024-07-01T17:47:13Z</time>
      </trkpt>
      <trkpt lat="43.69772" lon="6.02093">
        <ele>541</ele>
        <time>2024-07-01T17:47:14Z</time>
      </trkpt>
      <trkpt lat="43.69769" lon="6.02102">
        <ele>541</ele>
        <time>2024-07-01T17:47:16Z</time>
      </trkpt>
      <trkpt lat="43.69761" lon="6.02159">
        <ele>540</ele>
        <time>2024-07-01T17:47:25Z</time>
      </trkpt>
      <trkpt lat="43.69762" lon="6.02166">
        <ele>540</ele>
        <time>2024-07-01T17:47:27Z</time>
      </trkpt>
      <trkpt lat="43.69761" lon="6.02175">
        <ele>540</ele>
        <time>2024-07-01T17:47:28Z</time>
      </trkpt>
      <trkpt lat="43.69754" lon="6.02196">
        <ele>540</ele>
        <time>2024-07-01T17:47:32Z</time>
      </trkpt>
      <trkpt lat="43.69753" lon="6.02208">
        <ele>540</ele>
        <time>2024-07-01T17:47:34Z</time>
      </trkpt>
      <trkpt lat="43.69745" lon="6.02237">
        <ele>540</ele>
        <time>2024-07-01T17:47:39Z</time>
      </trkpt>
      <trkpt lat="43.69745" lon="6.02257">
        <ele>540</ele>
        <time>2024-07-01T17:47:43Z</time>
      </trkpt>
      <trkpt lat="43.69745" lon="6.02258">
        <ele>540</ele>
        <time>2024-07-01T17:47:43Z</time>
      </trkpt>
      <trkpt lat="43.69735" lon="6.02267">
        <ele>540</ele>
        <time>2024-07-01T17:47:46Z</time>
      </trkpt>
      <trkpt lat="43.69726" lon="6.02269">
        <ele>540</ele>
        <time>2024-07-01T17:47:48Z</time>
      </trkpt>
      <trkpt lat="43.69708" lon="6.02286">
        <ele>540</ele>
        <time>2024-07-01T17:47:53Z</time>
      </trkpt>
      <trkpt lat="43.69702" lon="6.02287">
        <ele>541</ele>
        <time>2024-07-01T17:47:54Z</time>
      </trkpt>
      <trkpt lat="43.69674" lon="6.02315">
        <ele>541</ele>
        <time>2024-07-01T17:48:02Z</time>
      </trkpt>
      <trkpt lat="43.6963" lon="6.02332">
        <ele>542</ele>
        <time>2024-07-01T17:48:13Z</time>
      </trkpt>
      <trkpt lat="43.69606" lon="6.02345">
        <ele>543</ele>
        <time>2024-07-01T17:48:19Z</time>
      </trkpt>
      <trkpt lat="43.69562" lon="6.02376">
        <ele>544</ele>
        <time>2024-07-01T17:48:31Z</time>
      </trkpt>
      <trkpt lat="43.69539" lon="6.02404">
        <ele>545</ele>
        <time>2024-07-01T17:48:38Z</time>
      </trkpt>
      <trkpt lat="43.69531" lon="6.02408">
        <ele>546</ele>
        <time>2024-07-01T17:48:40Z</time>
      </trkpt>
      <trkpt lat="43.69515" lon="6.02412">
        <ele>547</ele>
        <time>2024-07-01T17:48:44Z</time>
      </trkpt>
      <trkpt lat="43.69505" lon="6.02417">
        <ele>548</ele>
        <time>2024-07-01T17:48:46Z</time>
      </trkpt>
      <trkpt lat="43.69492" lon="6.02433">
        <ele>547</ele>
        <time>2024-07-01T17:48:50Z</time>
      </trkpt>
      <trkpt lat="43.69485" lon="6.02448">
        <ele>547</ele>
        <time>2024-07-01T17:48:53Z</time>
      </trkpt>
      <trkpt lat="43.69486" lon="6.02459">
        <ele>547</ele>
        <time>2024-07-01T17:48:55Z</time>
      </trkpt>
      <trkpt lat="43.69484" lon="6.02465">
        <ele>546</ele>
        <time>2024-07-01T17:48:56Z</time>
      </trkpt>
      <trkpt lat="43.69473" lon="6.02477">
        <ele>546</ele>
        <time>2024-07-01T17:48:59Z</time>
      </trkpt>
      <trkpt lat="43.69456" lon="6.02478">
        <ele>546</ele>
        <time>2024-07-01T17:49:03Z</time>
      </trkpt>
      <trkpt lat="43.69423" lon="6.02506">
        <ele>546</ele>
        <time>2024-07-01T17:49:12Z</time>
      </trkpt>
      <trkpt lat="43.69402" lon="6.02513">
        <ele>546</ele>
        <time>2024-07-01T17:49:17Z</time>
      </trkpt>
      <trkpt lat="43.69386" lon="6.02528">
        <ele>546</ele>
        <time>2024-07-01T17:49:22Z</time>
      </trkpt>
      <trkpt lat="43.69367" lon="6.02538">
        <ele>547</ele>
        <time>2024-07-01T17:49:27Z</time>
      </trkpt>
      <trkpt lat="43.69351" lon="6.02565">
        <ele>547</ele>
        <time>2024-07-01T17:49:33Z</time>
      </trkpt>
      <trkpt lat="43.69286" lon="6.02645">
        <ele>546</ele>
        <time>2024-07-01T17:49:53Z</time>
      </trkpt>
      <trkpt lat="43.69258" lon="6.02669">
        <ele>546</ele>
        <time>2024-07-01T17:50:01Z</time>
      </trkpt>
      <trkpt lat="43.69249" lon="6.02682">
        <ele>546</ele>
        <time>2024-07-01T17:50:04Z</time>
      </trkpt>
      <trkpt lat="43.69239" lon="6.02711">
        <ele>545</ele>
        <time>2024-07-01T17:50:09Z</time>
      </trkpt>
      <trkpt lat="43.69226" lon="6.02724">
        <ele>546</ele>
        <time>2024-07-01T17:50:13Z</time>
      </trkpt>
      <trkpt lat="43.69217" lon="6.02751">
        <ele>546</ele>
        <time>2024-07-01T17:50:18Z</time>
      </trkpt>
      <trkpt lat="43.69176" lon="6.02792">
        <ele>545</ele>
        <time>2024-07-01T17:50:30Z</time>
      </trkpt>
      <trkpt lat="43.69159" lon="6.02816">
        <ele>545</ele>
        <time>2024-07-01T17:50:35Z</time>
      </trkpt>
      <trkpt lat="43.69141" lon="6.02827">
        <ele>545</ele>
        <time>2024-07-01T17:50:40Z</time>
      </trkpt>
      <trkpt lat="43.69134" lon="6.02837">
        <ele>544</ele>
        <time>2024-07-01T17:50:42Z</time>
      </trkpt>
      <trkpt lat="43.69126" lon="6.0284">
        <ele>544</ele>
        <time>2024-07-01T17:50:44Z</time>
      </trkpt>
      <trkpt lat="43.6909" lon="6.02878">
        <ele>544</ele>
        <time>2024-07-01T17:50:55Z</time>
      </trkpt>
      <trkpt lat="43.69058" lon="6.02899">
        <ele>544</ele>
        <time>2024-07-01T17:51:03Z</time>
      </trkpt>
      <trkpt lat="43.69031" lon="6.02909">
        <ele>544</ele>
        <time>2024-07-01T17:51:10Z</time>
      </trkpt>
      <trkpt lat="43.69008" lon="6.02925">
        <ele>543</ele>
        <time>2024-07-01T17:51:16Z</time>
      </trkpt>
      <trkpt lat="43.69003" lon="6.02928">
        <ele>543</ele>
        <time>2024-07-01T17:51:17Z</time>
      </trkpt>
      <trkpt lat="43.68993" lon="6.02939">
        <ele>542</ele>
        <time>2024-07-01T17:51:20Z</time>
      </trkpt>
      <trkpt lat="43.68978" lon="6.02968">
        <ele>542</ele>
        <time>2024-07-01T17:51:26Z</time>
      </trkpt>
      <trkpt lat="43.68976" lon="6.02976">
        <ele>542</ele>
        <time>2024-07-01T17:51:27Z</time>
      </trkpt>
      <trkpt lat="43.68976" lon="6.02987">
        <ele>541</ele>
        <time>2024-07-01T17:51:29Z</time>
      </trkpt>
      <trkpt lat="43.68973" lon="6.03006">
        <ele>541</ele>
        <time>2024-07-01T17:51:32Z</time>
      </trkpt>
      <trkpt lat="43.68944" lon="6.03056">
        <ele>541</ele>
        <time>2024-07-01T17:51:43Z</time>
      </trkpt>
      <trkpt lat="43.68932" lon="6.03112">
        <ele>541</ele>
        <time>2024-07-01T17:51:53Z</time>
      </trkpt>
      <trkpt lat="43.68919" lon="6.03137">
        <ele>542</ele>
        <time>2024-07-01T17:51:58Z</time>
      </trkpt>
      <trkpt lat="43.6891" lon="6.03162">
        <ele>542</ele>
        <time>2024-07-01T17:52:03Z</time>
      </trkpt>
      <trkpt lat="43.68894" lon="6.03225">
        <ele>542</ele>
        <time>2024-07-01T17:52:14Z</time>
      </trkpt>
      <trkpt lat="43.68895" lon="6.03248">
        <ele>542</ele>
        <time>2024-07-01T17:52:18Z</time>
      </trkpt>
      <trkpt lat="43.68883" lon="6.03309">
        <ele>540</ele>
        <time>2024-07-01T17:52:29Z</time>
      </trkpt>
      <trkpt lat="43.68879" lon="6.03321">
        <ele>540</ele>
        <time>2024-07-01T17:52:31Z</time>
      </trkpt>
      <trkpt lat="43.68878" lon="6.03328">
        <ele>539</ele>
        <time>2024-07-01T17:52:32Z</time>
      </trkpt>
      <trkpt lat="43.68866" lon="6.03338">
        <ele>539</ele>
        <time>2024-07-01T17:52:36Z</time>
      </trkpt>
      <trkpt lat="43.68814" lon="6.03358">
        <ele>538</ele>
        <time>2024-07-01T17:52:48Z</time>
      </trkpt>
      <trkpt lat="43.68772" lon="6.03386">
        <ele>537</ele>
        <time>2024-07-01T17:52:59Z</time>
      </trkpt>
      <trkpt lat="43.68755" lon="6.034">
        <ele>535</ele>
        <time>2024-07-01T17:53:04Z</time>
      </trkpt>
      <trkpt lat="43.68726" lon="6.03417">
        <ele>535</ele>
        <time>2024-07-01T17:53:11Z</time>
      </trkpt>
      <trkpt lat="43.68677" lon="6.03455">
        <ele>534</ele>
        <time>2024-07-01T17:53:24Z</time>
      </trkpt>
      <trkpt lat="43.68667" lon="6.03473">
        <ele>532</ele>
        <time>2024-07-01T17:53:28Z</time>
      </trkpt>
      <trkpt lat="43.68673" lon="6.03526">
        <ele>528</ele>
        <time>2024-07-01T17:53:37Z</time>
      </trkpt>
      <trkpt lat="43.68673" lon="6.03558">
        <ele>525</ele>
        <time>2024-07-01T17:53:42Z</time>
      </trkpt>
      <trkpt lat="43.68672" lon="6.03566">
        <ele>524</ele>
        <time>2024-07-01T17:53:44Z</time>
      </trkpt>
      <trkpt lat="43.68685" lon="6.03584">
        <ele>522</ele>
        <time>2024-07-01T17:53:48Z</time>
      </trkpt>
      <trkpt lat="43.68692" lon="6.0359">
        <ele>521</ele>
        <time>2024-07-01T17:53:50Z</time>
      </trkpt>
      <trkpt lat="43.68711" lon="6.03601">
        <ele>518</ele>
        <time>2024-07-01T17:53:55Z</time>
      </trkpt>
      <trkpt lat="43.68714" lon="6.03605">
        <ele>517</ele>
        <time>2024-07-01T17:53:56Z</time>
      </trkpt>
      <trkpt lat="43.68714" lon="6.03611">
        <ele>515</ele>
        <time>2024-07-01T17:53:57Z</time>
      </trkpt>
      <trkpt lat="43.68713" lon="6.03616">
        <ele>514</ele>
        <time>2024-07-01T17:53:58Z</time>
      </trkpt>
      <trkpt lat="43.68707" lon="6.03625">
        <ele>512</ele>
        <time>2024-07-01T17:54:00Z</time>
      </trkpt>
      <trkpt lat="43.68703" lon="6.03627">
        <ele>512</ele>
        <time>2024-07-01T17:54:01Z</time>
      </trkpt>
      <trkpt lat="43.68687" lon="6.03641">
        <ele>510</ele>
        <time>2024-07-01T17:54:05Z</time>
      </trkpt>
      <trkpt lat="43.68677" lon="6.03647">
        <ele>509</ele>
        <time>2024-07-01T17:54:08Z</time>
      </trkpt>
      <trkpt lat="43.68666" lon="6.0365">
        <ele>509</ele>
        <time>2024-07-01T17:54:10Z</time>
      </trkpt>
      <trkpt lat="43.68664" lon="6.03656">
        <ele>508</ele>
        <time>2024-07-01T17:54:11Z</time>
      </trkpt>
      <trkpt lat="43.68676" lon="6.03665">
        <ele>506</ele>
        <time>2024-07-01T17:54:15Z</time>
      </trkpt>
      <trkpt lat="43.68697" lon="6.03686">
        <ele>499</ele>
        <time>2024-07-01T17:54:21Z</time>
      </trkpt>
      <trkpt lat="43.68702" lon="6.03686">
        <ele>498</ele>
        <time>2024-07-01T17:54:22Z</time>
      </trkpt>
      <trkpt lat="43.68711" lon="6.03692">
        <ele>496</ele>
        <time>2024-07-01T17:54:24Z</time>
      </trkpt>
      <trkpt lat="43.68716" lon="6.03692">
        <ele>495</ele>
        <time>2024-07-01T17:54:25Z</time>
      </trkpt>
      <trkpt lat="43.68722" lon="6.03698">
        <ele>493</ele>
        <time>2024-07-01T17:54:27Z</time>
      </trkpt>
      <trkpt lat="43.68718" lon="6.03717">
        <ele>489</ele>
        <time>2024-07-01T17:54:30Z</time>
      </trkpt>
      <trkpt lat="43.68696" lon="6.03739">
        <ele>486</ele>
        <time>2024-07-01T17:54:37Z</time>
      </trkpt>
      <trkpt lat="43.68684" lon="6.03747">
        <ele>485</ele>
        <time>2024-07-01T17:54:40Z</time>
      </trkpt>
      <trkpt lat="43.68664" lon="6.03753">
        <ele>486</ele>
        <time>2024-07-01T17:54:45Z</time>
      </trkpt>
      <trkpt lat="43.68657" lon="6.03752">
        <ele>486</ele>
        <time>2024-07-01T17:54:46Z</time>
      </trkpt>
      <trkpt lat="43.68639" lon="6.03744">
        <ele>488</ele>
        <time>2024-07-01T17:54:51Z</time>
      </trkpt>
      <trkpt lat="43.68632" lon="6.03746">
        <ele>488</ele>
        <time>2024-07-01T17:54:52Z</time>
      </trkpt>
      <trkpt lat="43.68595" lon="6.03784">
        <ele>478</ele>
        <time>2024-07-01T17:55:03Z</time>
      </trkpt>
      <trkpt lat="43.68591" lon="6.03792">
        <ele>476</ele>
        <time>2024-07-01T17:55:05Z</time>
      </trkpt>
      <trkpt lat="43.68581" lon="6.03802">
        <ele>474</ele>
        <time>2024-07-01T17:55:08Z</time>
      </trkpt>
      <trkpt lat="43.68582" lon="6.03808">
        <ele>473</ele>
        <time>2024-07-01T17:55:09Z</time>
      </trkpt>
      <trkpt lat="43.68591" lon="6.03814">
        <ele>471</ele>
        <time>2024-07-01T17:55:11Z</time>
      </trkpt>
      <trkpt lat="43.68594" lon="6.03818">
        <ele>470</ele>
        <time>2024-07-01T17:55:12Z</time>
      </trkpt>
      <trkpt lat="43.68599" lon="6.03821">
        <ele>469</ele>
        <time>2024-07-01T17:55:13Z</time>
      </trkpt>
      <trkpt lat="43.68608" lon="6.03819">
        <ele>469</ele>
        <time>2024-07-01T17:55:15Z</time>
      </trkpt>
      <trkpt lat="43.6862" lon="6.03811">
        <ele>470</ele>
        <time>2024-07-01T17:55:19Z</time>
      </trkpt>
      <trkpt lat="43.68633" lon="6.03809">
        <ele>470</ele>
        <time>2024-07-01T17:55:22Z</time>
      </trkpt>
      <trkpt lat="43.68638" lon="6.03821">
        <ele>466</ele>
        <time>2024-07-01T17:55:24Z</time>
      </trkpt>
      <trkpt lat="43.68644" lon="6.03829">
        <ele>463</ele>
        <time>2024-07-01T17:55:26Z</time>
      </trkpt>
      <trkpt lat="43.68675" lon="6.03845">
        <ele>456</ele>
        <time>2024-07-01T17:55:34Z</time>
      </trkpt>
      <trkpt lat="43.68686" lon="6.03846">
        <ele>454</ele>
        <time>2024-07-01T17:55:36Z</time>
      </trkpt>
      <trkpt lat="43.68719" lon="6.03843">
        <ele>451</ele>
        <time>2024-07-01T17:55:44Z</time>
      </trkpt>
      <trkpt lat="43.68731" lon="6.03835">
        <ele>452</ele>
        <time>2024-07-01T17:55:47Z</time>
      </trkpt>
      <trkpt lat="43.68742" lon="6.03831">
        <ele>452</ele>
        <time>2024-07-01T17:55:50Z</time>
      </trkpt>
      <trkpt lat="43.68742" lon="6.03835">
        <ele>450</ele>
        <time>2024-07-01T17:55:50Z</time>
      </trkpt>
      <trkpt lat="43.68736" lon="6.03843">
        <ele>449</ele>
        <time>2024-07-01T17:55:52Z</time>
      </trkpt>
      <trkpt lat="43.68725" lon="6.03853">
        <ele>448</ele>
        <time>2024-07-01T17:55:55Z</time>
      </trkpt>
      <trkpt lat="43.68722" lon="6.03859">
        <ele>446</ele>
        <time>2024-07-01T17:55:57Z</time>
      </trkpt>
      <trkpt lat="43.68722" lon="6.03862">
        <ele>445</ele>
        <time>2024-07-01T17:55:57Z</time>
      </trkpt>
      <trkpt lat="43.68723" lon="6.03865">
        <ele>444</ele>
        <time>2024-07-01T17:55:58Z</time>
      </trkpt>
      <trkpt lat="43.68728" lon="6.03866">
        <ele>444</ele>
        <time>2024-07-01T17:55:59Z</time>
      </trkpt>
      <trkpt lat="43.68747" lon="6.03861">
        <ele>443</ele>
        <time>2024-07-01T17:56:03Z</time>
      </trkpt>
      <trkpt lat="43.68791" lon="6.03854">
        <ele>439</ele>
        <time>2024-07-01T17:56:14Z</time>
      </trkpt>
      <trkpt lat="43.68815" lon="6.03843">
        <ele>438</ele>
        <time>2024-07-01T17:56:20Z</time>
      </trkpt>
      <trkpt lat="43.68833" lon="6.03843">
        <ele>435</ele>
        <time>2024-07-01T17:56:24Z</time>
      </trkpt>
      <trkpt lat="43.68841" lon="6.03847">
        <ele>433</ele>
        <time>2024-07-01T17:56:26Z</time>
      </trkpt>
      <trkpt lat="43.68861" lon="6.03852">
        <ele>427</ele>
        <time>2024-07-01T17:56:31Z</time>
      </trkpt>
      <trkpt lat="43.68873" lon="6.03852">
        <ele>425</ele>
        <time>2024-07-01T17:56:33Z</time>
      </trkpt>
      <trkpt lat="43.68886" lon="6.0385">
        <ele>423</ele>
        <time>2024-07-01T17:56:36Z</time>
      </trkpt>
      <trkpt lat="43.6891" lon="6.03836">
        <ele>420</ele>
        <time>2024-07-01T17:56:43Z</time>
      </trkpt>
      <trkpt lat="43.68918" lon="6.03833">
        <ele>419</ele>
        <time>2024-07-01T17:56:44Z</time>
      </trkpt>
      <trkpt lat="43.68927" lon="6.03832">
        <ele>418</ele>
        <time>2024-07-01T17:56:47Z</time>
      </trkpt>
      <trkpt lat="43.68941" lon="6.03834">
        <ele>415</ele>
        <time>2024-07-01T17:56:50Z</time>
      </trkpt>
      <trkpt lat="43.68955" lon="6.03831">
        <ele>413</ele>
        <time>2024-07-01T17:56:53Z</time>
      </trkpt>
      <trkpt lat="43.68965" lon="6.03832">
        <ele>411</ele>
        <time>2024-07-01T17:56:55Z</time>
      </trkpt>
      <trkpt lat="43.68981" lon="6.03826">
        <ele>409</ele>
        <time>2024-07-01T17:56:59Z</time>
      </trkpt>
      <trkpt lat="43.68993" lon="6.03827">
        <ele>407</ele>
        <time>2024-07-01T17:57:02Z</time>
      </trkpt>
      <trkpt lat="43.6901" lon="6.03823">
        <ele>405</ele>
        <time>2024-07-01T17:57:06Z</time>
      </trkpt>
      <trkpt lat="43.69025" lon="6.03809">
        <ele>405</ele>
        <time>2024-07-01T17:57:10Z</time>
      </trkpt>
      <trkpt lat="43.6904" lon="6.03789">
        <ele>407</ele>
        <time>2024-07-01T17:57:15Z</time>
      </trkpt>
      <trkpt lat="43.69047" lon="6.03782">
        <ele>407</ele>
        <time>2024-07-01T17:57:17Z</time>
      </trkpt>
      <trkpt lat="43.69056" lon="6.03778">
        <ele>406</ele>
        <time>2024-07-01T17:57:20Z</time>
      </trkpt>
      <trkpt lat="43.69071" lon="6.03777">
        <ele>403</ele>
        <time>2024-07-01T17:57:23Z</time>
      </trkpt>
      <trkpt lat="43.69099" lon="6.0378">
        <ele>397</ele>
        <time>2024-07-01T17:57:30Z</time>
      </trkpt>
      <trkpt lat="43.69115" lon="6.03784">
        <ele>394</ele>
        <time>2024-07-01T17:57:33Z</time>
      </trkpt>
      <trkpt lat="43.69129" lon="6.03798">
        <ele>390</ele>
        <time>2024-07-01T17:57:37Z</time>
      </trkpt>
      <trkpt lat="43.69141" lon="6.03802">
        <ele>388</ele>
        <time>2024-07-01T17:57:40Z</time>
      </trkpt>
      <trkpt lat="43.69155" lon="6.03803">
        <ele>386</ele>
        <time>2024-07-01T17:57:44Z</time>
      </trkpt>
      <trkpt lat="43.69188" lon="6.03801">
        <ele>382</ele>
        <time>2024-07-01T17:57:51Z</time>
      </trkpt>
      <trkpt lat="43.692" lon="6.03803">
        <ele>381</ele>
        <time>2024-07-01T17:57:54Z</time>
      </trkpt>
      <trkpt lat="43.69211" lon="6.03812">
        <ele>379</ele>
        <time>2024-07-01T17:57:57Z</time>
      </trkpt>
      <trkpt lat="43.69212" lon="6.03811">
        <ele>379</ele>
        <time>2024-07-01T17:57:57Z</time>
      </trkpt>
      <trkpt lat="43.69213" lon="6.0381">
        <ele>379</ele>
        <time>2024-07-01T17:57:58Z</time>
      </trkpt>
      <trkpt lat="43.69223" lon="6.038">
        <ele>379</ele>
        <time>2024-07-01T17:58:01Z</time>
      </trkpt>
      <trkpt lat="43.69225" lon="6.03798">
        <ele>379</ele>
        <time>2024-07-01T17:58:01Z</time>
      </trkpt>
      <trkpt lat="43.69223" lon="6.03794">
        <ele>379</ele>
        <time>2024-07-01T17:58:02Z</time>
      </trkpt>
      <trkpt lat="43.69224" lon="6.03789">
        <ele>379</ele>
        <time>2024-07-01T17:58:03Z</time>
      </trkpt>
      <trkpt lat="43.69244" lon="6.03761">
        <ele>378</ele>
        <time>2024-07-01T17:58:09Z</time>
      </trkpt>
      <trkpt lat="43.69257" lon="6.03748">
        <ele>376</ele>
        <time>2024-07-01T17:58:13Z</time>
      </trkpt>
      <trkpt lat="43.69286" lon="6.03699">
        <ele>377</ele>
        <time>2024-07-01T17:58:24Z</time>
      </trkpt>
      <trkpt lat="43.69301" lon="6.03668">
        <ele>375</ele>
        <time>2024-07-01T17:58:30Z</time>
      </trkpt>
      <trkpt lat="43.69305" lon="6.0365">
        <ele>377</ele>
        <time>2024-07-01T17:58:33Z</time>
      </trkpt>
      <trkpt lat="43.69307" lon="6.03629">
        <ele>379</ele>
        <time>2024-07-01T17:58:37Z</time>
      </trkpt>
      <trkpt lat="43.69309" lon="6.03619">
        <ele>380</ele>
        <time>2024-07-01T17:58:39Z</time>
      </trkpt>
      <trkpt lat="43.69312" lon="6.03611">
        <ele>380</ele>
        <time>2024-07-01T17:58:40Z</time>
      </trkpt>
      <trkpt lat="43.69308" lon="6.03604">
        <ele>382</ele>
        <time>2024-07-01T17:58:42Z</time>
      </trkpt>
      <trkpt lat="43.69326" lon="6.03558">
        <ele>381</ele>
        <time>2024-07-01T17:58:51Z</time>
      </trkpt>
      <trkpt lat="43.69344" lon="6.03516">
        <ele>382</ele>
        <time>2024-07-01T17:58:59Z</time>
      </trkpt>
      <trkpt lat="43.69348" lon="6.03513">
        <ele>382</ele>
        <time>2024-07-01T17:59:00Z</time>
      </trkpt>
      <trkpt lat="43.69351" lon="6.03516">
        <ele>380</ele>
        <time>2024-07-01T17:59:01Z</time>
      </trkpt>
      <trkpt lat="43.69361" lon="6.03512">
        <ele>379</ele>
        <time>2024-07-01T17:59:03Z</time>
      </trkpt>
      <trkpt lat="43.69364" lon="6.03516">
        <ele>378</ele>
        <time>2024-07-01T17:59:04Z</time>
      </trkpt>
      <trkpt lat="43.69384" lon="6.03493">
        <ele>376</ele>
        <time>2024-07-01T17:59:10Z</time>
      </trkpt>
      <trkpt lat="43.69395" lon="6.03485">
        <ele>374</ele>
        <time>2024-07-01T17:59:13Z</time>
      </trkpt>
      <trkpt lat="43.69404" lon="6.03481">
        <ele>372</ele>
        <time>2024-07-01T17:59:15Z</time>
      </trkpt>
      <trkpt lat="43.69428" lon="6.03475">
        <ele>371</ele>
        <time>2024-07-01T17:59:21Z</time>
      </trkpt>
      <trkpt lat="43.69443" lon="6.03478">
        <ele>373</ele>
        <time>2024-07-01T17:59:25Z</time>
      </trkpt>
      <trkpt lat="43.69444" lon="6.03495">
        <ele>372</ele>
        <time>2024-07-01T17:59:27Z</time>
      </trkpt>
      <trkpt lat="43.6945" lon="6.03514">
        <ele>370</ele>
        <time>2024-07-01T17:59:31Z</time>
      </trkpt>
      <trkpt lat="43.69473" lon="6.03549">
        <ele>367</ele>
        <time>2024-07-01T17:59:39Z</time>
      </trkpt>
      <trkpt lat="43.69487" lon="6.03564">
        <ele>365</ele>
        <time>2024-07-01T17:59:43Z</time>
      </trkpt>
      <trkpt lat="43.69495" lon="6.03563">
        <ele>366</ele>
        <time>2024-07-01T17:59:45Z</time>
      </trkpt>
      <trkpt lat="43.69523" lon="6.03566">
        <ele>369</ele>
        <time>2024-07-01T17:59:52Z</time>
      </trkpt>
      <trkpt lat="43.69557" lon="6.03575">
        <ele>372</ele>
        <time>2024-07-01T18:00:00Z</time>
      </trkpt>
      <trkpt lat="43.69577" lon="6.03603">
        <ele>371</ele>
        <time>2024-07-01T18:00:06Z</time>
      </trkpt>
      <trkpt lat="43.69601" lon="6.03645">
        <ele>370</ele>
        <time>2024-07-01T18:00:15Z</time>
      </trkpt>
      <trkpt lat="43.69607" lon="6.0366">
        <ele>368</ele>
        <time>2024-07-01T18:00:18Z</time>
      </trkpt>
      <trkpt lat="43.6962" lon="6.03706">
        <ele>367</ele>
        <time>2024-07-01T18:00:27Z</time>
      </trkpt>
      <trkpt lat="43.69624" lon="6.03715">
        <ele>366</ele>
        <time>2024-07-01T18:00:28Z</time>
      </trkpt>
      <trkpt lat="43.69637" lon="6.03723">
        <ele>367</ele>
        <time>2024-07-01T18:00:32Z</time>
      </trkpt>
      <trkpt lat="43.69656" lon="6.03722">
        <ele>368</ele>
        <time>2024-07-01T18:00:36Z</time>
      </trkpt>
      <trkpt lat="43.69647" lon="6.03716">
        <ele>367</ele>
        <time>2024-07-01T18:00:38Z</time>
      </trkpt>
      <trkpt lat="43.69633" lon="6.03711">
        <ele>367</ele>
        <time>2024-07-01T18:00:42Z</time>
      </trkpt>
      <trkpt lat="43.6963" lon="6.03706">
        <ele>367</ele>
        <time>2024-07-01T18:00:43Z</time>
      </trkpt>
      <trkpt lat="43.69629" lon="6.03697">
        <ele>368</ele>
        <time>2024-07-01T18:00:44Z</time>
      </trkpt>
      <trkpt lat="43.69642" lon="6.03676">
        <ele>370</ele>
        <time>2024-07-01T18:00:49Z</time>
      </trkpt>
      <trkpt lat="43.6965" lon="6.0367">
        <ele>371</ele>
        <time>2024-07-01T18:00:51Z</time>
      </trkpt>
      <trkpt lat="43.69719" lon="6.03652">
        <ele>376</ele>
        <time>2024-07-01T18:01:08Z</time>
      </trkpt>
      <trkpt lat="43.69789" lon="6.03627">
        <ele>378</ele>
        <time>2024-07-01T18:01:24Z</time>
      </trkpt>
      <trkpt lat="43.69795" lon="6.03622">
        <ele>379</ele>
        <time>2024-07-01T18:01:26Z</time>
      </trkpt>
      <trkpt lat="43.69806" lon="6.03613">
        <ele>379</ele>
        <time>2024-07-01T18:01:29Z</time>
      </trkpt>
      <trkpt lat="43.69818" lon="6.03606">
        <ele>379</ele>
        <time>2024-07-01T18:01:32Z</time>
      </trkpt>
      <trkpt lat="43.69858" lon="6.03569">
        <ele>383</ele>
        <time>2024-07-01T18:01:43Z</time>
      </trkpt>
      <trkpt lat="43.69878" lon="6.03541">
        <ele>387</ele>
        <time>2024-07-01T18:01:50Z</time>
      </trkpt>
      <trkpt lat="43.69917" lon="6.035">
        <ele>392</ele>
        <time>2024-07-01T18:02:01Z</time>
      </trkpt>
      <trkpt lat="43.69933" lon="6.03485">
        <ele>396</ele>
        <time>2024-07-01T18:02:06Z</time>
      </trkpt>
      <trkpt lat="43.69942" lon="6.03482">
        <ele>397</ele>
        <time>2024-07-01T18:02:08Z</time>
      </trkpt>
      <trkpt lat="43.69959" lon="6.0347">
        <ele>400</ele>
        <time>2024-07-01T18:02:13Z</time>
      </trkpt>
      <trkpt lat="43.69981" lon="6.03436">
        <ele>407</ele>
        <time>2024-07-01T18:02:20Z</time>
      </trkpt>
      <trkpt lat="43.70004" lon="6.03406">
        <ele>413</ele>
        <time>2024-07-01T18:02:28Z</time>
      </trkpt>
      <trkpt lat="43.70004" lon="6.03399">
        <ele>415</ele>
        <time>2024-07-01T18:02:29Z</time>
      </trkpt>
      <trkpt lat="43.70012" lon="6.03389">
        <ele>416</ele>
        <time>2024-07-01T18:02:31Z</time>
      </trkpt>
      <trkpt lat="43.70017" lon="6.03386">
        <ele>417</ele>
        <time>2024-07-01T18:02:33Z</time>
      </trkpt>
      <trkpt lat="43.70062" lon="6.03344">
        <ele>423</ele>
        <time>2024-07-01T18:02:45Z</time>
      </trkpt>
      <trkpt lat="43.70082" lon="6.03328">
        <ele>425</ele>
        <time>2024-07-01T18:02:51Z</time>
      </trkpt>
      <trkpt lat="43.70121" lon="6.03289">
        <ele>431</ele>
        <time>2024-07-01T18:03:02Z</time>
      </trkpt>
      <trkpt lat="43.70143" lon="6.03265">
        <ele>433</ele>
        <time>2024-07-01T18:03:09Z</time>
      </trkpt>
      <trkpt lat="43.7016" lon="6.03239">
        <ele>436</ele>
        <time>2024-07-01T18:03:14Z</time>
      </trkpt>
      <trkpt lat="43.70167" lon="6.03224">
        <ele>439</ele>
        <time>2024-07-01T18:03:17Z</time>
      </trkpt>
      <trkpt lat="43.70172" lon="6.03204">
        <ele>445</ele>
        <time>2024-07-01T18:03:21Z</time>
      </trkpt>
      <trkpt lat="43.70183" lon="6.03188">
        <ele>449</ele>
        <time>2024-07-01T18:03:25Z</time>
      </trkpt>
      <trkpt lat="43.70195" lon="6.03175">
        <ele>451</ele>
        <time>2024-07-01T18:03:28Z</time>
      </trkpt>
      <trkpt lat="43.70208" lon="6.03165">
        <ele>453</ele>
        <time>2024-07-01T18:03:32Z</time>
      </trkpt>
      <trkpt lat="43.70232" lon="6.03153">
        <ele>455</ele>
        <time>2024-07-01T18:03:38Z</time>
      </trkpt>
      <trkpt lat="43.70259" lon="6.03148">
        <ele>455</ele>
        <time>2024-07-01T18:03:44Z</time>
      </trkpt>
      <trkpt lat="43.70265" lon="6.03144">
        <ele>457</ele>
        <time>2024-07-01T18:03:46Z</time>
      </trkpt>
      <trkpt lat="43.70273" lon="6.03147">
        <ele>457</ele>
        <time>2024-07-01T18:03:48Z</time>
      </trkpt>
      <trkpt lat="43.70295" lon="6.03133">
        <ele>462</ele>
        <time>2024-07-01T18:03:53Z</time>
      </trkpt>
      <trkpt lat="43.70308" lon="6.03122">
        <ele>466</ele>
        <time>2024-07-01T18:03:57Z</time>
      </trkpt>
      <trkpt lat="43.70325" lon="6.03115">
        <ele>468</ele>
        <time>2024-07-01T18:04:01Z</time>
      </trkpt>
      <trkpt lat="43.70354" lon="6.03115">
        <ele>471</ele>
        <time>2024-07-01T18:04:08Z</time>
      </trkpt>
      <trkpt lat="43.70364" lon="6.03106">
        <ele>474</ele>
        <time>2024-07-01T18:04:11Z</time>
      </trkpt>
      <trkpt lat="43.70379" lon="6.03095">
        <ele>478</ele>
        <time>2024-07-01T18:04:14Z</time>
      </trkpt>
      <trkpt lat="43.70399" lon="6.03085">
        <ele>482</ele>
        <time>2024-07-01T18:04:19Z</time>
      </trkpt>
      <trkpt lat="43.70415" lon="6.03081">
        <ele>485</ele>
        <time>2024-07-01T18:04:23Z</time>
      </trkpt>
      <trkpt lat="43.70423" lon="6.03073">
        <ele>488</ele>
        <time>2024-07-01T18:04:26Z</time>
      </trkpt>
      <trkpt lat="43.70435" lon="6.03068">
        <ele>492</ele>
        <time>2024-07-01T18:04:28Z</time>
      </trkpt>
      <trkpt lat="43.70458" lon="6.03065">
        <ele>497</ele>
        <time>2024-07-01T18:04:34Z</time>
      </trkpt>
      <trkpt lat="43.70466" lon="6.03066">
        <ele>499</ele>
        <time>2024-07-01T18:04:36Z</time>
      </trkpt>
      <trkpt lat="43.70474" lon="6.03067">
        <ele>500</ele>
        <time>2024-07-01T18:04:38Z</time>
      </trkpt>
      <trkpt lat="43.70478" lon="6.03062">
        <ele>502</ele>
        <time>2024-07-01T18:04:39Z</time>
      </trkpt>
      <trkpt lat="43.70476" lon="6.03051">
        <ele>505</ele>
        <time>2024-07-01T18:04:41Z</time>
      </trkpt>
      <trkpt lat="43.7047" lon="6.0304">
        <ele>507</ele>
        <time>2024-07-01T18:04:43Z</time>
      </trkpt>
      <trkpt lat="43.70459" lon="6.0303">
        <ele>508</ele>
        <time>2024-07-01T18:04:46Z</time>
      </trkpt>
      <trkpt lat="43.7044" lon="6.03018">
        <ele>508</ele>
        <time>2024-07-01T18:04:51Z</time>
      </trkpt>
      <trkpt lat="43.70435" lon="6.03007">
        <ele>511</ele>
        <time>2024-07-01T18:04:53Z</time>
      </trkpt>
      <trkpt lat="43.70437" lon="6.03002">
        <ele>513</ele>
        <time>2024-07-01T18:04:54Z</time>
      </trkpt>
      <trkpt lat="43.70441" lon="6.02998">
        <ele>514</ele>
        <time>2024-07-01T18:04:55Z</time>
      </trkpt>
      <trkpt lat="43.7044" lon="6.02992">
        <ele>515</ele>
        <time>2024-07-01T18:04:56Z</time>
      </trkpt>
      <trkpt lat="43.70429" lon="6.0298">
        <ele>516</ele>
        <time>2024-07-01T18:05:00Z</time>
      </trkpt>
      <trkpt lat="43.70425" lon="6.0297">
        <ele>518</ele>
        <time>2024-07-01T18:05:02Z</time>
      </trkpt>
      <trkpt lat="43.70424" lon="6.02952">
        <ele>522</ele>
        <time>2024-07-01T18:05:05Z</time>
      </trkpt>
      <trkpt lat="43.7043" lon="6.02942">
        <ele>525</ele>
        <time>2024-07-01T18:05:07Z</time>
      </trkpt>
      <trkpt lat="43.70423" lon="6.02921">
        <ele>529</ele>
        <time>2024-07-01T18:05:11Z</time>
      </trkpt>
      <trkpt lat="43.7043" lon="6.02903">
        <ele>531</ele>
        <time>2024-07-01T18:05:14Z</time>
      </trkpt>
      <trkpt lat="43.70431" lon="6.02892">
        <ele>532</ele>
        <time>2024-07-01T18:05:16Z</time>
      </trkpt>
      <trkpt lat="43.70438" lon="6.0288">
        <ele>533</ele>
        <time>2024-07-01T18:05:19Z</time>
      </trkpt>
      <trkpt lat="43.70439" lon="6.0287">
        <ele>534</ele>
        <time>2024-07-01T18:05:20Z</time>
      </trkpt>
      <trkpt lat="43.70438" lon="6.02861">
        <ele>535</ele>
        <time>2024-07-01T18:05:22Z</time>
      </trkpt>
      <trkpt lat="43.70441" lon="6.02854">
        <ele>535</ele>
        <time>2024-07-01T18:05:23Z</time>
      </trkpt>
      <trkpt lat="43.70439" lon="6.02842">
        <ele>536</ele>
        <time>2024-07-01T18:05:25Z</time>
      </trkpt>
      <trkpt lat="43.7046" lon="6.02811">
        <ele>537</ele>
        <time>2024-07-01T18:05:33Z</time>
      </trkpt>
      <trkpt lat="43.70475" lon="6.02793">
        <ele>537</ele>
        <time>2024-07-01T18:05:37Z</time>
      </trkpt>
      <trkpt lat="43.70489" lon="6.02782">
        <ele>538</ele>
        <time>2024-07-01T18:05:41Z</time>
      </trkpt>
      <trkpt lat="43.70504" lon="6.0278">
        <ele>538</ele>
        <time>2024-07-01T18:05:44Z</time>
      </trkpt>
      <trkpt lat="43.70508" lon="6.02777">
        <ele>538</ele>
        <time>2024-07-01T18:05:46Z</time>
      </trkpt>
      <trkpt lat="43.70516" lon="6.02767">
        <ele>539</ele>
        <time>2024-07-01T18:05:48Z</time>
      </trkpt>
      <trkpt lat="43.70532" lon="6.02756">
        <ele>539</ele>
        <time>2024-07-01T18:05:52Z</time>
      </trkpt>
      <trkpt lat="43.70549" lon="6.02755">
        <ele>540</ele>
        <time>2024-07-01T18:05:56Z</time>
      </trkpt>
      <trkpt lat="43.70586" lon="6.0275">
        <ele>541</ele>
        <time>2024-07-01T18:06:05Z</time>
      </trkpt>
      <trkpt lat="43.70625" lon="6.02755">
        <ele>541</ele>
        <time>2024-07-01T18:06:14Z</time>
      </trkpt>
      <trkpt lat="43.70652" lon="6.02762">
        <ele>541</ele>
        <time>2024-07-01T18:06:20Z</time>
      </trkpt>
      <trkpt lat="43.7068" lon="6.02738">
        <ele>541</ele>
        <time>2024-07-01T18:06:28Z</time>
      </trkpt>
      <trkpt lat="43.70693" lon="6.02711">
        <ele>542</ele>
        <time>2024-07-01T18:06:34Z</time>
      </trkpt>
      <trkpt lat="43.70708" lon="6.02701">
        <ele>542</ele>
        <time>2024-07-01T18:06:37Z</time>
      </trkpt>
      <trkpt lat="43.70734" lon="6.02696">
        <ele>542</ele>
        <time>2024-07-01T18:06:44Z</time>
      </trkpt>
      <trkpt lat="43.70739" lon="6.02689">
        <ele>542</ele>
        <time>2024-07-01T18:06:45Z</time>
      </trkpt>
      <trkpt lat="43.70745" lon="6.02672">
        <ele>542</ele>
        <time>2024-07-01T18:06:48Z</time>
      </trkpt>
      <trkpt lat="43.70749" lon="6.02668">
        <ele>542</ele>
        <time>2024-07-01T18:06:50Z</time>
      </trkpt>
      <trkpt lat="43.70759" lon="6.02668">
        <ele>542</ele>
        <time>2024-07-01T18:06:52Z</time>
      </trkpt>
      <trkpt lat="43.70766" lon="6.02668">
        <ele>542</ele>
        <time>2024-07-01T18:06:54Z</time>
      </trkpt>
      <trkpt lat="43.70778" lon="6.02661">
        <ele>542</ele>
        <time>2024-07-01T18:06:57Z</time>
      </trkpt>
      <trkpt lat="43.70798" lon="6.02665">
        <ele>542</ele>
        <time>2024-07-01T18:07:01Z</time>
      </trkpt>
      <trkpt lat="43.70849" lon="6.02643">
        <ele>542</ele>
        <time>2024-07-01T18:07:14Z</time>
      </trkpt>
      <trkpt lat="43.70928" lon="6.026">
        <ele>544</ele>
        <time>2024-07-01T18:07:34Z</time>
      </trkpt>
      <trkpt lat="43.71095" lon="6.02488">
        <ele>545</ele>
        <time>2024-07-01T18:08:17Z</time>
      </trkpt>
      <trkpt lat="43.71127" lon="6.02451">
        <ele>545</ele>
        <time>2024-07-01T18:08:27Z</time>
      </trkpt>
      <trkpt lat="43.71152" lon="6.02409">
        <ele>547</ele>
        <time>2024-07-01T18:08:36Z</time>
      </trkpt>
      <trkpt lat="43.71163" lon="6.02395">
        <ele>546</ele>
        <time>2024-07-01T18:08:39Z</time>
      </trkpt>
      <trkpt lat="43.71246" lon="6.02307">
        <ele>543</ele>
        <time>2024-07-01T18:09:04Z</time>
      </trkpt>
      <trkpt lat="43.71404" lon="6.02187">
        <ele>543</ele>
        <time>2024-07-01T18:09:46Z</time>
      </trkpt>
      <trkpt lat="43.71445" lon="6.02159">
        <ele>543</ele>
        <time>2024-07-01T18:09:57Z</time>
      </trkpt>
      <trkpt lat="43.71445" lon="6.02171">
        <ele>543</ele>
        <time>2024-07-01T18:09:59Z</time>
      </trkpt>
      <trkpt lat="43.71445" lon="6.02159">
        <ele>543</ele>
        <time>2024-07-01T18:10:01Z</time>
      </trkpt>
      <trkpt lat="43.71448" lon="6.02144">
        <ele>543</ele>
        <time>2024-07-01T18:10:03Z</time>
      </trkpt>
      <trkpt lat="43.71459" lon="6.0212">
        <ele>543</ele>
        <time>2024-07-01T18:10:08Z</time>
      </trkpt>
      <trkpt lat="43.71504" lon="6.0203">
        <ele>545</ele>
        <time>2024-07-01T18:10:27Z</time>
      </trkpt>
      <trkpt lat="43.71526" lon="6.01992">
        <ele>545</ele>
        <time>2024-07-01T18:10:35Z</time>
      </trkpt>
      <trkpt lat="43.71544" lon="6.01969">
        <ele>545</ele>
        <time>2024-07-01T18:10:40Z</time>
      </trkpt>
      <trkpt lat="43.71597" lon="6.01914">
        <ele>545</ele>
        <time>2024-07-01T18:10:56Z</time>
      </trkpt>
      <trkpt lat="43.7172" lon="6.01791">
        <ele>543</ele>
        <time>2024-07-01T18:11:31Z</time>
      </trkpt>
      <trkpt lat="43.71768" lon="6.01745">
        <ele>543</ele>
        <time>2024-07-01T18:11:45Z</time>
      </trkpt>
      <trkpt lat="43.71798" lon="6.01711">
        <ele>542</ele>
        <time>2024-07-01T18:11:54Z</time>
      </trkpt>
      <trkpt lat="43.71834" lon="6.01662">
        <ele>541</ele>
        <time>2024-07-01T18:12:06Z</time>
      </trkpt>
      <trkpt lat="43.71844" lon="6.0164">
        <ele>542</ele>
        <time>2024-07-01T18:12:10Z</time>
      </trkpt>
      <trkpt lat="43.71852" lon="6.01619">
        <ele>542</ele>
        <time>2024-07-01T18:12:14Z</time>
      </trkpt>
      <trkpt lat="43.71854" lon="6.0161">
        <ele>543</ele>
        <time>2024-07-01T18:12:16Z</time>
      </trkpt>
      <trkpt lat="43.71855" lon="6.01598">
        <ele>543</ele>
        <time>2024-07-01T18:12:18Z</time>
      </trkpt>
      <trkpt lat="43.71862" lon="6.0158">
        <ele>543</ele>
        <time>2024-07-01T18:12:21Z</time>
      </trkpt>
      <trkpt lat="43.71868" lon="6.01571">
        <ele>543</ele>
        <time>2024-07-01T18:12:23Z</time>
      </trkpt>
      <trkpt lat="43.71877" lon="6.01564">
        <ele>543</ele>
        <time>2024-07-01T18:12:26Z</time>
      </trkpt>
      <trkpt lat="43.71884" lon="6.01548">
        <ele>543</ele>
        <time>2024-07-01T18:12:29Z</time>
      </trkpt>
      <trkpt lat="43.71891" lon="6.01537">
        <ele>542</ele>
        <time>2024-07-01T18:12:31Z</time>
      </trkpt>
      <trkpt lat="43.71903" lon="6.01522">
        <ele>542</ele>
        <time>2024-07-01T18:12:35Z</time>
      </trkpt>
      <trkpt lat="43.71907" lon="6.01519">
        <ele>542</ele>
        <time>2024-07-01T18:12:36Z</time>
      </trkpt>
      <trkpt lat="43.71915" lon="6.01507">
        <ele>541</ele>
        <time>2024-07-01T18:12:39Z</time>
      </trkpt>
      <trkpt lat="43.7192" lon="6.01494">
        <ele>541</ele>
        <time>2024-07-01T18:12:42Z</time>
      </trkpt>
      <trkpt lat="43.71922" lon="6.01475">
        <ele>540</ele>
        <time>2024-07-01T18:12:45Z</time>
      </trkpt>
      <trkpt lat="43.71925" lon="6.0146">
        <ele>540</ele>
        <time>2024-07-01T18:12:47Z</time>
      </trkpt>
      <trkpt lat="43.71937" lon="6.01452">
        <ele>540</ele>
        <time>2024-07-01T18:12:51Z</time>
      </trkpt>
      <trkpt lat="43.71942" lon="6.01443">
        <ele>540</ele>
        <time>2024-07-01T18:12:52Z</time>
      </trkpt>
      <trkpt lat="43.7195" lon="6.01435">
        <ele>539</ele>
        <time>2024-07-01T18:12:55Z</time>
      </trkpt>
      <trkpt lat="43.71962" lon="6.01434">
        <ele>539</ele>
        <time>2024-07-01T18:12:58Z</time>
      </trkpt>
      <trkpt lat="43.71966" lon="6.01431">
        <ele>539</ele>
        <time>2024-07-01T18:12:59Z</time>
      </trkpt>
      <trkpt lat="43.71975" lon="6.01411">
        <ele>539</ele>
        <time>2024-07-01T18:13:03Z</time>
      </trkpt>
      <trkpt lat="43.71984" lon="6.01398">
        <ele>539</ele>
        <time>2024-07-01T18:13:06Z</time>
      </trkpt>
      <trkpt lat="43.71987" lon="6.01388">
        <ele>539</ele>
        <time>2024-07-01T18:13:07Z</time>
      </trkpt>
      <trkpt lat="43.71992" lon="6.01381">
        <ele>539</ele>
        <time>2024-07-01T18:13:09Z</time>
      </trkpt>
      <trkpt lat="43.72002" lon="6.01356">
        <ele>539</ele>
        <time>2024-07-01T18:13:14Z</time>
      </trkpt>
      <trkpt lat="43.72003" lon="6.01346">
        <ele>540</ele>
        <time>2024-07-01T18:13:16Z</time>
      </trkpt>
      <trkpt lat="43.72014" lon="6.01328">
        <ele>540</ele>
        <time>2024-07-01T18:13:20Z</time>
      </trkpt>
      <trkpt lat="43.72018" lon="6.01317">
        <ele>540</ele>
        <time>2024-07-01T18:13:22Z</time>
      </trkpt>
      <trkpt lat="43.72024" lon="6.01308">
        <ele>540</ele>
        <time>2024-07-01T18:13:24Z</time>
      </trkpt>
      <trkpt lat="43.72025" lon="6.01303">
        <ele>540</ele>
        <time>2024-07-01T18:13:25Z</time>
      </trkpt>
      <trkpt lat="43.72029" lon="6.01297">
        <ele>540</ele>
        <time>2024-07-01T18:13:26Z</time>
      </trkpt>
      <trkpt lat="43.72045" lon="6.01289">
        <ele>540</ele>
        <time>2024-07-01T18:13:30Z</time>
      </trkpt>
      <trkpt lat="43.72051" lon="6.01282">
        <ele>540</ele>
        <time>2024-07-01T18:13:32Z</time>
      </trkpt>
      <trkpt lat="43.72055" lon="6.01272">
        <ele>540</ele>
        <time>2024-07-01T18:13:34Z</time>
      </trkpt>
      <trkpt lat="43.7206" lon="6.01252">
        <ele>541</ele>
        <time>2024-07-01T18:13:37Z</time>
      </trkpt>
      <trkpt lat="43.72066" lon="6.01242">
        <ele>541</ele>
        <time>2024-07-01T18:13:40Z</time>
      </trkpt>
      <trkpt lat="43.72084" lon="6.01221">
        <ele>540</ele>
        <time>2024-07-01T18:13:45Z</time>
      </trkpt>
      <trkpt lat="43.72095" lon="6.01213">
        <ele>540</ele>
        <time>2024-07-01T18:13:48Z</time>
      </trkpt>
      <trkpt lat="43.72116" lon="6.01204">
        <ele>541</ele>
        <time>2024-07-01T18:13:53Z</time>
      </trkpt>
      <trkpt lat="43.7212" lon="6.012">
        <ele>541</ele>
        <time>2024-07-01T18:13:54Z</time>
      </trkpt>
      <trkpt lat="43.72128" lon="6.01183">
        <ele>541</ele>
        <time>2024-07-01T18:13:58Z</time>
      </trkpt>
      <trkpt lat="43.72148" lon="6.01162">
        <ele>541</ele>
        <time>2024-07-01T18:14:04Z</time>
      </trkpt>
      <trkpt lat="43.72158" lon="6.0116">
        <ele>542</ele>
        <time>2024-07-01T18:14:06Z</time>
      </trkpt>
      <trkpt lat="43.72162" lon="6.01157">
        <ele>542</ele>
        <time>2024-07-01T18:14:07Z</time>
      </trkpt>
      <trkpt lat="43.72165" lon="6.0115">
        <ele>542</ele>
        <time>2024-07-01T18:14:08Z</time>
      </trkpt>
      <trkpt lat="43.72169" lon="6.01146">
        <ele>542</ele>
        <time>2024-07-01T18:14:09Z</time>
      </trkpt>
      <trkpt lat="43.72185" lon="6.01138">
        <ele>542</ele>
        <time>2024-07-01T18:14:13Z</time>
      </trkpt>
      <trkpt lat="43.72218" lon="6.01097">
        <ele>542</ele>
        <time>2024-07-01T18:14:24Z</time>
      </trkpt>
      <trkpt lat="43.72238" lon="6.01055">
        <ele>542</ele>
        <time>2024-07-01T18:14:32Z</time>
      </trkpt>
      <trkpt lat="43.72269" lon="6.01016">
        <ele>542</ele>
        <time>2024-07-01T18:14:42Z</time>
      </trkpt>
      <trkpt lat="43.72273" lon="6.01005">
        <ele>542</ele>
        <time>2024-07-01T18:14:44Z</time>
      </trkpt>
      <trkpt lat="43.72275" lon="6.01001">
        <ele>542</ele>
        <time>2024-07-01T18:14:45Z</time>
      </trkpt>
      <trkpt lat="43.72291" lon="6.00994">
        <ele>542</ele>
        <time>2024-07-01T18:14:49Z</time>
      </trkpt>
      <trkpt lat="43.72297" lon="6.00985">
        <ele>542</ele>
        <time>2024-07-01T18:14:51Z</time>
      </trkpt>
      <trkpt lat="43.72307" lon="6.00961">
        <ele>542</ele>
        <time>2024-07-01T18:14:56Z</time>
      </trkpt>
      <trkpt lat="43.72308" lon="6.00953">
        <ele>542</ele>
        <time>2024-07-01T18:14:57Z</time>
      </trkpt>
      <trkpt lat="43.72315" lon="6.0094">
        <ele>542</ele>
        <time>2024-07-01T18:15:00Z</time>
      </trkpt>
      <trkpt lat="43.72319" lon="6.00925">
        <ele>541</ele>
        <time>2024-07-01T18:15:02Z</time>
      </trkpt>
      <trkpt lat="43.72325" lon="6.0092">
        <ele>542</ele>
        <time>2024-07-01T18:15:04Z</time>
      </trkpt>
      <trkpt lat="43.72345" lon="6.00894">
        <ele>542</ele>
        <time>2024-07-01T18:15:10Z</time>
      </trkpt>
      <trkpt lat="43.72347" lon="6.00888">
        <ele>542</ele>
        <time>2024-07-01T18:15:12Z</time>
      </trkpt>
      <trkpt lat="43.7236" lon="6.0087">
        <ele>542</ele>
        <time>2024-07-01T18:15:16Z</time>
      </trkpt>
      <trkpt lat="43.72377" lon="6.00838">
        <ele>542</ele>
        <time>2024-07-01T18:15:23Z</time>
      </trkpt>
      <trkpt lat="43.7239" lon="6.00806">
        <ele>542</ele>
        <time>2024-07-01T18:15:29Z</time>
      </trkpt>
      <trkpt lat="43.72415" lon="6.00776">
        <ele>543</ele>
        <time>2024-07-01T18:15:37Z</time>
      </trkpt>
      <trkpt lat="43.72428" lon="6.00739">
        <ele>543</ele>
        <time>2024-07-01T18:15:43Z</time>
      </trkpt>
      <trkpt lat="43.72442" lon="6.00726">
        <ele>543</ele>
        <time>2024-07-01T18:15:47Z</time>
      </trkpt>
      <trkpt lat="43.7245" lon="6.00716">
        <ele>543</ele>
        <time>2024-07-01T18:15:50Z</time>
      </trkpt>
      <trkpt lat="43.72465" lon="6.00688">
        <ele>543</ele>
        <time>2024-07-01T18:15:56Z</time>
      </trkpt>
      <trkpt lat="43.72473" lon="6.0068">
        <ele>542</ele>
        <time>2024-07-01T18:15:58Z</time>
      </trkpt>
      <trkpt lat="43.72474" lon="6.00673">
        <ele>542</ele>
        <time>2024-07-01T18:15:59Z</time>
      </trkpt>
      <trkpt lat="43.72489" lon="6.00638">
        <ele>542</ele>
        <time>2024-07-01T18:16:06Z</time>
      </trkpt>
      <trkpt lat="43.72518" lon="6.00598">
        <ele>541</ele>
        <time>2024-07-01T18:16:16Z</time>
      </trkpt>
      <trkpt lat="43.72526" lon="6.00575">
        <ele>541</ele>
        <time>2024-07-01T18:16:20Z</time>
      </trkpt>
      <trkpt lat="43.72544" lon="6.00538">
        <ele>540</ele>
        <time>2024-07-01T18:16:28Z</time>
      </trkpt>
      <trkpt lat="43.72552" lon="6.00509">
        <ele>540</ele>
        <time>2024-07-01T18:16:33Z</time>
      </trkpt>
      <trkpt lat="43.72559" lon="6.00492">
        <ele>540</ele>
        <time>2024-07-01T18:16:36Z</time>
      </trkpt>
      <trkpt lat="43.72568" lon="6.00481">
        <ele>540</ele>
        <time>2024-07-01T18:16:39Z</time>
      </trkpt>
      <trkpt lat="43.72581" lon="6.00461">
        <ele>541</ele>
        <time>2024-07-01T18:16:43Z</time>
      </trkpt>
      <trkpt lat="43.72596" lon="6.00415">
        <ele>542</ele>
        <time>2024-07-01T18:16:52Z</time>
      </trkpt>
      <trkpt lat="43.72604" lon="6.00396">
        <ele>542</ele>
        <time>2024-07-01T18:16:56Z</time>
      </trkpt>
      <trkpt lat="43.72614" lon="6.00378">
        <ele>541</ele>
        <time>2024-07-01T18:16:59Z</time>
      </trkpt>
      <trkpt lat="43.72624" lon="6.00344">
        <ele>541</ele>
        <time>2024-07-01T18:17:06Z</time>
      </trkpt>
      <trkpt lat="43.72637" lon="6.00315">
        <ele>541</ele>
        <time>2024-07-01T18:17:11Z</time>
      </trkpt>
      <trkpt lat="43.7264" lon="6.00305">
        <ele>541</ele>
        <time>2024-07-01T18:17:13Z</time>
      </trkpt>
      <trkpt lat="43.72642" lon="6.00285">
        <ele>541</ele>
        <time>2024-07-01T18:17:17Z</time>
      </trkpt>
      <trkpt lat="43.72652" lon="6.00265">
        <ele>541</ele>
        <time>2024-07-01T18:17:21Z</time>
      </trkpt>
      <trkpt lat="43.72657" lon="6.00241">
        <ele>541</ele>
        <time>2024-07-01T18:17:25Z</time>
      </trkpt>
      <trkpt lat="43.72668" lon="6.00223">
        <ele>541</ele>
        <time>2024-07-01T18:17:29Z</time>
      </trkpt>
      <trkpt lat="43.72674" lon="6.00209">
        <ele>541</ele>
        <time>2024-07-01T18:17:32Z</time>
      </trkpt>
      <trkpt lat="43.72679" lon="6.00201">
        <ele>541</ele>
        <time>2024-07-01T18:17:34Z</time>
      </trkpt>
      <trkpt lat="43.72685" lon="6.00195">
        <ele>541</ele>
        <time>2024-07-01T18:17:35Z</time>
      </trkpt>
      <trkpt lat="43.72695" lon="6.00173">
        <ele>541</ele>
        <time>2024-07-01T18:17:40Z</time>
      </trkpt>
      <trkpt lat="43.72697" lon="6.00164">
        <ele>541</ele>
        <time>2024-07-01T18:17:41Z</time>
      </trkpt>
      <trkpt lat="43.72704" lon="6.00155">
        <ele>541</ele>
        <time>2024-07-01T18:17:43Z</time>
      </trkpt>
      <trkpt lat="43.72712" lon="6.0015">
        <ele>541</ele>
        <time>2024-07-01T18:17:46Z</time>
      </trkpt>
      <trkpt lat="43.72715" lon="6.00141">
        <ele>540</ele>
        <time>2024-07-01T18:17:47Z</time>
      </trkpt>
      <trkpt lat="43.72683" lon="6.00124">
        <ele>540</ele>
        <time>2024-07-01T18:17:55Z</time>
      </trkpt>
      <trkpt lat="43.7268" lon="6.00112">
        <ele>540</ele>
        <time>2024-07-01T18:17:57Z</time>
      </trkpt>
      <trkpt lat="43.72682" lon="6.00074">
        <ele>539</ele>
        <time>2024-07-01T18:18:04Z</time>
      </trkpt>
      <trkpt lat="43.72685" lon="6.00056">
        <ele>538</ele>
        <time>2024-07-01T18:18:07Z</time>
      </trkpt>
      <trkpt lat="43.72691" lon="6.00039">
        <ele>538</ele>
        <time>2024-07-01T18:18:10Z</time>
      </trkpt>
      <trkpt lat="43.72687" lon="6.00032">
        <ele>537</ele>
        <time>2024-07-01T18:18:12Z</time>
      </trkpt>
      <trkpt lat="43.72677" lon="6.00021">
        <ele>537</ele>
        <time>2024-07-01T18:18:15Z</time>
      </trkpt>
      <trkpt lat="43.72661" lon="6.00017">
        <ele>537</ele>
        <time>2024-07-01T18:18:18Z</time>
      </trkpt>
      <trkpt lat="43.72615" lon="5.99981">
        <ele>535</ele>
        <time>2024-07-01T18:18:31Z</time>
      </trkpt>
      <trkpt lat="43.72599" lon="5.99961">
        <ele>535</ele>
        <time>2024-07-01T18:18:36Z</time>
      </trkpt>
      <trkpt lat="43.72588" lon="5.99955">
        <ele>535</ele>
        <time>2024-07-01T18:18:38Z</time>
      </trkpt>
      <trkpt lat="43.72581" lon="5.99947">
        <ele>535</ele>
        <time>2024-07-01T18:18:41Z</time>
      </trkpt>
      <trkpt lat="43.72587" lon="5.99945">
        <ele>535</ele>
        <time>2024-07-01T18:18:42Z</time>
      </trkpt>
      <trkpt lat="43.7259" lon="5.99947">
        <ele>535</ele>
        <time>2024-07-01T18:18:43Z</time>
      </trkpt>
      <trkpt lat="43.72609" lon="5.99929">
        <ele>535</ele>
        <time>2024-07-01T18:18:48Z</time>
      </trkpt>
      <trkpt lat="43.72617" lon="5.99917">
        <ele>535</ele>
        <time>2024-07-01T18:18:51Z</time>
      </trkpt>
      <trkpt lat="43.72621" lon="5.99899">
        <ele>535</ele>
        <time>2024-07-01T18:18:54Z</time>
      </trkpt>
      <trkpt lat="43.7263" lon="5.99886">
        <ele>535</ele>
        <time>2024-07-01T18:18:57Z</time>
      </trkpt>
      <trkpt lat="43.72636" lon="5.99866">
        <ele>534</ele>
        <time>2024-07-01T18:19:01Z</time>
      </trkpt>
      <trkpt lat="43.72647" lon="5.99847">
        <ele>533</ele>
        <time>2024-07-01T18:19:05Z</time>
      </trkpt>
      <trkpt lat="43.72655" lon="5.99817">
        <ele>532</ele>
        <time>2024-07-01T18:19:10Z</time>
      </trkpt>
      <trkpt lat="43.72667" lon="5.99795">
        <ele>532</ele>
        <time>2024-07-01T18:19:15Z</time>
      </trkpt>
      <trkpt lat="43.72668" lon="5.99789">
        <ele>532</ele>
        <time>2024-07-01T18:19:16Z</time>
      </trkpt>
      <trkpt lat="43.72669" lon="5.99761">
        <ele>532</ele>
        <time>2024-07-01T18:19:21Z</time>
      </trkpt>
      <trkpt lat="43.72674" lon="5.99745">
        <ele>532</ele>
        <time>2024-07-01T18:19:24Z</time>
      </trkpt>
      <trkpt lat="43.72681" lon="5.99735">
        <ele>532</ele>
        <time>2024-07-01T18:19:26Z</time>
      </trkpt>
      <trkpt lat="43.72684" lon="5.99733">
        <ele>532</ele>
        <time>2024-07-01T18:19:27Z</time>
      </trkpt>
      <trkpt lat="43.72695" lon="5.99739">
        <ele>532</ele>
        <time>2024-07-01T18:19:30Z</time>
      </trkpt>
      <trkpt lat="43.72704" lon="5.99742">
        <ele>532</ele>
        <time>2024-07-01T18:19:32Z</time>
      </trkpt>
      <trkpt lat="43.72711" lon="5.99742">
        <ele>532</ele>
        <time>2024-07-01T18:19:33Z</time>
      </trkpt>
      <trkpt lat="43.72718" lon="5.99739">
        <ele>532</ele>
        <time>2024-07-01T18:19:35Z</time>
      </trkpt>
      <trkpt lat="43.72735" lon="5.99725">
        <ele>532</ele>
        <time>2024-07-01T18:19:40Z</time>
      </trkpt>
      <trkpt lat="43.72745" lon="5.99712">
        <ele>532</ele>
        <time>2024-07-01T18:19:43Z</time>
      </trkpt>
      <trkpt lat="43.72752" lon="5.99691">
        <ele>531</ele>
        <time>2024-07-01T18:19:47Z</time>
      </trkpt>
      <trkpt lat="43.72758" lon="5.99689">
        <ele>531</ele>
        <time>2024-07-01T18:19:48Z</time>
      </trkpt>
      <trkpt lat="43.72775" lon="5.99687">
        <ele>531</ele>
        <time>2024-07-01T18:19:52Z</time>
      </trkpt>
      <trkpt lat="43.72793" lon="5.99669">
        <ele>532</ele>
        <time>2024-07-01T18:19:57Z</time>
      </trkpt>
      <trkpt lat="43.728" lon="5.99665">
        <ele>532</ele>
        <time>2024-07-01T18:19:59Z</time>
      </trkpt>
      <trkpt lat="43.7281" lon="5.99661">
        <ele>532</ele>
        <time>2024-07-01T18:20:02Z</time>
      </trkpt>
      <trkpt lat="43.72819" lon="5.99663">
        <ele>532</ele>
        <time>2024-07-01T18:20:04Z</time>
      </trkpt>
      <trkpt lat="43.7284" lon="5.99671">
        <ele>532</ele>
        <time>2024-07-01T18:20:09Z</time>
      </trkpt>
      <trkpt lat="43.72833" lon="5.99626">
        <ele>532</ele>
        <time>2024-07-01T18:20:17Z</time>
      </trkpt>
      <trkpt lat="43.7283" lon="5.99617">
        <ele>532</ele>
        <time>2024-07-01T18:20:18Z</time>
      </trkpt>
      <trkpt lat="43.7282" lon="5.99602">
        <ele>532</ele>
        <time>2024-07-01T18:20:22Z</time>
      </trkpt>
      <trkpt lat="43.72819" lon="5.99598">
        <ele>532</ele>
        <time>2024-07-01T18:20:22Z</time>
      </trkpt>
      <trkpt lat="43.72821" lon="5.99581">
        <ele>531</ele>
        <time>2024-07-01T18:20:25Z</time>
      </trkpt>
      <trkpt lat="43.72825" lon="5.99572">
        <ele>531</ele>
        <time>2024-07-01T18:20:27Z</time>
      </trkpt>
      <trkpt lat="43.72827" lon="5.99562">
        <ele>531</ele>
        <time>2024-07-01T18:20:29Z</time>
      </trkpt>
      <trkpt lat="43.72816" lon="5.9955">
        <ele>531</ele>
        <time>2024-07-01T18:20:32Z</time>
      </trkpt>
      <trkpt lat="43.72814" lon="5.99538">
        <ele>530</ele>
        <time>2024-07-01T18:20:34Z</time>
      </trkpt>
      <trkpt lat="43.72819" lon="5.9952">
        <ele>530</ele>
        <time>2024-07-01T18:20:37Z</time>
      </trkpt>
      <trkpt lat="43.72828" lon="5.99501">
        <ele>529</ele>
        <time>2024-07-01T18:20:41Z</time>
      </trkpt>
      <trkpt lat="43.72831" lon="5.99492">
        <ele>529</ele>
        <time>2024-07-01T18:20:43Z</time>
      </trkpt>
      <trkpt lat="43.72832" lon="5.99482">
        <ele>529</ele>
        <time>2024-07-01T18:20:45Z</time>
      </trkpt>
      <trkpt lat="43.72829" lon="5.99466">
        <ele>529</ele>
        <time>2024-07-01T18:20:47Z</time>
      </trkpt>
      <trkpt lat="43.72829" lon="5.99455">
        <ele>529</ele>
        <time>2024-07-01T18:20:49Z</time>
      </trkpt>
      <trkpt lat="43.72837" lon="5.99421">
        <ele>528</ele>
        <time>2024-07-01T18:20:55Z</time>
      </trkpt>
      <trkpt lat="43.7284" lon="5.99412">
        <ele>528</ele>
        <time>2024-07-01T18:20:57Z</time>
      </trkpt>
      <trkpt lat="43.7285" lon="5.99394">
        <ele>528</ele>
        <time>2024-07-01T18:21:01Z</time>
      </trkpt>
      <trkpt lat="43.7286" lon="5.99389">
        <ele>528</ele>
        <time>2024-07-01T18:21:03Z</time>
      </trkpt>
      <trkpt lat="43.72868" lon="5.99377">
        <ele>528</ele>
        <time>2024-07-01T18:21:06Z</time>
      </trkpt>
      <trkpt lat="43.72877" lon="5.99355">
        <ele>528</ele>
        <time>2024-07-01T18:21:10Z</time>
      </trkpt>
      <trkpt lat="43.72883" lon="5.99344">
        <ele>529</ele>
        <time>2024-07-01T18:21:13Z</time>
      </trkpt>
      <trkpt lat="43.72885" lon="5.99332">
        <ele>528</ele>
        <time>2024-07-01T18:21:15Z</time>
      </trkpt>
      <trkpt lat="43.72881" lon="5.99305">
        <ele>528</ele>
        <time>2024-07-01T18:21:19Z</time>
      </trkpt>
      <trkpt lat="43.72942" lon="5.99195">
        <ele>533</ele>
        <time>2024-07-01T18:21:43Z</time>
      </trkpt>
      <trkpt lat="43.72946" lon="5.99184">
        <ele>534</ele>
        <time>2024-07-01T18:21:45Z</time>
      </trkpt>
      <trkpt lat="43.72949" lon="5.99167">
        <ele>534</ele>
        <time>2024-07-01T18:21:48Z</time>
      </trkpt>
      <trkpt lat="43.72959" lon="5.99164">
        <ele>535</ele>
        <time>2024-07-01T18:21:50Z</time>
      </trkpt>
      <trkpt lat="43.72969" lon="5.9917">
        <ele>535</ele>
        <time>2024-07-01T18:21:53Z</time>
      </trkpt>
      <trkpt lat="43.72983" lon="5.99166">
        <ele>535</ele>
        <time>2024-07-01T18:21:56Z</time>
      </trkpt>
      <trkpt lat="43.73003" lon="5.99178">
        <ele>536</ele>
        <time>2024-07-01T18:22:01Z</time>
      </trkpt>
      <trkpt lat="43.73019" lon="5.99181">
        <ele>535</ele>
        <time>2024-07-01T18:22:05Z</time>
      </trkpt>
      <trkpt lat="43.73026" lon="5.99193">
        <ele>535</ele>
        <time>2024-07-01T18:22:08Z</time>
      </trkpt>
      <trkpt lat="43.73041" lon="5.99206">
        <ele>534</ele>
        <time>2024-07-01T18:22:12Z</time>
      </trkpt>
      <trkpt lat="43.73073" lon="5.99229">
        <ele>534</ele>
        <time>2024-07-01T18:22:20Z</time>
      </trkpt>
      <trkpt lat="43.73107" lon="5.99139">
        <ele>532</ele>
        <time>2024-07-01T18:22:37Z</time>
      </trkpt>
      <trkpt lat="43.73115" lon="5.99103">
        <ele>531</ele>
        <time>2024-07-01T18:22:44Z</time>
      </trkpt>
      <trkpt lat="43.73116" lon="5.99084">
        <ele>531</ele>
        <time>2024-07-01T18:22:47Z</time>
      </trkpt>
      <trkpt lat="43.73123" lon="5.99054">
        <ele>530</ele>
        <time>2024-07-01T18:22:52Z</time>
      </trkpt>
      <trkpt lat="43.73157" lon="5.98987">
        <ele>528</ele>
        <time>2024-07-01T18:23:06Z</time>
      </trkpt>
      <trkpt lat="43.73173" lon="5.9897">
        <ele>528</ele>
        <time>2024-07-01T18:23:11Z</time>
      </trkpt>
      <trkpt lat="43.73185" lon="5.98971">
        <ele>527</ele>
        <time>2024-07-01T18:23:14Z</time>
      </trkpt>
      <trkpt lat="43.7323" lon="5.98966">
        <ele>523</ele>
        <time>2024-07-01T18:23:24Z</time>
      </trkpt>
      <trkpt lat="43.73254" lon="5.98959">
        <ele>521</ele>
        <time>2024-07-01T18:23:30Z</time>
      </trkpt>
      <trkpt lat="43.73275" lon="5.98943">
        <ele>517</ele>
        <time>2024-07-01T18:23:35Z</time>
      </trkpt>
      <trkpt lat="43.73286" lon="5.98927">
        <ele>515</ele>
        <time>2024-07-01T18:23:39Z</time>
      </trkpt>
      <trkpt lat="43.73296" lon="5.9891">
        <ele>513</ele>
        <time>2024-07-01T18:23:43Z</time>
      </trkpt>
      <trkpt lat="43.73318" lon="5.98881">
        <ele>510</ele>
        <time>2024-07-01T18:23:50Z</time>
      </trkpt>
      <trkpt lat="43.73346" lon="5.98837">
        <ele>508</ele>
        <time>2024-07-01T18:24:00Z</time>
      </trkpt>
      <trkpt lat="43.73358" lon="5.98824">
        <ele>505</ele>
        <time>2024-07-01T18:24:03Z</time>
      </trkpt>
      <trkpt lat="43.73384" lon="5.9881">
        <ele>498</ele>
        <time>2024-07-01T18:24:10Z</time>
      </trkpt>
      <trkpt lat="43.73417" lon="5.98783">
        <ele>490</ele>
        <time>2024-07-01T18:24:19Z</time>
      </trkpt>
      <trkpt lat="43.73441" lon="5.98768">
        <ele>486</ele>
        <time>2024-07-01T18:24:25Z</time>
      </trkpt>
      <trkpt lat="43.73485" lon="5.98754">
        <ele>478</ele>
        <time>2024-07-01T18:24:36Z</time>
      </trkpt>
      <trkpt lat="43.73525" lon="5.98726">
        <ele>470</ele>
        <time>2024-07-01T18:24:46Z</time>
      </trkpt>
      <trkpt lat="43.73538" lon="5.9872">
        <ele>467</ele>
        <time>2024-07-01T18:24:49Z</time>
      </trkpt>
      <trkpt lat="43.73569" lon="5.98689">
        <ele>460</ele>
        <time>2024-07-01T18:24:58Z</time>
      </trkpt>
      <trkpt lat="43.73577" lon="5.98686">
        <ele>459</ele>
        <time>2024-07-01T18:25:00Z</time>
      </trkpt>
      <trkpt lat="43.73589" lon="5.98686">
        <ele>457</ele>
        <time>2024-07-01T18:25:03Z</time>
      </trkpt>
      <trkpt lat="43.7361" lon="5.98666">
        <ele>456</ele>
        <time>2024-07-01T18:25:09Z</time>
      </trkpt>
      <trkpt lat="43.73636" lon="5.98636">
        <ele>454</ele>
        <time>2024-07-01T18:25:17Z</time>
      </trkpt>
      <trkpt lat="43.73653" lon="5.98606">
        <ele>452</ele>
        <time>2024-07-01T18:25:23Z</time>
      </trkpt>
      <trkpt lat="43.73663" lon="5.98587">
        <ele>451</ele>
        <time>2024-07-01T18:25:27Z</time>
      </trkpt>
      <trkpt lat="43.73669" lon="5.98596">
        <ele>451</ele>
        <time>2024-07-01T18:25:29Z</time>
      </trkpt>
      <trkpt lat="43.73663" lon="5.98587">
        <ele>451</ele>
        <time>2024-07-01T18:25:31Z</time>
      </trkpt>
      <trkpt lat="43.73699" lon="5.98525">
        <ele>452</ele>
        <time>2024-07-01T18:25:45Z</time>
      </trkpt>
      <trkpt lat="43.73728" lon="5.98455">
        <ele>452</ele>
        <time>2024-07-01T18:25:58Z</time>
      </trkpt>
      <trkpt lat="43.73745" lon="5.9838">
        <ele>445</ele>
        <time>2024-07-01T18:26:12Z</time>
      </trkpt>
      <trkpt lat="43.73749" lon="5.98369">
        <ele>444</ele>
        <time>2024-07-01T18:26:14Z</time>
      </trkpt>
      <trkpt lat="43.73758" lon="5.98372">
        <ele>446</ele>
        <time>2024-07-01T18:26:16Z</time>
      </trkpt>
      <trkpt lat="43.73802" lon="5.98315">
        <ele>444</ele>
        <time>2024-07-01T18:26:30Z</time>
      </trkpt>
      <trkpt lat="43.7381" lon="5.98312">
        <ele>444</ele>
        <time>2024-07-01T18:26:32Z</time>
      </trkpt>
      <trkpt lat="43.73816" lon="5.98313">
        <ele>445</ele>
        <time>2024-07-01T18:26:33Z</time>
      </trkpt>
      <trkpt lat="43.73817" lon="5.98316">
        <ele>445</ele>
        <time>2024-07-01T18:26:34Z</time>
      </trkpt>
      <trkpt lat="43.7382" lon="5.98305">
        <ele>444</ele>
        <time>2024-07-01T18:26:36Z</time>
      </trkpt>
      <trkpt lat="43.7382" lon="5.98294">
        <ele>443</ele>
        <time>2024-07-01T18:26:38Z</time>
      </trkpt>
      <trkpt lat="43.73826" lon="5.9828">
        <ele>442</ele>
        <time>2024-07-01T18:26:40Z</time>
      </trkpt>
      <trkpt lat="43.73826" lon="5.98272">
        <ele>441</ele>
        <time>2024-07-01T18:26:42Z</time>
      </trkpt>
      <trkpt lat="43.73828" lon="5.98255">
        <ele>439</ele>
        <time>2024-07-01T18:26:45Z</time>
      </trkpt>
      <trkpt lat="43.73838" lon="5.98231">
        <ele>437</ele>
        <time>2024-07-01T18:26:49Z</time>
      </trkpt>
      <trkpt lat="43.73846" lon="5.98218">
        <ele>436</ele>
        <time>2024-07-01T18:26:52Z</time>
      </trkpt>
      <trkpt lat="43.73864" lon="5.98206">
        <ele>433</ele>
        <time>2024-07-01T18:26:57Z</time>
      </trkpt>
      <trkpt lat="43.73871" lon="5.98192">
        <ele>432</ele>
        <time>2024-07-01T18:27:00Z</time>
      </trkpt>
      <trkpt lat="43.73872" lon="5.98177">
        <ele>431</ele>
        <time>2024-07-01T18:27:02Z</time>
      </trkpt>
      <trkpt lat="43.73867" lon="5.9815">
        <ele>429</ele>
        <time>2024-07-01T18:27:07Z</time>
      </trkpt>
      <trkpt lat="43.73866" lon="5.98136">
        <ele>428</ele>
        <time>2024-07-01T18:27:09Z</time>
      </trkpt>
      <trkpt lat="43.73861" lon="5.98121">
        <ele>428</ele>
        <time>2024-07-01T18:27:12Z</time>
      </trkpt>
      <trkpt lat="43.73851" lon="5.98098">
        <ele>427</ele>
        <time>2024-07-01T18:27:17Z</time>
      </trkpt>
      <trkpt lat="43.73856" lon="5.98071">
        <ele>425</ele>
        <time>2024-07-01T18:27:21Z</time>
      </trkpt>
      <trkpt lat="43.73854" lon="5.98054">
        <ele>425</ele>
        <time>2024-07-01T18:27:24Z</time>
      </trkpt>
      <trkpt lat="43.73827" lon="5.97953">
        <ele>420</ele>
        <time>2024-07-01T18:27:42Z</time>
      </trkpt>
      <trkpt lat="43.73824" lon="5.97933">
        <ele>419</ele>
        <time>2024-07-01T18:27:46Z</time>
      </trkpt>
      <trkpt lat="43.73826" lon="5.97915">
        <ele>417</ele>
        <time>2024-07-01T18:27:49Z</time>
      </trkpt>
      <trkpt lat="43.7383" lon="5.97906">
        <ele>416</ele>
        <time>2024-07-01T18:27:51Z</time>
      </trkpt>
      <trkpt lat="43.73847" lon="5.97885">
        <ele>413</ele>
        <time>2024-07-01T18:27:56Z</time>
      </trkpt>
      <trkpt lat="43.73874" lon="5.97862">
        <ele>411</ele>
        <time>2024-07-01T18:28:03Z</time>
      </trkpt>
      <trkpt lat="43.73909" lon="5.97847">
        <ele>411</ele>
        <time>2024-07-01T18:28:12Z</time>
      </trkpt>
      <trkpt lat="43.73918" lon="5.97848">
        <ele>411</ele>
        <time>2024-07-01T18:28:14Z</time>
      </trkpt>
      <trkpt lat="43.73924" lon="5.97852">
        <ele>410</ele>
        <time>2024-07-01T18:28:16Z</time>
      </trkpt>
      <trkpt lat="43.73927" lon="5.97857">
        <ele>410</ele>
        <time>2024-07-01T18:28:17Z</time>
      </trkpt>
      <trkpt lat="43.7393" lon="5.97867">
        <ele>410</ele>
        <time>2024-07-01T18:28:19Z</time>
      </trkpt>
      <trkpt lat="43.73935" lon="5.97899">
        <ele>411</ele>
        <time>2024-07-01T18:28:24Z</time>
      </trkpt>
      <trkpt lat="43.73937" lon="5.97905">
        <ele>412</ele>
        <time>2024-07-01T18:28:25Z</time>
      </trkpt>
      <trkpt lat="43.73942" lon="5.97908">
        <ele>411</ele>
        <time>2024-07-01T18:28:27Z</time>
      </trkpt>
      <trkpt lat="43.73947" lon="5.97906">
        <ele>410</ele>
        <time>2024-07-01T18:28:28Z</time>
      </trkpt>
      <trkpt lat="43.73951" lon="5.97893">
        <ele>408</ele>
        <time>2024-07-01T18:28:30Z</time>
      </trkpt>
      <trkpt lat="43.73952" lon="5.97871">
        <ele>407</ele>
        <time>2024-07-01T18:28:34Z</time>
      </trkpt>
      <trkpt lat="43.73951" lon="5.97849">
        <ele>405</ele>
        <time>2024-07-01T18:28:38Z</time>
      </trkpt>
      <trkpt lat="43.73948" lon="5.97839">
        <ele>405</ele>
        <time>2024-07-01T18:28:39Z</time>
      </trkpt>
      <trkpt lat="43.7394" lon="5.97823">
        <ele>404</ele>
        <time>2024-07-01T18:28:43Z</time>
      </trkpt>
      <trkpt lat="43.73933" lon="5.97817">
        <ele>404</ele>
        <time>2024-07-01T18:28:45Z</time>
      </trkpt>
      <trkpt lat="43.73917" lon="5.97811">
        <ele>405</ele>
        <time>2024-07-01T18:28:48Z</time>
      </trkpt>
      <trkpt lat="43.73903" lon="5.97809">
        <ele>405</ele>
        <time>2024-07-01T18:28:52Z</time>
      </trkpt>
      <trkpt lat="43.73881" lon="5.97816">
        <ele>406</ele>
        <time>2024-07-01T18:28:57Z</time>
      </trkpt>
      <trkpt lat="43.73857" lon="5.97827">
        <ele>406</ele>
        <time>2024-07-01T18:29:03Z</time>
      </trkpt>
      <trkpt lat="43.73847" lon="5.97829">
        <ele>406</ele>
        <time>2024-07-01T18:29:05Z</time>
      </trkpt>
      <trkpt lat="43.7384" lon="5.97824">
        <ele>405</ele>
        <time>2024-07-01T18:29:07Z</time>
      </trkpt>
      <trkpt lat="43.73838" lon="5.97816">
        <ele>405</ele>
        <time>2024-07-01T18:29:09Z</time>
      </trkpt>
      <trkpt lat="43.73839" lon="5.97807">
        <ele>404</ele>
        <time>2024-07-01T18:29:10Z</time>
      </trkpt>
      <trkpt lat="43.73853" lon="5.97775">
        <ele>400</ele>
        <time>2024-07-01T18:29:16Z</time>
      </trkpt>
      <trkpt lat="43.7389" lon="5.97648">
        <ele>392</ele>
        <time>2024-07-01T18:29:39Z</time>
      </trkpt>
      <trkpt lat="43.739" lon="5.97617">
        <ele>391</ele>
        <time>2024-07-01T18:29:45Z</time>
      </trkpt>
      <trkpt lat="43.73912" lon="5.97602">
        <ele>391</ele>
        <time>2024-07-01T18:29:49Z</time>
      </trkpt>
      <trkpt lat="43.73919" lon="5.97599">
        <ele>390</ele>
        <time>2024-07-01T18:29:51Z</time>
      </trkpt>
      <trkpt lat="43.73934" lon="5.97573">
        <ele>388</ele>
        <time>2024-07-01T18:29:56Z</time>
      </trkpt>
      <trkpt lat="43.73933" lon="5.97547">
        <ele>386</ele>
        <time>2024-07-01T18:30:01Z</time>
      </trkpt>
      <trkpt lat="43.73939" lon="5.97536">
        <ele>385</ele>
        <time>2024-07-01T18:30:03Z</time>
      </trkpt>
      <trkpt lat="43.73945" lon="5.97527">
        <ele>384</ele>
        <time>2024-07-01T18:30:05Z</time>
      </trkpt>
      <trkpt lat="43.73947" lon="5.97517">
        <ele>383</ele>
        <time>2024-07-01T18:30:07Z</time>
      </trkpt>
      <trkpt lat="43.73957" lon="5.97521">
        <ele>383</ele>
        <time>2024-07-01T18:30:09Z</time>
      </trkpt>
      <trkpt lat="43.73959" lon="5.9752">
        <ele>383</ele>
        <time>2024-07-01T18:30:10Z</time>
      </trkpt>
      <trkpt lat="43.73961" lon="5.97515">
        <ele>383</ele>
        <time>2024-07-01T18:30:11Z</time>
      </trkpt>
      <trkpt lat="43.73963" lon="5.97514">
        <ele>383</ele>
        <time>2024-07-01T18:30:11Z</time>
      </trkpt>
      <trkpt lat="43.73968" lon="5.97517">
        <ele>383</ele>
        <time>2024-07-01T18:30:13Z</time>
      </trkpt>
      <trkpt lat="43.73968" lon="5.97514">
        <ele>383</ele>
        <time>2024-07-01T18:30:13Z</time>
      </trkpt>
      <trkpt lat="43.73972" lon="5.97507">
        <ele>383</ele>
        <time>2024-07-01T18:30:15Z</time>
      </trkpt>
      <trkpt lat="43.7397" lon="5.97504">
        <ele>383</ele>
        <time>2024-07-01T18:30:15Z</time>
      </trkpt>
      <trkpt lat="43.73976" lon="5.97481">
        <ele>384</ele>
        <time>2024-07-01T18:30:19Z</time>
      </trkpt>
      <trkpt lat="43.73984" lon="5.97467">
        <ele>386</ele>
        <time>2024-07-01T18:30:22Z</time>
      </trkpt>
      <trkpt lat="43.73991" lon="5.97465">
        <ele>386</ele>
        <time>2024-07-01T18:30:24Z</time>
      </trkpt>
      <trkpt lat="43.73998" lon="5.97468">
        <ele>386</ele>
        <time>2024-07-01T18:30:26Z</time>
      </trkpt>
      <trkpt lat="43.74019" lon="5.97505">
        <ele>388</ele>
        <time>2024-07-01T18:30:34Z</time>
      </trkpt>
      <trkpt lat="43.74023" lon="5.97499">
        <ele>390</ele>
        <time>2024-07-01T18:30:35Z</time>
      </trkpt>
      <trkpt lat="43.74015" lon="5.97484">
        <ele>389</ele>
        <time>2024-07-01T18:30:38Z</time>
      </trkpt>
      <trkpt lat="43.74015" lon="5.97465">
        <ele>390</ele>
        <time>2024-07-01T18:30:41Z</time>
      </trkpt>
      <trkpt lat="43.74027" lon="5.97485">
        <ele>392</ele>
        <time>2024-07-01T18:30:46Z</time>
      </trkpt>
      <trkpt lat="43.74029" lon="5.97484">
        <ele>393</ele>
        <time>2024-07-01T18:30:46Z</time>
      </trkpt>
      <trkpt lat="43.74018" lon="5.97444">
        <ele>392</ele>
        <time>2024-07-01T18:30:54Z</time>
      </trkpt>
      <trkpt lat="43.74028" lon="5.97437">
        <ele>395</ele>
        <time>2024-07-01T18:30:56Z</time>
      </trkpt>
      <trkpt lat="43.74035" lon="5.97426">
        <ele>397</ele>
        <time>2024-07-01T18:30:59Z</time>
      </trkpt>
      <trkpt lat="43.74051" lon="5.97386">
        <ele>403</ele>
        <time>2024-07-01T18:31:06Z</time>
      </trkpt>
      <trkpt lat="43.74074" lon="5.97389">
        <ele>406</ele>
        <time>2024-07-01T18:31:12Z</time>
      </trkpt>
      <trkpt lat="43.74089" lon="5.97386">
        <ele>409</ele>
        <time>2024-07-01T18:31:15Z</time>
      </trkpt>
      <trkpt lat="43.7411" lon="5.97387">
        <ele>412</ele>
        <time>2024-07-01T18:31:20Z</time>
      </trkpt>
      <trkpt lat="43.74115" lon="5.97381">
        <ele>413</ele>
        <time>2024-07-01T18:31:22Z</time>
      </trkpt>
      <trkpt lat="43.74131" lon="5.97374">
        <ele>416</ele>
        <time>2024-07-01T18:31:26Z</time>
      </trkpt>
      <trkpt lat="43.74145" lon="5.97365">
        <ele>418</ele>
        <time>2024-07-01T18:31:29Z</time>
      </trkpt>
      <trkpt lat="43.74181" lon="5.97374">
        <ele>422</ele>
        <time>2024-07-01T18:31:38Z</time>
      </trkpt>
      <trkpt lat="43.74235" lon="5.97372">
        <ele>425</ele>
        <time>2024-07-01T18:31:50Z</time>
      </trkpt>
      <trkpt lat="43.74256" lon="5.97368">
        <ele>427</ele>
        <time>2024-07-01T18:31:55Z</time>
      </trkpt>
      <trkpt lat="43.7427" lon="5.97382">
        <ele>429</ele>
        <time>2024-07-01T18:31:59Z</time>
      </trkpt>
      <trkpt lat="43.74268" lon="5.97388">
        <ele>429</ele>
        <time>2024-07-01T18:32:00Z</time>
      </trkpt>
      <trkpt lat="43.74265" lon="5.97391">
        <ele>429</ele>
        <time>2024-07-01T18:32:01Z</time>
      </trkpt>
      <trkpt lat="43.74233" lon="5.97398">
        <ele>426</ele>
        <time>2024-07-01T18:32:09Z</time>
      </trkpt>
      <trkpt lat="43.74215" lon="5.97404">
        <ele>425</ele>
        <time>2024-07-01T18:32:13Z</time>
      </trkpt>
      <trkpt lat="43.74239" lon="5.97414">
        <ele>427</ele>
        <time>2024-07-01T18:32:19Z</time>
      </trkpt>
      <trkpt lat="43.74245" lon="5.97424">
        <ele>429</ele>
        <time>2024-07-01T18:32:21Z</time>
      </trkpt>
      <trkpt lat="43.74247" lon="5.97433">
        <ele>430</ele>
        <time>2024-07-01T18:32:23Z</time>
      </trkpt>
      <trkpt lat="43.74248" lon="5.97451">
        <ele>433</ele>
        <time>2024-07-01T18:32:26Z</time>
      </trkpt>
      <trkpt lat="43.74256" lon="5.97512">
        <ele>441</ele>
        <time>2024-07-01T18:32:36Z</time>
      </trkpt>
      <trkpt lat="43.74262" lon="5.97547">
        <ele>442</ele>
        <time>2024-07-01T18:32:42Z</time>
      </trkpt>
      <trkpt lat="43.74267" lon="5.9756">
        <ele>443</ele>
        <time>2024-07-01T18:32:45Z</time>
      </trkpt>
      <trkpt lat="43.74284" lon="5.97586">
        <ele>446</ele>
        <time>2024-07-01T18:32:51Z</time>
      </trkpt>
      <trkpt lat="43.74309" lon="5.97612">
        <ele>448</ele>
        <time>2024-07-01T18:32:58Z</time>
      </trkpt>
      <trkpt lat="43.74316" lon="5.97599">
        <ele>449</ele>
        <time>2024-07-01T18:33:01Z</time>
      </trkpt>
      <trkpt lat="43.74326" lon="5.97609">
        <ele>451</ele>
        <time>2024-07-01T18:33:04Z</time>
      </trkpt>
      <trkpt lat="43.7434" lon="5.9762">
        <ele>453</ele>
        <time>2024-07-01T18:33:08Z</time>
      </trkpt>
      <trkpt lat="43.74406" lon="5.97643">
        <ele>464</ele>
        <time>2024-07-01T18:33:23Z</time>
      </trkpt>
      <trkpt lat="43.74424" lon="5.97647">
        <ele>467</ele>
        <time>2024-07-01T18:33:28Z</time>
      </trkpt>
      <trkpt lat="43.74466" lon="5.9766">
        <ele>474</ele>
        <time>2024-07-01T18:33:38Z</time>
      </trkpt>
      <trkpt lat="43.74487" lon="5.97663">
        <ele>477</ele>
        <time>2024-07-01T18:33:43Z</time>
      </trkpt>
      <trkpt lat="43.74496" lon="5.97669">
        <ele>478</ele>
        <time>2024-07-01T18:33:45Z</time>
      </trkpt>
      <trkpt lat="43.74518" lon="5.97688">
        <ele>477</ele>
        <time>2024-07-01T18:33:51Z</time>
      </trkpt>
      <trkpt lat="43.74539" lon="5.97726">
        <ele>472</ele>
        <time>2024-07-01T18:33:59Z</time>
      </trkpt>
      <trkpt lat="43.74548" lon="5.97757">
        <ele>469</ele>
        <time>2024-07-01T18:34:05Z</time>
      </trkpt>
      <trkpt lat="43.74552" lon="5.97804">
        <ele>470</ele>
        <time>2024-07-01T18:34:13Z</time>
      </trkpt>
      <trkpt lat="43.74553" lon="5.97785">
        <ele>470</ele>
        <time>2024-07-01T18:34:16Z</time>
      </trkpt>
      <trkpt lat="43.74562" lon="5.97755">
        <ele>470</ele>
        <time>2024-07-01T18:34:21Z</time>
      </trkpt>
      <trkpt lat="43.74566" lon="5.97748">
        <ele>470</ele>
        <time>2024-07-01T18:34:23Z</time>
      </trkpt>
      <trkpt lat="43.7457" lon="5.97749">
        <ele>471</ele>
        <time>2024-07-01T18:34:24Z</time>
      </trkpt>
      <trkpt lat="43.74573" lon="5.97753">
        <ele>471</ele>
        <time>2024-07-01T18:34:25Z</time>
      </trkpt>
      <trkpt lat="43.74569" lon="5.97771">
        <ele>471</ele>
        <time>2024-07-01T18:34:28Z</time>
      </trkpt>
      <trkpt lat="43.74571" lon="5.97785">
        <ele>471</ele>
        <time>2024-07-01T18:34:30Z</time>
      </trkpt>
      <trkpt lat="43.74582" lon="5.97794">
        <ele>471</ele>
        <time>2024-07-01T18:34:33Z</time>
      </trkpt>
      <trkpt lat="43.74602" lon="5.97791">
        <ele>469</ele>
        <time>2024-07-01T18:34:38Z</time>
      </trkpt>
      <trkpt lat="43.74612" lon="5.97787">
        <ele>468</ele>
        <time>2024-07-01T18:34:41Z</time>
      </trkpt>
      <trkpt lat="43.74624" lon="5.97776">
        <ele>466</ele>
        <time>2024-07-01T18:34:44Z</time>
      </trkpt>
      <trkpt lat="43.74635" lon="5.97773">
        <ele>465</ele>
        <time>2024-07-01T18:34:47Z</time>
      </trkpt>
      <trkpt lat="43.74665" lon="5.97784">
        <ele>462</ele>
        <time>2024-07-01T18:34:54Z</time>
      </trkpt>
      <trkpt lat="43.74686" lon="5.97785">
        <ele>460</ele>
        <time>2024-07-01T18:34:59Z</time>
      </trkpt>
      <trkpt lat="43.747" lon="5.97789">
        <ele>458</ele>
        <time>2024-07-01T18:35:02Z</time>
      </trkpt>
      <trkpt lat="43.74734" lon="5.97818">
        <ele>454</ele>
        <time>2024-07-01T18:35:11Z</time>
      </trkpt>
      <trkpt lat="43.7475" lon="5.97824">
        <ele>452</ele>
        <time>2024-07-01T18:35:15Z</time>
      </trkpt>
      <trkpt lat="43.7477" lon="5.97823">
        <ele>450</ele>
        <time>2024-07-01T18:35:20Z</time>
      </trkpt>
      <trkpt lat="43.74781" lon="5.97811">
        <ele>450</ele>
        <time>2024-07-01T18:35:23Z</time>
      </trkpt>
      <trkpt lat="43.74797" lon="5.97805">
        <ele>450</ele>
        <time>2024-07-01T18:35:27Z</time>
      </trkpt>
      <trkpt lat="43.74815" lon="5.97802">
        <ele>449</ele>
        <time>2024-07-01T18:35:31Z</time>
      </trkpt>
      <trkpt lat="43.74877" lon="5.97816">
        <ele>442</ele>
        <time>2024-07-01T18:35:46Z</time>
      </trkpt>
      <trkpt lat="43.74908" lon="5.97821">
        <ele>439</ele>
        <time>2024-07-01T18:35:53Z</time>
      </trkpt>
      <trkpt lat="43.74956" lon="5.97821">
        <ele>432</ele>
        <time>2024-07-01T18:36:04Z</time>
      </trkpt>
      <trkpt lat="43.74989" lon="5.97831">
        <ele>428</ele>
        <time>2024-07-01T18:36:12Z</time>
      </trkpt>
      <trkpt lat="43.74998" lon="5.97826">
        <ele>426</ele>
        <time>2024-07-01T18:36:15Z</time>
      </trkpt>
      <trkpt lat="43.75002" lon="5.97814">
        <ele>425</ele>
        <time>2024-07-01T18:36:17Z</time>
      </trkpt>
      <trkpt lat="43.75" lon="5.97797">
        <ele>425</ele>
        <time>2024-07-01T18:36:20Z</time>
      </trkpt>
      <trkpt lat="43.75002" lon="5.9778">
        <ele>424</ele>
        <time>2024-07-01T18:36:23Z</time>
      </trkpt>
      <trkpt lat="43.75011" lon="5.97765">
        <ele>422</ele>
        <time>2024-07-01T18:36:26Z</time>
      </trkpt>
      <trkpt lat="43.7502" lon="5.9778">
        <ele>422</ele>
        <time>2024-07-01T18:36:29Z</time>
      </trkpt>
      <trkpt lat="43.75011" lon="5.97765">
        <ele>422</ele>
        <time>2024-07-01T18:36:33Z</time>
      </trkpt>
      <trkpt lat="43.75002" lon="5.97722">
        <ele>422</ele>
        <time>2024-07-01T18:36:40Z</time>
      </trkpt>
      <trkpt lat="43.74994" lon="5.97695">
        <ele>422</ele>
        <time>2024-07-01T18:36:45Z</time>
      </trkpt>
      <trkpt lat="43.74992" lon="5.97663">
        <ele>422</ele>
        <time>2024-07-01T18:36:50Z</time>
      </trkpt>
      <trkpt lat="43.74976" lon="5.97582">
        <ele>425</ele>
        <time>2024-07-01T18:37:05Z</time>
      </trkpt>
      <trkpt lat="43.74974" lon="5.975">
        <ele>424</ele>
        <time>2024-07-01T18:37:18Z</time>
      </trkpt>
      <trkpt lat="43.74977" lon="5.97424">
        <ele>420</ele>
        <time>2024-07-01T18:37:31Z</time>
      </trkpt>
      <trkpt lat="43.74975" lon="5.97389">
        <ele>421</ele>
        <time>2024-07-01T18:37:37Z</time>
      </trkpt>
      <trkpt lat="43.74966" lon="5.97362">
        <ele>423</ele>
        <time>2024-07-01T18:37:42Z</time>
      </trkpt>
      <trkpt lat="43.74968" lon="5.97299">
        <ele>423</ele>
        <time>2024-07-01T18:37:53Z</time>
      </trkpt>
      <trkpt lat="43.74964" lon="5.97238">
        <ele>425</ele>
        <time>2024-07-01T18:38:03Z</time>
      </trkpt>
      <trkpt lat="43.74964" lon="5.97201">
        <ele>425</ele>
        <time>2024-07-01T18:38:09Z</time>
      </trkpt>
      <trkpt lat="43.74985" lon="5.97074">
        <ele>416</ele>
        <time>2024-07-01T18:38:31Z</time>
      </trkpt>
      <trkpt lat="43.74987" lon="5.97052">
        <ele>414</ele>
        <time>2024-07-01T18:38:35Z</time>
      </trkpt>
      <trkpt lat="43.74984" lon="5.97025">
        <ele>412</ele>
        <time>2024-07-01T18:38:40Z</time>
      </trkpt>
      <trkpt lat="43.74973" lon="5.96991">
        <ele>412</ele>
        <time>2024-07-01T18:38:46Z</time>
      </trkpt>
      <trkpt lat="43.74977" lon="5.96972">
        <ele>412</ele>
        <time>2024-07-01T18:38:49Z</time>
      </trkpt>
      <trkpt lat="43.74982" lon="5.96954">
        <ele>412</ele>
        <time>2024-07-01T18:38:53Z</time>
      </trkpt>
      <trkpt lat="43.75001" lon="5.96954">
        <ele>408</ele>
        <time>2024-07-01T18:38:57Z</time>
      </trkpt>
      <trkpt lat="43.75046" lon="5.96945">
        <ele>403</ele>
        <time>2024-07-01T18:39:08Z</time>
      </trkpt>
      <trkpt lat="43.75062" lon="5.96944">
        <ele>401</ele>
        <time>2024-07-01T18:39:11Z</time>
      </trkpt>
      <trkpt lat="43.75076" lon="5.96948">
        <ele>400</ele>
        <time>2024-07-01T18:39:15Z</time>
      </trkpt>
      <trkpt lat="43.75089" lon="5.96948">
        <ele>399</ele>
        <time>2024-07-01T18:39:18Z</time>
      </trkpt>
      <trkpt lat="43.75106" lon="5.96943">
        <ele>401</ele>
        <time>2024-07-01T18:39:22Z</time>
      </trkpt>
      <trkpt lat="43.75118" lon="5.96935">
        <ele>401</ele>
        <time>2024-07-01T18:39:25Z</time>
      </trkpt>
      <trkpt lat="43.75122" lon="5.96926">
        <ele>401</ele>
        <time>2024-07-01T18:39:27Z</time>
      </trkpt>
      <trkpt lat="43.75133" lon="5.96915">
        <ele>401</ele>
        <time>2024-07-01T18:39:30Z</time>
      </trkpt>
      <trkpt lat="43.75136" lon="5.96918">
        <ele>402</ele>
        <time>2024-07-01T18:39:31Z</time>
      </trkpt>
      <trkpt lat="43.75132" lon="5.96932">
        <ele>402</ele>
        <time>2024-07-01T18:39:33Z</time>
      </trkpt>
      <trkpt lat="43.7513" lon="5.96949">
        <ele>402</ele>
        <time>2024-07-01T18:39:36Z</time>
      </trkpt>
      <trkpt lat="43.75132" lon="5.96954">
        <ele>403</ele>
        <time>2024-07-01T18:39:37Z</time>
      </trkpt>
      <trkpt lat="43.75155" lon="5.96968">
        <ele>405</ele>
        <time>2024-07-01T18:39:43Z</time>
      </trkpt>
      <trkpt lat="43.75188" lon="5.96978">
        <ele>409</ele>
        <time>2024-07-01T18:39:51Z</time>
      </trkpt>
      <trkpt lat="43.75199" lon="5.96978">
        <ele>410</ele>
        <time>2024-07-01T18:39:53Z</time>
      </trkpt>
      <trkpt lat="43.75209" lon="5.96973">
        <ele>410</ele>
        <time>2024-07-01T18:39:56Z</time>
      </trkpt>
      <trkpt lat="43.75219" lon="5.96961">
        <ele>411</ele>
        <time>2024-07-01T18:39:59Z</time>
      </trkpt>
      <trkpt lat="43.75237" lon="5.9696">
        <ele>413</ele>
        <time>2024-07-01T18:40:03Z</time>
      </trkpt>
      <trkpt lat="43.75288" lon="5.96965">
        <ele>420</ele>
        <time>2024-07-01T18:40:15Z</time>
      </trkpt>
      <trkpt lat="43.75303" lon="5.96962">
        <ele>422</ele>
        <time>2024-07-01T18:40:19Z</time>
      </trkpt>
      <trkpt lat="43.75273" lon="5.96948">
        <ele>419</ele>
        <time>2024-07-01T18:40:26Z</time>
      </trkpt>
      <trkpt lat="43.7526" lon="5.96929">
        <ele>418</ele>
        <time>2024-07-01T18:40:31Z</time>
      </trkpt>
      <trkpt lat="43.75256" lon="5.96907">
        <ele>417</ele>
        <time>2024-07-01T18:40:34Z</time>
      </trkpt>
      <trkpt lat="43.75258" lon="5.96884">
        <ele>416</ele>
        <time>2024-07-01T18:40:38Z</time>
      </trkpt>
      <trkpt lat="43.75261" lon="5.96862">
        <ele>416</ele>
        <time>2024-07-01T18:40:42Z</time>
      </trkpt>
      <trkpt lat="43.75267" lon="5.96843">
        <ele>416</ele>
        <time>2024-07-01T18:40:46Z</time>
      </trkpt>
      <trkpt lat="43.75281" lon="5.96802">
        <ele>416</ele>
        <time>2024-07-01T18:40:53Z</time>
      </trkpt>
      <trkpt lat="43.75288" lon="5.96786">
        <ele>417</ele>
        <time>2024-07-01T18:40:56Z</time>
      </trkpt>
      <trkpt lat="43.75295" lon="5.96775">
        <ele>418</ele>
        <time>2024-07-01T18:40:59Z</time>
      </trkpt>
      <trkpt lat="43.75302" lon="5.96768">
        <ele>419</ele>
        <time>2024-07-01T18:41:01Z</time>
      </trkpt>
      <trkpt lat="43.75306" lon="5.9676">
        <ele>420</ele>
        <time>2024-07-01T18:41:03Z</time>
      </trkpt>
      <trkpt lat="43.75306" lon="5.96752">
        <ele>419</ele>
        <time>2024-07-01T18:41:04Z</time>
      </trkpt>
      <trkpt lat="43.75273" lon="5.96663">
        <ele>412</ele>
        <time>2024-07-01T18:41:21Z</time>
      </trkpt>
      <trkpt lat="43.75271" lon="5.9664">
        <ele>410</ele>
        <time>2024-07-01T18:41:25Z</time>
      </trkpt>
      <trkpt lat="43.75275" lon="5.96591">
        <ele>409</ele>
        <time>2024-07-01T18:41:33Z</time>
      </trkpt>
      <trkpt lat="43.75279" lon="5.96572">
        <ele>409</ele>
        <time>2024-07-01T18:41:36Z</time>
      </trkpt>
      <trkpt lat="43.75286" lon="5.96554">
        <ele>410</ele>
        <time>2024-07-01T18:41:40Z</time>
      </trkpt>
      <trkpt lat="43.753" lon="5.96537">
        <ele>412</ele>
        <time>2024-07-01T18:41:44Z</time>
      </trkpt>
      <trkpt lat="43.75306" lon="5.96528">
        <ele>413</ele>
        <time>2024-07-01T18:41:46Z</time>
      </trkpt>
      <trkpt lat="43.75307" lon="5.96519">
        <ele>412</ele>
        <time>2024-07-01T18:41:48Z</time>
      </trkpt>
      <trkpt lat="43.753" lon="5.96485">
        <ele>408</ele>
        <time>2024-07-01T18:41:54Z</time>
      </trkpt>
      <trkpt lat="43.753" lon="5.96472">
        <ele>408</ele>
        <time>2024-07-01T18:41:56Z</time>
      </trkpt>
      <trkpt lat="43.75306" lon="5.96437">
        <ele>408</ele>
        <time>2024-07-01T18:42:02Z</time>
      </trkpt>
      <trkpt lat="43.75314" lon="5.96394">
        <ele>410</ele>
        <time>2024-07-01T18:42:09Z</time>
      </trkpt>
      <trkpt lat="43.75312" lon="5.96377">
        <ele>410</ele>
        <time>2024-07-01T18:42:12Z</time>
      </trkpt>
      <trkpt lat="43.75292" lon="5.96297">
        <ele>407</ele>
        <time>2024-07-01T18:42:27Z</time>
      </trkpt>
      <trkpt lat="43.75272" lon="5.96249">
        <ele>404</ele>
        <time>2024-07-01T18:42:36Z</time>
      </trkpt>
      <trkpt lat="43.75271" lon="5.96237">
        <ele>405</ele>
        <time>2024-07-01T18:42:38Z</time>
      </trkpt>
      <trkpt lat="43.75268" lon="5.96231">
        <ele>404</ele>
        <time>2024-07-01T18:42:39Z</time>
      </trkpt>
      <trkpt lat="43.75246" lon="5.96197">
        <ele>401</ele>
        <time>2024-07-01T18:42:47Z</time>
      </trkpt>
      <trkpt lat="43.75242" lon="5.96175">
        <ele>402</ele>
        <time>2024-07-01T18:42:51Z</time>
      </trkpt>
      <trkpt lat="43.75243" lon="5.96157">
        <ele>403</ele>
        <time>2024-07-01T18:42:54Z</time>
      </trkpt>
      <trkpt lat="43.75249" lon="5.96132">
        <ele>404</ele>
        <time>2024-07-01T18:42:58Z</time>
      </trkpt>
      <trkpt lat="43.75255" lon="5.96113">
        <ele>406</ele>
        <time>2024-07-01T18:43:02Z</time>
      </trkpt>
      <trkpt lat="43.75266" lon="5.96094">
        <ele>409</ele>
        <time>2024-07-01T18:43:06Z</time>
      </trkpt>
      <trkpt lat="43.75268" lon="5.96081">
        <ele>410</ele>
        <time>2024-07-01T18:43:08Z</time>
      </trkpt>
      <trkpt lat="43.75267" lon="5.96041">
        <ele>411</ele>
        <time>2024-07-01T18:43:15Z</time>
      </trkpt>
      <trkpt lat="43.7527" lon="5.96024">
        <ele>412</ele>
        <time>2024-07-01T18:43:18Z</time>
      </trkpt>
      <trkpt lat="43.75279" lon="5.95985">
        <ele>416</ele>
        <time>2024-07-01T18:43:25Z</time>
      </trkpt>
      <trkpt lat="43.75289" lon="5.95958">
        <ele>418</ele>
        <time>2024-07-01T18:43:30Z</time>
      </trkpt>
      <trkpt lat="43.75291" lon="5.95944">
        <ele>418</ele>
        <time>2024-07-01T18:43:32Z</time>
      </trkpt>
      <trkpt lat="43.75286" lon="5.95932">
        <ele>417</ele>
        <time>2024-07-01T18:43:35Z</time>
      </trkpt>
      <trkpt lat="43.75267" lon="5.95914">
        <ele>413</ele>
        <time>2024-07-01T18:43:40Z</time>
      </trkpt>
      <trkpt lat="43.75259" lon="5.95899">
        <ele>412</ele>
        <time>2024-07-01T18:43:43Z</time>
      </trkpt>
      <trkpt lat="43.75253" lon="5.95877">
        <ele>413</ele>
        <time>2024-07-01T18:43:47Z</time>
      </trkpt>
      <trkpt lat="43.75249" lon="5.95832">
        <ele>415</ele>
        <time>2024-07-01T18:43:55Z</time>
      </trkpt>
      <trkpt lat="43.75227" lon="5.95773">
        <ele>411</ele>
        <time>2024-07-01T18:44:06Z</time>
      </trkpt>
      <trkpt lat="43.75221" lon="5.95729">
        <ele>411</ele>
        <time>2024-07-01T18:44:13Z</time>
      </trkpt>
      <trkpt lat="43.7522" lon="5.95681">
        <ele>413</ele>
        <time>2024-07-01T18:44:22Z</time>
      </trkpt>
      <trkpt lat="43.75228" lon="5.95628">
        <ele>418</ele>
        <time>2024-07-01T18:44:31Z</time>
      </trkpt>
      <trkpt lat="43.75226" lon="5.95609">
        <ele>418</ele>
        <time>2024-07-01T18:44:34Z</time>
      </trkpt>
      <trkpt lat="43.75211" lon="5.95547">
        <ele>412</ele>
        <time>2024-07-01T18:44:45Z</time>
      </trkpt>
      <trkpt lat="43.75209" lon="5.95524">
        <ele>411</ele>
        <time>2024-07-01T18:44:49Z</time>
      </trkpt>
      <trkpt lat="43.75221" lon="5.95477">
        <ele>413</ele>
        <time>2024-07-01T18:44:57Z</time>
      </trkpt>
      <trkpt lat="43.75236" lon="5.95433">
        <ele>414</ele>
        <time>2024-07-01T18:45:05Z</time>
      </trkpt>
      <trkpt lat="43.75242" lon="5.95423">
        <ele>415</ele>
        <time>2024-07-01T18:45:08Z</time>
      </trkpt>
      <trkpt lat="43.7526" lon="5.95422">
        <ele>421</ele>
        <time>2024-07-01T18:45:12Z</time>
      </trkpt>
      <trkpt lat="43.75264" lon="5.95413">
        <ele>422</ele>
        <time>2024-07-01T18:45:14Z</time>
      </trkpt>
      <trkpt lat="43.75265" lon="5.95371">
        <ele>420</ele>
        <time>2024-07-01T18:45:21Z</time>
      </trkpt>
      <trkpt lat="43.75269" lon="5.95344">
        <ele>420</ele>
        <time>2024-07-01T18:45:25Z</time>
      </trkpt>
      <trkpt lat="43.75268" lon="5.95296">
        <ele>418</ele>
        <time>2024-07-01T18:45:33Z</time>
      </trkpt>
      <trkpt lat="43.75272" lon="5.9527">
        <ele>419</ele>
        <time>2024-07-01T18:45:38Z</time>
      </trkpt>
      <trkpt lat="43.75278" lon="5.95259">
        <ele>420</ele>
        <time>2024-07-01T18:45:40Z</time>
      </trkpt>
      <trkpt lat="43.75287" lon="5.9525">
        <ele>422</ele>
        <time>2024-07-01T18:45:43Z</time>
      </trkpt>
      <trkpt lat="43.75291" lon="5.9524">
        <ele>424</ele>
        <time>2024-07-01T18:45:45Z</time>
      </trkpt>
      <trkpt lat="43.75286" lon="5.95222">
        <ele>425</ele>
        <time>2024-07-01T18:45:48Z</time>
      </trkpt>
      <trkpt lat="43.75275" lon="5.95206">
        <ele>423</ele>
        <time>2024-07-01T18:45:52Z</time>
      </trkpt>
      <trkpt lat="43.75261" lon="5.95191">
        <ele>421</ele>
        <time>2024-07-01T18:45:56Z</time>
      </trkpt>
      <trkpt lat="43.75246" lon="5.95172">
        <ele>419</ele>
        <time>2024-07-01T18:46:01Z</time>
      </trkpt>
      <trkpt lat="43.75233" lon="5.95147">
        <ele>416</ele>
        <time>2024-07-01T18:46:06Z</time>
      </trkpt>
      <trkpt lat="43.75227" lon="5.95126">
        <ele>414</ele>
        <time>2024-07-01T18:46:10Z</time>
      </trkpt>
      <trkpt lat="43.75233" lon="5.95117">
        <ele>416</ele>
        <time>2024-07-01T18:46:12Z</time>
      </trkpt>
      <trkpt lat="43.75247" lon="5.95139">
        <ele>421</ele>
        <time>2024-07-01T18:46:17Z</time>
      </trkpt>
      <trkpt lat="43.75261" lon="5.95153">
        <ele>424</ele>
        <time>2024-07-01T18:46:21Z</time>
      </trkpt>
      <trkpt lat="43.75276" lon="5.95163">
        <ele>427</ele>
        <time>2024-07-01T18:46:25Z</time>
      </trkpt>
      <trkpt lat="43.75426" lon="5.95247">
        <ele>455</ele>
        <time>2024-07-01T18:47:02Z</time>
      </trkpt>
      <trkpt lat="43.75429" lon="5.95257">
        <ele>456</ele>
        <time>2024-07-01T18:47:04Z</time>
      </trkpt>
      <trkpt lat="43.75427" lon="5.95277">
        <ele>456</ele>
        <time>2024-07-01T18:47:08Z</time>
      </trkpt>
      <trkpt lat="43.7542" lon="5.95304">
        <ele>456</ele>
        <time>2024-07-01T18:47:12Z</time>
      </trkpt>
      <trkpt lat="43.7541" lon="5.95317">
        <ele>454</ele>
        <time>2024-07-01T18:47:16Z</time>
      </trkpt>
      <trkpt lat="43.75385" lon="5.95339">
        <ele>450</ele>
        <time>2024-07-01T18:47:23Z</time>
      </trkpt>
      <trkpt lat="43.7537" lon="5.95354">
        <ele>448</ele>
        <time>2024-07-01T18:47:27Z</time>
      </trkpt>
      <trkpt lat="43.75365" lon="5.95365">
        <ele>447</ele>
        <time>2024-07-01T18:47:29Z</time>
      </trkpt>
      <trkpt lat="43.75363" lon="5.95379">
        <ele>447</ele>
        <time>2024-07-01T18:47:32Z</time>
      </trkpt>
      <trkpt lat="43.75367" lon="5.95391">
        <ele>449</ele>
        <time>2024-07-01T18:47:34Z</time>
      </trkpt>
      <trkpt lat="43.75376" lon="5.95399">
        <ele>451</ele>
        <time>2024-07-01T18:47:36Z</time>
      </trkpt>
      <trkpt lat="43.75384" lon="5.95397">
        <ele>453</ele>
        <time>2024-07-01T18:47:38Z</time>
      </trkpt>
      <trkpt lat="43.75391" lon="5.9539">
        <ele>454</ele>
        <time>2024-07-01T18:47:40Z</time>
      </trkpt>
      <trkpt lat="43.75397" lon="5.95376">
        <ele>455</ele>
        <time>2024-07-01T18:47:43Z</time>
      </trkpt>
      <trkpt lat="43.75404" lon="5.95366">
        <ele>456</ele>
        <time>2024-07-01T18:47:45Z</time>
      </trkpt>
      <trkpt lat="43.75433" lon="5.95352">
        <ele>462</ele>
        <time>2024-07-01T18:47:52Z</time>
      </trkpt>
      <trkpt lat="43.75451" lon="5.95334">
        <ele>466</ele>
        <time>2024-07-01T18:47:58Z</time>
      </trkpt>
      <trkpt lat="43.75476" lon="5.95292">
        <ele>469</ele>
        <time>2024-07-01T18:48:07Z</time>
      </trkpt>
      <trkpt lat="43.75497" lon="5.95245">
        <ele>469</ele>
        <time>2024-07-01T18:48:16Z</time>
      </trkpt>
      <trkpt lat="43.75521" lon="5.95231">
        <ele>469</ele>
        <time>2024-07-01T18:48:22Z</time>
      </trkpt>
      <trkpt lat="43.75537" lon="5.95226">
        <ele>468</ele>
        <time>2024-07-01T18:48:26Z</time>
      </trkpt>
      <trkpt lat="43.75568" lon="5.95241">
        <ele>468</ele>
        <time>2024-07-01T18:48:34Z</time>
      </trkpt>
      <trkpt lat="43.75583" lon="5.95238">
        <ele>468</ele>
        <time>2024-07-01T18:48:37Z</time>
      </trkpt>
      <trkpt lat="43.75605" lon="5.95229">
        <ele>465</ele>
        <time>2024-07-01T18:48:43Z</time>
      </trkpt>
      <trkpt lat="43.75644" lon="5.95197">
        <ele>458</ele>
        <time>2024-07-01T18:48:53Z</time>
      </trkpt>
      <trkpt lat="43.75656" lon="5.95194">
        <ele>457</ele>
        <time>2024-07-01T18:48:56Z</time>
      </trkpt>
      <trkpt lat="43.75665" lon="5.95187">
        <ele>455</ele>
        <time>2024-07-01T18:48:58Z</time>
      </trkpt>
      <trkpt lat="43.7567" lon="5.95167">
        <ele>453</ele>
        <time>2024-07-01T18:49:02Z</time>
      </trkpt>
      <trkpt lat="43.75676" lon="5.95153">
        <ele>450</ele>
        <time>2024-07-01T18:49:05Z</time>
      </trkpt>
      <trkpt lat="43.7568" lon="5.95133">
        <ele>446</ele>
        <time>2024-07-01T18:49:08Z</time>
      </trkpt>
      <trkpt lat="43.75686" lon="5.95117">
        <ele>443</ele>
        <time>2024-07-01T18:49:11Z</time>
      </trkpt>
      <trkpt lat="43.75689" lon="5.95097">
        <ele>440</ele>
        <time>2024-07-01T18:49:15Z</time>
      </trkpt>
      <trkpt lat="43.75685" lon="5.95076">
        <ele>438</ele>
        <time>2024-07-01T18:49:18Z</time>
      </trkpt>
      <trkpt lat="43.75674" lon="5.95066">
        <ele>438</ele>
        <time>2024-07-01T18:49:21Z</time>
      </trkpt>
      <trkpt lat="43.75659" lon="5.95058">
        <ele>440</ele>
        <time>2024-07-01T18:49:25Z</time>
      </trkpt>
      <trkpt lat="43.75648" lon="5.95046">
        <ele>441</ele>
        <time>2024-07-01T18:49:29Z</time>
      </trkpt>
      <trkpt lat="43.75661" lon="5.95037">
        <ele>438</ele>
        <time>2024-07-01T18:49:32Z</time>
      </trkpt>
      <trkpt lat="43.7568" lon="5.95021">
        <ele>433</ele>
        <time>2024-07-01T18:49:37Z</time>
      </trkpt>
      <trkpt lat="43.75704" lon="5.95018">
        <ele>429</ele>
        <time>2024-07-01T18:49:43Z</time>
      </trkpt>
      <trkpt lat="43.75725" lon="5.95024">
        <ele>426</ele>
        <time>2024-07-01T18:49:48Z</time>
      </trkpt>
      <trkpt lat="43.75741" lon="5.9505">
        <ele>427</ele>
        <time>2024-07-01T18:49:53Z</time>
      </trkpt>
      <trkpt lat="43.7576" lon="5.95084">
        <ele>428</ele>
        <time>2024-07-01T18:50:01Z</time>
      </trkpt>
      <trkpt lat="43.75782" lon="5.95099">
        <ele>424</ele>
        <time>2024-07-01T18:50:06Z</time>
      </trkpt>
      <trkpt lat="43.75796" lon="5.95116">
        <ele>423</ele>
        <time>2024-07-01T18:50:11Z</time>
      </trkpt>
      <trkpt lat="43.75809" lon="5.95143">
        <ele>423</ele>
        <time>2024-07-01T18:50:16Z</time>
      </trkpt>
      <trkpt lat="43.75833" lon="5.95158">
        <ele>420</ele>
        <time>2024-07-01T18:50:22Z</time>
      </trkpt>
      <trkpt lat="43.75864" lon="5.952">
        <ele>418</ele>
        <time>2024-07-01T18:50:33Z</time>
      </trkpt>
      <trkpt lat="43.75887" lon="5.95239">
        <ele>417</ele>
        <time>2024-07-01T18:50:41Z</time>
      </trkpt>
      <trkpt lat="43.75897" lon="5.95265">
        <ele>417</ele>
        <time>2024-07-01T18:50:46Z</time>
      </trkpt>
      <trkpt lat="43.75901" lon="5.95173">
        <ele>407</ele>
        <time>2024-07-01T18:51:02Z</time>
      </trkpt>
      <trkpt lat="43.75894" lon="5.95149">
        <ele>407</ele>
        <time>2024-07-01T18:51:06Z</time>
      </trkpt>
      <trkpt lat="43.75879" lon="5.95126">
        <ele>408</ele>
        <time>2024-07-01T18:51:11Z</time>
      </trkpt>
      <trkpt lat="43.75857" lon="5.95085">
        <ele>407</ele>
        <time>2024-07-01T18:51:20Z</time>
      </trkpt>
      <trkpt lat="43.7585" lon="5.95048">
        <ele>404</ele>
        <time>2024-07-01T18:51:26Z</time>
      </trkpt>
      <trkpt lat="43.75851" lon="5.95017">
        <ele>401</ele>
        <time>2024-07-01T18:51:31Z</time>
      </trkpt>
      <trkpt lat="43.75856" lon="5.94984">
        <ele>401</ele>
        <time>2024-07-01T18:51:37Z</time>
      </trkpt>
      <trkpt lat="43.75862" lon="5.94974">
        <ele>403</ele>
        <time>2024-07-01T18:51:39Z</time>
      </trkpt>
      <trkpt lat="43.75861" lon="5.9496">
        <ele>403</ele>
        <time>2024-07-01T18:51:42Z</time>
      </trkpt>
      <trkpt lat="43.75857" lon="5.94946">
        <ele>403</ele>
        <time>2024-07-01T18:51:44Z</time>
      </trkpt>
      <trkpt lat="43.75852" lon="5.94915">
        <ele>403</ele>
        <time>2024-07-01T18:51:50Z</time>
      </trkpt>
      <trkpt lat="43.75845" lon="5.94904">
        <ele>403</ele>
        <time>2024-07-01T18:51:52Z</time>
      </trkpt>
      <trkpt lat="43.75834" lon="5.94894">
        <ele>403</ele>
        <time>2024-07-01T18:51:55Z</time>
      </trkpt>
      <trkpt lat="43.7582" lon="5.94885">
        <ele>403</ele>
        <time>2024-07-01T18:51:59Z</time>
      </trkpt>
      <trkpt lat="43.75796" lon="5.94864">
        <ele>402</ele>
        <time>2024-07-01T18:52:05Z</time>
      </trkpt>
      <trkpt lat="43.75788" lon="5.94849">
        <ele>401</ele>
        <time>2024-07-01T18:52:09Z</time>
      </trkpt>
      <trkpt lat="43.75785" lon="5.94834">
        <ele>401</ele>
        <time>2024-07-01T18:52:11Z</time>
      </trkpt>
      <trkpt lat="43.75778" lon="5.9481">
        <ele>402</ele>
        <time>2024-07-01T18:52:16Z</time>
      </trkpt>
      <trkpt lat="43.7577" lon="5.9479">
        <ele>402</ele>
        <time>2024-07-01T18:52:19Z</time>
      </trkpt>
      <trkpt lat="43.75768" lon="5.9478">
        <ele>403</ele>
        <time>2024-07-01T18:52:21Z</time>
      </trkpt>
      <trkpt lat="43.75768" lon="5.94767">
        <ele>404</ele>
        <time>2024-07-01T18:52:23Z</time>
      </trkpt>
      <trkpt lat="43.75765" lon="5.94745">
        <ele>406</ele>
        <time>2024-07-01T18:52:27Z</time>
      </trkpt>
      <trkpt lat="43.75754" lon="5.94708">
        <ele>405</ele>
        <time>2024-07-01T18:52:34Z</time>
      </trkpt>
      <trkpt lat="43.75748" lon="5.94696">
        <ele>405</ele>
        <time>2024-07-01T18:52:36Z</time>
      </trkpt>
      <trkpt lat="43.75754" lon="5.94665">
        <ele>409</ele>
        <time>2024-07-01T18:52:42Z</time>
      </trkpt>
      <trkpt lat="43.75763" lon="5.94642">
        <ele>415</ele>
        <time>2024-07-01T18:52:46Z</time>
      </trkpt>
      <trkpt lat="43.75768" lon="5.94621">
        <ele>418</ele>
        <time>2024-07-01T18:52:50Z</time>
      </trkpt>
      <trkpt lat="43.75767" lon="5.94609">
        <ele>419</ele>
        <time>2024-07-01T18:52:52Z</time>
      </trkpt>
      <trkpt lat="43.75724" lon="5.94579">
        <ele>411</ele>
        <time>2024-07-01T18:53:03Z</time>
      </trkpt>
      <trkpt lat="43.75717" lon="5.94577">
        <ele>409</ele>
        <time>2024-07-01T18:53:05Z</time>
      </trkpt>
      <trkpt lat="43.75712" lon="5.9457">
        <ele>408</ele>
        <time>2024-07-01T18:53:06Z</time>
      </trkpt>
      <trkpt lat="43.75711" lon="5.94555">
        <ele>409</ele>
        <time>2024-07-01T18:53:09Z</time>
      </trkpt>
      <trkpt lat="43.757" lon="5.94505">
        <ele>410</ele>
        <time>2024-07-01T18:53:18Z</time>
      </trkpt>
      <trkpt lat="43.75701" lon="5.94486">
        <ele>412</ele>
        <time>2024-07-01T18:53:21Z</time>
      </trkpt>
      <trkpt lat="43.75705" lon="5.94464">
        <ele>416</ele>
        <time>2024-07-01T18:53:25Z</time>
      </trkpt>
      <trkpt lat="43.75717" lon="5.94446">
        <ele>422</ele>
        <time>2024-07-01T18:53:29Z</time>
      </trkpt>
      <trkpt lat="43.75727" lon="5.94425">
        <ele>426</ele>
        <time>2024-07-01T18:53:33Z</time>
      </trkpt>
      <trkpt lat="43.75728" lon="5.94405">
        <ele>429</ele>
        <time>2024-07-01T18:53:37Z</time>
      </trkpt>
      <trkpt lat="43.75724" lon="5.94395">
        <ele>430</ele>
        <time>2024-07-01T18:53:39Z</time>
      </trkpt>
      <trkpt lat="43.75732" lon="5.94385">
        <ele>433</ele>
        <time>2024-07-01T18:53:41Z</time>
      </trkpt>
      <trkpt lat="43.75738" lon="5.94405">
        <ele>431</ele>
        <time>2024-07-01T18:53:45Z</time>
      </trkpt>
      <trkpt lat="43.75738" lon="5.94409">
        <ele>430</ele>
        <time>2024-07-01T18:53:45Z</time>
      </trkpt>
      <trkpt lat="43.75738" lon="5.94405">
        <ele>431</ele>
        <time>2024-07-01T18:53:46Z</time>
      </trkpt>
      <trkpt lat="43.75732" lon="5.94385">
        <ele>433</ele>
        <time>2024-07-01T18:53:50Z</time>
      </trkpt>
      <trkpt lat="43.75757" lon="5.94372">
        <ele>440</ele>
        <time>2024-07-01T18:53:56Z</time>
      </trkpt>
      <trkpt lat="43.75764" lon="5.94371">
        <ele>441</ele>
        <time>2024-07-01T18:53:58Z</time>
      </trkpt>
      <trkpt lat="43.7577" lon="5.94375">
        <ele>441</ele>
        <time>2024-07-01T18:53:59Z</time>
      </trkpt>
      <trkpt lat="43.75771" lon="5.9438">
        <ele>441</ele>
        <time>2024-07-01T18:54:00Z</time>
      </trkpt>
      <trkpt lat="43.75756" lon="5.94456">
        <ele>432</ele>
        <time>2024-07-01T18:54:13Z</time>
      </trkpt>
      <trkpt lat="43.75754" lon="5.94473">
        <ele>432</ele>
        <time>2024-07-01T18:54:16Z</time>
      </trkpt>
      <trkpt lat="43.75759" lon="5.94485">
        <ele>433</ele>
        <time>2024-07-01T18:54:19Z</time>
      </trkpt>
      <trkpt lat="43.75765" lon="5.94486">
        <ele>434</ele>
        <time>2024-07-01T18:54:20Z</time>
      </trkpt>
      <trkpt lat="43.75779" lon="5.94478">
        <ele>437</ele>
        <time>2024-07-01T18:54:24Z</time>
      </trkpt>
      <trkpt lat="43.75813" lon="5.94469">
        <ele>446</ele>
        <time>2024-07-01T18:54:32Z</time>
      </trkpt>
      <trkpt lat="43.75841" lon="5.94468">
        <ele>451</ele>
        <time>2024-07-01T18:54:38Z</time>
      </trkpt>
      <trkpt lat="43.75855" lon="5.94459">
        <ele>454</ele>
        <time>2024-07-01T18:54:42Z</time>
      </trkpt>
      <trkpt lat="43.75865" lon="5.94448">
        <ele>456</ele>
        <time>2024-07-01T18:54:45Z</time>
      </trkpt>
      <trkpt lat="43.75902" lon="5.9442">
        <ele>468</ele>
        <time>2024-07-01T18:54:55Z</time>
      </trkpt>
      <trkpt lat="43.75917" lon="5.94381">
        <ele>474</ele>
        <time>2024-07-01T18:55:02Z</time>
      </trkpt>
      <trkpt lat="43.75927" lon="5.94328">
        <ele>478</ele>
        <time>2024-07-01T18:55:11Z</time>
      </trkpt>
      <trkpt lat="43.75935" lon="5.94267">
        <ele>479</ele>
        <time>2024-07-01T18:55:22Z</time>
      </trkpt>
      <trkpt lat="43.75917" lon="5.94231">
        <ele>482</ele>
        <time>2024-07-01T18:55:29Z</time>
      </trkpt>
      <trkpt lat="43.75892" lon="5.94197">
        <ele>484</ele>
        <time>2024-07-01T18:55:37Z</time>
      </trkpt>
      <trkpt lat="43.75868" lon="5.94154">
        <ele>489</ele>
        <time>2024-07-01T18:55:46Z</time>
      </trkpt>
      <trkpt lat="43.75855" lon="5.94126">
        <ele>492</ele>
        <time>2024-07-01T18:55:52Z</time>
      </trkpt>
      <trkpt lat="43.75845" lon="5.94053">
        <ele>499</ele>
        <time>2024-07-01T18:56:05Z</time>
      </trkpt>
      <trkpt lat="43.75833" lon="5.93991">
        <ele>503</ele>
        <time>2024-07-01T18:56:15Z</time>
      </trkpt>
      <trkpt lat="43.75814" lon="5.93942">
        <ele>502</ele>
        <time>2024-07-01T18:56:25Z</time>
      </trkpt>
      <trkpt lat="43.75785" lon="5.93883">
        <ele>503</ele>
        <time>2024-07-01T18:56:37Z</time>
      </trkpt>
      <trkpt lat="43.75767" lon="5.93825">
        <ele>505</ele>
        <time>2024-07-01T18:56:48Z</time>
      </trkpt>
      <trkpt lat="43.75775" lon="5.93748">
        <ele>498</ele>
        <time>2024-07-01T18:57:01Z</time>
      </trkpt>
      <trkpt lat="43.75776" lon="5.93695">
        <ele>493</ele>
        <time>2024-07-01T18:57:10Z</time>
      </trkpt>
      <trkpt lat="43.75765" lon="5.93621">
        <ele>490</ele>
        <time>2024-07-01T18:57:22Z</time>
      </trkpt>
      <trkpt lat="43.75753" lon="5.93609">
        <ele>491</ele>
        <time>2024-07-01T18:57:26Z</time>
      </trkpt>
      <trkpt lat="43.75732" lon="5.93601">
        <ele>489</ele>
        <time>2024-07-01T18:57:31Z</time>
      </trkpt>
      <trkpt lat="43.75701" lon="5.93582">
        <ele>486</ele>
        <time>2024-07-01T18:57:39Z</time>
      </trkpt>
      <trkpt lat="43.75675" lon="5.93546">
        <ele>484</ele>
        <time>2024-07-01T18:57:47Z</time>
      </trkpt>
      <trkpt lat="43.75629" lon="5.93457">
        <ele>476</ele>
        <time>2024-07-01T18:58:06Z</time>
      </trkpt>
      <trkpt lat="43.75601" lon="5.93288">
        <ele>470</ele>
        <time>2024-07-01T18:58:35Z</time>
      </trkpt>
      <trkpt lat="43.75595" lon="5.93263">
        <ele>470</ele>
        <time>2024-07-01T18:58:40Z</time>
      </trkpt>
      <trkpt lat="43.7558" lon="5.93254">
        <ele>470</ele>
        <time>2024-07-01T18:58:43Z</time>
      </trkpt>
      <trkpt lat="43.75515" lon="5.93242">
        <ele>457</ele>
        <time>2024-07-01T18:58:59Z</time>
      </trkpt>
      <trkpt lat="43.75471" lon="5.93225">
        <ele>449</ele>
        <time>2024-07-01T18:59:09Z</time>
      </trkpt>
      <trkpt lat="43.75456" lon="5.93204">
        <ele>446</ele>
        <time>2024-07-01T18:59:14Z</time>
      </trkpt>
      <trkpt lat="43.75453" lon="5.9319">
        <ele>446</ele>
        <time>2024-07-01T18:59:17Z</time>
      </trkpt>
      <trkpt lat="43.75454" lon="5.93181">
        <ele>446</ele>
        <time>2024-07-01T18:59:18Z</time>
      </trkpt>
      <trkpt lat="43.75467" lon="5.93148">
        <ele>444</ele>
        <time>2024-07-01T18:59:25Z</time>
      </trkpt>
      <trkpt lat="43.75494" lon="5.93127">
        <ele>444</ele>
        <time>2024-07-01T18:59:32Z</time>
      </trkpt>
      <trkpt lat="43.75509" lon="5.93113">
        <ele>445</ele>
        <time>2024-07-01T18:59:36Z</time>
      </trkpt>
      <trkpt lat="43.75537" lon="5.93048">
        <ele>442</ele>
        <time>2024-07-01T18:59:49Z</time>
      </trkpt>
      <trkpt lat="43.75562" lon="5.9301">
        <ele>442</ele>
        <time>2024-07-01T18:59:58Z</time>
      </trkpt>
      <trkpt lat="43.75581" lon="5.92984">
        <ele>441</ele>
        <time>2024-07-01T19:00:04Z</time>
      </trkpt>
      <trkpt lat="43.75589" lon="5.9298">
        <ele>440</ele>
        <time>2024-07-01T19:00:06Z</time>
      </trkpt>
      <trkpt lat="43.75596" lon="5.92978">
        <ele>439</ele>
        <time>2024-07-01T19:00:07Z</time>
      </trkpt>
      <trkpt lat="43.75611" lon="5.92986">
        <ele>438</ele>
        <time>2024-07-01T19:00:11Z</time>
      </trkpt>
      <trkpt lat="43.75647" lon="5.93021">
        <ele>440</ele>
        <time>2024-07-01T19:00:21Z</time>
      </trkpt>
      <trkpt lat="43.75673" lon="5.93037">
        <ele>441</ele>
        <time>2024-07-01T19:00:28Z</time>
      </trkpt>
      <trkpt lat="43.75696" lon="5.93038">
        <ele>439</ele>
        <time>2024-07-01T19:00:33Z</time>
      </trkpt>
      <trkpt lat="43.75715" lon="5.93038">
        <ele>438</ele>
        <time>2024-07-01T19:00:38Z</time>
      </trkpt>
      <trkpt lat="43.75732" lon="5.93029">
        <ele>435</ele>
        <time>2024-07-01T19:00:42Z</time>
      </trkpt>
      <trkpt lat="43.75737" lon="5.93021">
        <ele>434</ele>
        <time>2024-07-01T19:00:44Z</time>
      </trkpt>
      <trkpt lat="43.75742" lon="5.92998">
        <ele>432</ele>
        <time>2024-07-01T19:00:48Z</time>
      </trkpt>
      <trkpt lat="43.7575" lon="5.92981">
        <ele>428</ele>
        <time>2024-07-01T19:00:51Z</time>
      </trkpt>
      <trkpt lat="43.75796" lon="5.92946">
        <ele>423</ele>
        <time>2024-07-01T19:01:04Z</time>
      </trkpt>
      <trkpt lat="43.75828" lon="5.92915">
        <ele>422</ele>
        <time>2024-07-01T19:01:13Z</time>
      </trkpt>
      <trkpt lat="43.75836" lon="5.92927">
        <ele>423</ele>
        <time>2024-07-01T19:01:16Z</time>
      </trkpt>
      <trkpt lat="43.75844" lon="5.92946">
        <ele>423</ele>
        <time>2024-07-01T19:01:19Z</time>
      </trkpt>
      <trkpt lat="43.75859" lon="5.92952">
        <ele>421</ele>
        <time>2024-07-01T19:01:23Z</time>
      </trkpt>
      <trkpt lat="43.75861" lon="5.92957">
        <ele>421</ele>
        <time>2024-07-01T19:01:24Z</time>
      </trkpt>
      <trkpt lat="43.75862" lon="5.92979">
        <ele>421</ele>
        <time>2024-07-01T19:01:28Z</time>
      </trkpt>
      <trkpt lat="43.75867" lon="5.92985">
        <ele>420</ele>
        <time>2024-07-01T19:01:29Z</time>
      </trkpt>
      <trkpt lat="43.75872" lon="5.92986">
        <ele>419</ele>
        <time>2024-07-01T19:01:30Z</time>
      </trkpt>
      <trkpt lat="43.75883" lon="5.92967">
        <ele>418</ele>
        <time>2024-07-01T19:01:34Z</time>
      </trkpt>
      <trkpt lat="43.75888" lon="5.92962">
        <ele>417</ele>
        <time>2024-07-01T19:01:36Z</time>
      </trkpt>
      <trkpt lat="43.75892" lon="5.92962">
        <ele>416</ele>
        <time>2024-07-01T19:01:37Z</time>
      </trkpt>
      <trkpt lat="43.75897" lon="5.92966">
        <ele>415</ele>
        <time>2024-07-01T19:01:38Z</time>
      </trkpt>
      <trkpt lat="43.75888" lon="5.92987">
        <ele>416</ele>
        <time>2024-07-01T19:01:42Z</time>
      </trkpt>
      <trkpt lat="43.75887" lon="5.9301">
        <ele>416</ele>
        <time>2024-07-01T19:01:46Z</time>
      </trkpt>
      <trkpt lat="43.75893" lon="5.9302">
        <ele>416</ele>
        <time>2024-07-01T19:01:48Z</time>
      </trkpt>
      <trkpt lat="43.75923" lon="5.9303">
        <ele>411</ele>
        <time>2024-07-01T19:01:56Z</time>
      </trkpt>
      <trkpt lat="43.75938" lon="5.93041">
        <ele>408</ele>
        <time>2024-07-01T19:02:00Z</time>
      </trkpt>
      <trkpt lat="43.75946" lon="5.93053">
        <ele>407</ele>
        <time>2024-07-01T19:02:02Z</time>
      </trkpt>
      <trkpt lat="43.75952" lon="5.93079">
        <ele>407</ele>
        <time>2024-07-01T19:02:07Z</time>
      </trkpt>
      <trkpt lat="43.75945" lon="5.93127">
        <ele>412</ele>
        <time>2024-07-01T19:02:15Z</time>
      </trkpt>
      <trkpt lat="43.75947" lon="5.93161">
        <ele>415</ele>
        <time>2024-07-01T19:02:21Z</time>
      </trkpt>
      <trkpt lat="43.75952" lon="5.93187">
        <ele>416</ele>
        <time>2024-07-01T19:02:25Z</time>
      </trkpt>
      <trkpt lat="43.75961" lon="5.93191">
        <ele>415</ele>
        <time>2024-07-01T19:02:28Z</time>
      </trkpt>
      <trkpt lat="43.75974" lon="5.93183">
        <ele>413</ele>
        <time>2024-07-01T19:02:31Z</time>
      </trkpt>
      <trkpt lat="43.75996" lon="5.93156">
        <ele>406</ele>
        <time>2024-07-01T19:02:38Z</time>
      </trkpt>
      <trkpt lat="43.76036" lon="5.93136">
        <ele>399</ele>
        <time>2024-07-01T19:02:48Z</time>
      </trkpt>
      <trkpt lat="43.76055" lon="5.93137">
        <ele>397</ele>
        <time>2024-07-01T19:02:52Z</time>
      </trkpt>
      <trkpt lat="43.7608" lon="5.93147">
        <ele>397</ele>
        <time>2024-07-01T19:02:58Z</time>
      </trkpt>
      <trkpt lat="43.761" lon="5.93152">
        <ele>396</ele>
        <time>2024-07-01T19:03:03Z</time>
      </trkpt>
      <trkpt lat="43.76115" lon="5.93163">
        <ele>396</ele>
        <time>2024-07-01T19:03:07Z</time>
      </trkpt>
      <trkpt lat="43.76146" lon="5.93209">
        <ele>398</ele>
        <time>2024-07-01T19:03:18Z</time>
      </trkpt>
      <trkpt lat="43.7616" lon="5.93229">
        <ele>397</ele>
        <time>2024-07-01T19:03:22Z</time>
      </trkpt>
      <trkpt lat="43.76168" lon="5.93248">
        <ele>397</ele>
        <time>2024-07-01T19:03:26Z</time>
      </trkpt>
      <trkpt lat="43.76172" lon="5.93292">
        <ele>395</ele>
        <time>2024-07-01T19:03:33Z</time>
      </trkpt>
      <trkpt lat="43.76188" lon="5.93384">
        <ele>394</ele>
        <time>2024-07-01T19:03:49Z</time>
      </trkpt>
      <trkpt lat="43.76189" lon="5.93427">
        <ele>395</ele>
        <time>2024-07-01T19:03:57Z</time>
      </trkpt>
      <trkpt lat="43.76192" lon="5.93497">
        <ele>395</ele>
        <time>2024-07-01T19:04:09Z</time>
      </trkpt>
      <trkpt lat="43.76202" lon="5.93514">
        <ele>393</ele>
        <time>2024-07-01T19:04:12Z</time>
      </trkpt>
      <trkpt lat="43.76221" lon="5.93522">
        <ele>389</ele>
        <time>2024-07-01T19:04:17Z</time>
      </trkpt>
      <trkpt lat="43.76229" lon="5.9353">
        <ele>388</ele>
        <time>2024-07-01T19:04:19Z</time>
      </trkpt>
      <trkpt lat="43.76231" lon="5.93545">
        <ele>388</ele>
        <time>2024-07-01T19:04:22Z</time>
      </trkpt>
      <trkpt lat="43.76225" lon="5.93559">
        <ele>390</ele>
        <time>2024-07-01T19:04:24Z</time>
      </trkpt>
      <trkpt lat="43.76218" lon="5.93568">
        <ele>392</ele>
        <time>2024-07-01T19:04:27Z</time>
      </trkpt>
      <trkpt lat="43.76216" lon="5.93587">
        <ele>393</ele>
        <time>2024-07-01T19:04:30Z</time>
      </trkpt>
      <trkpt lat="43.76222" lon="5.93601">
        <ele>392</ele>
        <time>2024-07-01T19:04:33Z</time>
      </trkpt>
      <trkpt lat="43.76231" lon="5.93614">
        <ele>391</ele>
        <time>2024-07-01T19:04:36Z</time>
      </trkpt>
      <trkpt lat="43.76234" lon="5.93628">
        <ele>391</ele>
        <time>2024-07-01T19:04:38Z</time>
      </trkpt>
      <trkpt lat="43.7623" lon="5.93664">
        <ele>394</ele>
        <time>2024-07-01T19:04:44Z</time>
      </trkpt>
      <trkpt lat="43.76235" lon="5.93702">
        <ele>393</ele>
        <time>2024-07-01T19:04:51Z</time>
      </trkpt>
      <trkpt lat="43.76259" lon="5.93748">
        <ele>387</ele>
        <time>2024-07-01T19:05:00Z</time>
      </trkpt>
      <trkpt lat="43.76258" lon="5.93758">
        <ele>388</ele>
        <time>2024-07-01T19:05:02Z</time>
      </trkpt>
      <trkpt lat="43.7625" lon="5.93769">
        <ele>389</ele>
        <time>2024-07-01T19:05:05Z</time>
      </trkpt>
      <trkpt lat="43.76226" lon="5.93797">
        <ele>398</ele>
        <time>2024-07-01T19:05:12Z</time>
      </trkpt>
      <trkpt lat="43.76221" lon="5.93809">
        <ele>399</ele>
        <time>2024-07-01T19:05:14Z</time>
      </trkpt>
      <trkpt lat="43.76222" lon="5.9382">
        <ele>399</ele>
        <time>2024-07-01T19:05:16Z</time>
      </trkpt>
      <trkpt lat="43.76227" lon="5.93827">
        <ele>398</ele>
        <time>2024-07-01T19:05:18Z</time>
      </trkpt>
      <trkpt lat="43.76256" lon="5.93826">
        <ele>390</ele>
        <time>2024-07-01T19:05:25Z</time>
      </trkpt>
      <trkpt lat="43.76292" lon="5.93837">
        <ele>388</ele>
        <time>2024-07-01T19:05:33Z</time>
      </trkpt>
      <trkpt lat="43.76313" lon="5.93847">
        <ele>388</ele>
        <time>2024-07-01T19:05:39Z</time>
      </trkpt>
      <trkpt lat="43.76324" lon="5.93859">
        <ele>388</ele>
        <time>2024-07-01T19:05:42Z</time>
      </trkpt>
      <trkpt lat="43.76338" lon="5.93911">
        <ele>393</ele>
        <time>2024-07-01T19:05:51Z</time>
      </trkpt>
      <trkpt lat="43.76349" lon="5.93935">
        <ele>394</ele>
        <time>2024-07-01T19:05:56Z</time>
      </trkpt>
      <trkpt lat="43.7636" lon="5.93957">
        <ele>394</ele>
        <time>2024-07-01T19:06:00Z</time>
      </trkpt>
      <trkpt lat="43.7638" lon="5.93975">
        <ele>393</ele>
        <time>2024-07-01T19:06:06Z</time>
      </trkpt>
      <trkpt lat="43.76391" lon="5.93978">
        <ele>392</ele>
        <time>2024-07-01T19:06:09Z</time>
      </trkpt>
      <trkpt lat="43.76399" lon="5.93982">
        <ele>391</ele>
        <time>2024-07-01T19:06:11Z</time>
      </trkpt>
      <trkpt lat="43.76405" lon="5.93988">
        <ele>391</ele>
        <time>2024-07-01T19:06:12Z</time>
      </trkpt>
      <trkpt lat="43.76406" lon="5.94017">
        <ele>392</ele>
        <time>2024-07-01T19:06:17Z</time>
      </trkpt>
      <trkpt lat="43.76413" lon="5.94034">
        <ele>392</ele>
        <time>2024-07-01T19:06:21Z</time>
      </trkpt>
      <trkpt lat="43.76433" lon="5.9407">
        <ele>390</ele>
        <time>2024-07-01T19:06:28Z</time>
      </trkpt>
      <trkpt lat="43.7645" lon="5.94128">
        <ele>389</ele>
        <time>2024-07-01T19:06:39Z</time>
      </trkpt>
      <trkpt lat="43.76503" lon="5.9412">
        <ele>380</ele>
        <time>2024-07-01T19:06:51Z</time>
      </trkpt>
      <trkpt lat="43.76527" lon="5.94145">
        <ele>380</ele>
        <time>2024-07-01T19:06:58Z</time>
      </trkpt>
      <trkpt lat="43.76567" lon="5.94143">
        <ele>375</ele>
        <time>2024-07-01T19:07:08Z</time>
      </trkpt>
      <trkpt lat="43.76581" lon="5.94136">
        <ele>373</ele>
        <time>2024-07-01T19:07:11Z</time>
      </trkpt>
      <trkpt lat="43.76583" lon="5.94116">
        <ele>370</ele>
        <time>2024-07-01T19:07:14Z</time>
      </trkpt>
      <trkpt lat="43.76595" lon="5.94103">
        <ele>366</ele>
        <time>2024-07-01T19:07:18Z</time>
      </trkpt>
      <trkpt lat="43.76626" lon="5.941">
        <ele>362</ele>
        <time>2024-07-01T19:07:25Z</time>
      </trkpt>
      <trkpt lat="43.76645" lon="5.94053">
        <ele>356</ele>
        <time>2024-07-01T19:07:34Z</time>
      </trkpt>
      <trkpt lat="43.76664" lon="5.94053">
        <ele>355</ele>
        <time>2024-07-01T19:07:39Z</time>
      </trkpt>
      <trkpt lat="43.76679" lon="5.94069">
        <ele>355</ele>
        <time>2024-07-01T19:07:43Z</time>
      </trkpt>
      <trkpt lat="43.76682" lon="5.94066">
        <ele>355</ele>
        <time>2024-07-01T19:07:44Z</time>
      </trkpt>
      <trkpt lat="43.76684" lon="5.94004">
        <ele>351</ele>
        <time>2024-07-01T19:07:55Z</time>
      </trkpt>
      <trkpt lat="43.76686" lon="5.93995">
        <ele>351</ele>
        <time>2024-07-01T19:07:56Z</time>
      </trkpt>
      <trkpt lat="43.76687" lon="5.93991">
        <ele>351</ele>
        <time>2024-07-01T19:07:57Z</time>
      </trkpt>
      <trkpt lat="43.76599" lon="5.93977">
        <ele>349</ele>
        <time>2024-07-01T19:08:18Z</time>
      </trkpt>
      <trkpt lat="43.76582" lon="5.93995">
        <ele>350</ele>
        <time>2024-07-01T19:08:23Z</time>
      </trkpt>
      <trkpt lat="43.76566" lon="5.94003">
        <ele>355</ele>
        <time>2024-07-01T19:08:27Z</time>
      </trkpt>
      <trkpt lat="43.76552" lon="5.93996">
        <ele>359</ele>
        <time>2024-07-01T19:08:30Z</time>
      </trkpt>
      <trkpt lat="43.76539" lon="5.93978">
        <ele>362</ele>
        <time>2024-07-01T19:08:34Z</time>
      </trkpt>
      <trkpt lat="43.76531" lon="5.93944">
        <ele>362</ele>
        <time>2024-07-01T19:08:40Z</time>
      </trkpt>
      <trkpt lat="43.76535" lon="5.93921">
        <ele>360</ele>
        <time>2024-07-01T19:08:44Z</time>
      </trkpt>
      <trkpt lat="43.76557" lon="5.93871">
        <ele>355</ele>
        <time>2024-07-01T19:08:54Z</time>
      </trkpt>
      <trkpt lat="43.76635" lon="5.93775">
        <ele>349</ele>
        <time>2024-07-01T19:09:19Z</time>
      </trkpt>
      <trkpt lat="43.76653" lon="5.93756">
        <ele>347</ele>
        <time>2024-07-01T19:09:24Z</time>
      </trkpt>
      <trkpt lat="43.76684" lon="5.93686">
        <ele>349</ele>
        <time>2024-07-01T19:09:38Z</time>
      </trkpt>
      <trkpt lat="43.76694" lon="5.93653">
        <ele>350</ele>
        <time>2024-07-01T19:09:44Z</time>
      </trkpt>
      <trkpt lat="43.76696" lon="5.93608">
        <ele>351</ele>
        <time>2024-07-01T19:09:51Z</time>
      </trkpt>
      <trkpt lat="43.76679" lon="5.93583">
        <ele>348</ele>
        <time>2024-07-01T19:09:57Z</time>
      </trkpt>
      <trkpt lat="43.76644" lon="5.93558">
        <ele>348</ele>
        <time>2024-07-01T19:10:06Z</time>
      </trkpt>
      <trkpt lat="43.76608" lon="5.93559">
        <ele>346</ele>
        <time>2024-07-01T19:10:15Z</time>
      </trkpt>
      <trkpt lat="43.76571" lon="5.93553">
        <ele>345</ele>
        <time>2024-07-01T19:10:23Z</time>
      </trkpt>
      <trkpt lat="43.76532" lon="5.93541">
        <ele>343</ele>
        <time>2024-07-01T19:10:33Z</time>
      </trkpt>
      <trkpt lat="43.76501" lon="5.93568">
        <ele>341</ele>
        <time>2024-07-01T19:10:41Z</time>
      </trkpt>
      <trkpt lat="43.76485" lon="5.93595">
        <ele>343</ele>
        <time>2024-07-01T19:10:47Z</time>
      </trkpt>
      <trkpt lat="43.76455" lon="5.93623">
        <ele>351</ele>
        <time>2024-07-01T19:10:56Z</time>
      </trkpt>
      <trkpt lat="43.76446" lon="5.93623">
        <ele>351</ele>
        <time>2024-07-01T19:10:58Z</time>
      </trkpt>
      <trkpt lat="43.76433" lon="5.93605">
        <ele>350</ele>
        <time>2024-07-01T19:11:02Z</time>
      </trkpt>
      <trkpt lat="43.7642" lon="5.93548">
        <ele>344</ele>
        <time>2024-07-01T19:11:12Z</time>
      </trkpt>
      <trkpt lat="43.76412" lon="5.93535">
        <ele>344</ele>
        <time>2024-07-01T19:11:15Z</time>
      </trkpt>
      <trkpt lat="43.76399" lon="5.93525">
        <ele>347</ele>
        <time>2024-07-01T19:11:18Z</time>
      </trkpt>
      <trkpt lat="43.76388" lon="5.93509">
        <ele>348</ele>
        <time>2024-07-01T19:11:22Z</time>
      </trkpt>
      <trkpt lat="43.76374" lon="5.93494">
        <ele>351</ele>
        <time>2024-07-01T19:11:26Z</time>
      </trkpt>
      <trkpt lat="43.76359" lon="5.93426">
        <ele>352</ele>
        <time>2024-07-01T19:11:38Z</time>
      </trkpt>
      <trkpt lat="43.76359" lon="5.934">
        <ele>351</ele>
        <time>2024-07-01T19:11:43Z</time>
      </trkpt>
      <trkpt lat="43.76366" lon="5.9338">
        <ele>349</ele>
        <time>2024-07-01T19:11:46Z</time>
      </trkpt>
      <trkpt lat="43.76377" lon="5.93351">
        <ele>347</ele>
        <time>2024-07-01T19:11:52Z</time>
      </trkpt>
      <trkpt lat="43.76376" lon="5.93329">
        <ele>346</ele>
        <time>2024-07-01T19:11:56Z</time>
      </trkpt>
      <trkpt lat="43.76365" lon="5.93309">
        <ele>347</ele>
        <time>2024-07-01T19:12:00Z</time>
      </trkpt>
      <trkpt lat="43.7633" lon="5.9326">
        <ele>346</ele>
        <time>2024-07-01T19:12:12Z</time>
      </trkpt>
      <trkpt lat="43.76314" lon="5.93241">
        <ele>352</ele>
        <time>2024-07-01T19:12:16Z</time>
      </trkpt>
      <trkpt lat="43.76311" lon="5.93216">
        <ele>353</ele>
        <time>2024-07-01T19:12:21Z</time>
      </trkpt>
      <trkpt lat="43.76335" lon="5.93123">
        <ele>342</ele>
        <time>2024-07-01T19:12:37Z</time>
      </trkpt>
      <trkpt lat="43.76362" lon="5.93049">
        <ele>343</ele>
        <time>2024-07-01T19:12:51Z</time>
      </trkpt>
      <trkpt lat="43.7636" lon="5.93024">
        <ele>342</ele>
        <time>2024-07-01T19:12:56Z</time>
      </trkpt>
      <trkpt lat="43.76346" lon="5.92995">
        <ele>339</ele>
        <time>2024-07-01T19:13:02Z</time>
      </trkpt>
      <trkpt lat="43.76329" lon="5.9299">
        <ele>338</ele>
        <time>2024-07-01T19:13:06Z</time>
      </trkpt>
      <trkpt lat="43.763" lon="5.93001">
        <ele>337</ele>
        <time>2024-07-01T19:13:13Z</time>
      </trkpt>
      <trkpt lat="43.76285" lon="5.93012">
        <ele>339</ele>
        <time>2024-07-01T19:13:17Z</time>
      </trkpt>
      <trkpt lat="43.76257" lon="5.93021">
        <ele>342</ele>
        <time>2024-07-01T19:13:23Z</time>
      </trkpt>
      <trkpt lat="43.76233" lon="5.93016">
        <ele>345</ele>
        <time>2024-07-01T19:13:29Z</time>
      </trkpt>
      <trkpt lat="43.76219" lon="5.92999">
        <ele>344</ele>
        <time>2024-07-01T19:13:33Z</time>
      </trkpt>
      <trkpt lat="43.76205" lon="5.92929">
        <ele>342</ele>
        <time>2024-07-01T19:13:46Z</time>
      </trkpt>
      <trkpt lat="43.76218" lon="5.92831">
        <ele>337</ele>
        <time>2024-07-01T19:14:02Z</time>
      </trkpt>
      <trkpt lat="43.76217" lon="5.92808">
        <ele>337</ele>
        <time>2024-07-01T19:14:06Z</time>
      </trkpt>
      <trkpt lat="43.76203" lon="5.92783">
        <ele>337</ele>
        <time>2024-07-01T19:14:12Z</time>
      </trkpt>
      <trkpt lat="43.76171" lon="5.92782">
        <ele>334</ele>
        <time>2024-07-01T19:14:19Z</time>
      </trkpt>
      <trkpt lat="43.76089" lon="5.92767">
        <ele>336</ele>
        <time>2024-07-01T19:14:38Z</time>
      </trkpt>
      <trkpt lat="43.76066" lon="5.92751">
        <ele>340</ele>
        <time>2024-07-01T19:14:44Z</time>
      </trkpt>
      <trkpt lat="43.76041" lon="5.92716">
        <ele>346</ele>
        <time>2024-07-01T19:14:53Z</time>
      </trkpt>
      <trkpt lat="43.76033" lon="5.92636">
        <ele>338</ele>
        <time>2024-07-01T19:15:06Z</time>
      </trkpt>
      <trkpt lat="43.76031" lon="5.92615">
        <ele>336</ele>
        <time>2024-07-01T19:15:10Z</time>
      </trkpt>
      <trkpt lat="43.76024" lon="5.92587">
        <ele>333</ele>
        <time>2024-07-01T19:15:15Z</time>
      </trkpt>
      <trkpt lat="43.76004" lon="5.92534">
        <ele>331</ele>
        <time>2024-07-01T19:15:25Z</time>
      </trkpt>
      <trkpt lat="43.75987" lon="5.92449">
        <ele>334</ele>
        <time>2024-07-01T19:15:40Z</time>
      </trkpt>
      <trkpt lat="43.75944" lon="5.92373">
        <ele>337</ele>
        <time>2024-07-01T19:15:56Z</time>
      </trkpt>
      <trkpt lat="43.75936" lon="5.92352">
        <ele>336</ele>
        <time>2024-07-01T19:16:00Z</time>
      </trkpt>
      <trkpt lat="43.75936" lon="5.92309">
        <ele>332</ele>
        <time>2024-07-01T19:16:07Z</time>
      </trkpt>
      <trkpt lat="43.75911" lon="5.92245">
        <ele>326</ele>
        <time>2024-07-01T19:16:20Z</time>
      </trkpt>
      <trkpt lat="43.75906" lon="5.92179">
        <ele>326</ele>
        <time>2024-07-01T19:16:31Z</time>
      </trkpt>
      <trkpt lat="43.75897" lon="5.92155">
        <ele>326</ele>
        <time>2024-07-01T19:16:35Z</time>
      </trkpt>
      <trkpt lat="43.75884" lon="5.92134">
        <ele>327</ele>
        <time>2024-07-01T19:16:40Z</time>
      </trkpt>
      <trkpt lat="43.75861" lon="5.92127">
        <ele>326</ele>
        <time>2024-07-01T19:16:46Z</time>
      </trkpt>
      <trkpt lat="43.75851" lon="5.9213">
        <ele>325</ele>
        <time>2024-07-01T19:16:48Z</time>
      </trkpt>
      <trkpt lat="43.75831" lon="5.92131">
        <ele>324</ele>
        <time>2024-07-01T19:16:53Z</time>
      </trkpt>
      <trkpt lat="43.75826" lon="5.92135">
        <ele>324</ele>
        <time>2024-07-01T19:16:54Z</time>
      </trkpt>
      <trkpt lat="43.75822" lon="5.92113">
        <ele>325</ele>
        <time>2024-07-01T19:16:58Z</time>
      </trkpt>
      <trkpt lat="43.75811" lon="5.9211">
        <ele>325</ele>
        <time>2024-07-01T19:17:00Z</time>
      </trkpt>
      <trkpt lat="43.75802" lon="5.92137">
        <ele>324</ele>
        <time>2024-07-01T19:17:05Z</time>
      </trkpt>
      <trkpt lat="43.75796" lon="5.92147">
        <ele>323</ele>
        <time>2024-07-01T19:17:08Z</time>
      </trkpt>
      <trkpt lat="43.75794" lon="5.9217">
        <ele>322</ele>
        <time>2024-07-01T19:17:12Z</time>
      </trkpt>
      <trkpt lat="43.75794" lon="5.92186">
        <ele>321</ele>
        <time>2024-07-01T19:17:14Z</time>
      </trkpt>
      <trkpt lat="43.75798" lon="5.92202">
        <ele>322</ele>
        <time>2024-07-01T19:17:17Z</time>
      </trkpt>
      <trkpt lat="43.75805" lon="5.92224">
        <ele>322</ele>
        <time>2024-07-01T19:17:21Z</time>
      </trkpt>
      <trkpt lat="43.75806" lon="5.92235">
        <ele>322</ele>
        <time>2024-07-01T19:17:23Z</time>
      </trkpt>
      <trkpt lat="43.75801" lon="5.92244">
        <ele>322</ele>
        <time>2024-07-01T19:17:25Z</time>
      </trkpt>
      <trkpt lat="43.75798" lon="5.92284">
        <ele>324</ele>
        <time>2024-07-01T19:17:32Z</time>
      </trkpt>
      <trkpt lat="43.75788" lon="5.92295">
        <ele>323</ele>
        <time>2024-07-01T19:17:35Z</time>
      </trkpt>
      <trkpt lat="43.75786" lon="5.92284">
        <ele>322</ele>
        <time>2024-07-01T19:17:37Z</time>
      </trkpt>
      <trkpt lat="43.75774" lon="5.92246">
        <ele>317</ele>
        <time>2024-07-01T19:17:44Z</time>
      </trkpt>
      <trkpt lat="43.75742" lon="5.9216">
        <ele>319</ele>
        <time>2024-07-01T19:18:00Z</time>
      </trkpt>
      <trkpt lat="43.75773" lon="5.92243">
        <ele>317</ele>
        <time>2024-07-01T19:18:16Z</time>
      </trkpt>
      <trkpt lat="43.75758" lon="5.92237">
        <ele>315</ele>
        <time>2024-07-01T19:18:19Z</time>
      </trkpt>
      <trkpt lat="43.75746" lon="5.92203">
        <ele>316</ele>
        <time>2024-07-01T19:18:26Z</time>
      </trkpt>
      <trkpt lat="43.75709" lon="5.92127">
        <ele>318</ele>
        <time>2024-07-01T19:18:41Z</time>
      </trkpt>
      <trkpt lat="43.75683" lon="5.92048">
        <ele>319</ele>
        <time>2024-07-01T19:18:56Z</time>
      </trkpt>
      <trkpt lat="43.75666" lon="5.92024">
        <ele>317</ele>
        <time>2024-07-01T19:19:01Z</time>
      </trkpt>
      <trkpt lat="43.75653" lon="5.91995">
        <ele>317</ele>
        <time>2024-07-01T19:19:07Z</time>
      </trkpt>
      <trkpt lat="43.75655" lon="5.91981">
        <ele>318</ele>
        <time>2024-07-01T19:19:10Z</time>
      </trkpt>
      <trkpt lat="43.75656" lon="5.91966">
        <ele>319</ele>
        <time>2024-07-01T19:19:12Z</time>
      </trkpt>
      <trkpt lat="43.75648" lon="5.91947">
        <ele>319</ele>
        <time>2024-07-01T19:19:16Z</time>
      </trkpt>
      <trkpt lat="43.75615" lon="5.91903">
        <ele>317</ele>
        <time>2024-07-01T19:19:27Z</time>
      </trkpt>
      <trkpt lat="43.75593" lon="5.91876">
        <ele>315</ele>
        <time>2024-07-01T19:19:33Z</time>
      </trkpt>
      <trkpt lat="43.75574" lon="5.91842">
        <ele>315</ele>
        <time>2024-07-01T19:19:41Z</time>
      </trkpt>
      <trkpt lat="43.75525" lon="5.91776">
        <ele>314</ele>
        <time>2024-07-01T19:19:57Z</time>
      </trkpt>
      <trkpt lat="43.75516" lon="5.91754">
        <ele>313</ele>
        <time>2024-07-01T19:20:01Z</time>
      </trkpt>
      <trkpt lat="43.75501" lon="5.91739">
        <ele>312</ele>
        <time>2024-07-01T19:20:05Z</time>
      </trkpt>
      <trkpt lat="43.7548" lon="5.91704">
        <ele>313</ele>
        <time>2024-07-01T19:20:13Z</time>
      </trkpt>
      <trkpt lat="43.75457" lon="5.91652">
        <ele>312</ele>
        <time>2024-07-01T19:20:23Z</time>
      </trkpt>
      <trkpt lat="43.75418" lon="5.91556">
        <ele>309</ele>
        <time>2024-07-01T19:20:42Z</time>
      </trkpt>
      <trkpt lat="43.75387" lon="5.91473">
        <ele>310</ele>
        <time>2024-07-01T19:20:58Z</time>
      </trkpt>
      <trkpt lat="43.75365" lon="5.91356">
        <ele>310</ele>
        <time>2024-07-01T19:21:18Z</time>
      </trkpt>
      <trkpt lat="43.75357" lon="5.9128">
        <ele>310</ele>
        <time>2024-07-01T19:21:31Z</time>
      </trkpt>
      <trkpt lat="43.75362" lon="5.91236">
        <ele>310</ele>
        <time>2024-07-01T19:21:38Z</time>
      </trkpt>
      <trkpt lat="43.75361" lon="5.91171">
        <ele>309</ele>
        <time>2024-07-01T19:21:49Z</time>
      </trkpt>
      <trkpt lat="43.75364" lon="5.91105">
        <ele>310</ele>
        <time>2024-07-01T19:22:01Z</time>
      </trkpt>
      <trkpt lat="43.75368" lon="5.91019">
        <ele>310</ele>
        <time>2024-07-01T19:22:15Z</time>
      </trkpt>
      <trkpt lat="43.75373" lon="5.90971">
        <ele>309</ele>
        <time>2024-07-01T19:22:23Z</time>
      </trkpt>
      <trkpt lat="43.75379" lon="5.90945">
        <ele>309</ele>
        <time>2024-07-01T19:22:28Z</time>
      </trkpt>
      <trkpt lat="43.75415" lon="5.90838">
        <ele>307</ele>
        <time>2024-07-01T19:22:48Z</time>
      </trkpt>
      <trkpt lat="43.75426" lon="5.90787">
        <ele>307</ele>
        <time>2024-07-01T19:22:57Z</time>
      </trkpt>
      <trkpt lat="43.75427" lon="5.90781">
        <ele>307</ele>
        <time>2024-07-01T19:22:58Z</time>
      </trkpt>
      <trkpt lat="43.75427" lon="5.90764">
        <ele>306</ele>
        <time>2024-07-01T19:23:01Z</time>
      </trkpt>
      <trkpt lat="43.75411" lon="5.90769">
        <ele>306</ele>
        <time>2024-07-01T19:23:05Z</time>
      </trkpt>
      <trkpt lat="43.75399" lon="5.90768">
        <ele>306</ele>
        <time>2024-07-01T19:23:07Z</time>
      </trkpt>
      <trkpt lat="43.75416" lon="5.90651">
        <ele>304</ele>
        <time>2024-07-01T19:23:27Z</time>
      </trkpt>
      <trkpt lat="43.75427" lon="5.90553">
        <ele>306</ele>
        <time>2024-07-01T19:23:44Z</time>
      </trkpt>
      <trkpt lat="43.75428" lon="5.90507">
        <ele>306</ele>
        <time>2024-07-01T19:23:52Z</time>
      </trkpt>
      <trkpt lat="43.75417" lon="5.9044">
        <ele>306</ele>
        <time>2024-07-01T19:24:04Z</time>
      </trkpt>
      <trkpt lat="43.75389" lon="5.90331">
        <ele>307</ele>
        <time>2024-07-01T19:24:23Z</time>
      </trkpt>
      <trkpt lat="43.75381" lon="5.90293">
        <ele>307</ele>
        <time>2024-07-01T19:24:30Z</time>
      </trkpt>
      <trkpt lat="43.75378" lon="5.90253">
        <ele>307</ele>
        <time>2024-07-01T19:24:36Z</time>
      </trkpt>
      <trkpt lat="43.75367" lon="5.90213">
        <ele>307</ele>
        <time>2024-07-01T19:24:44Z</time>
      </trkpt>
      <trkpt lat="43.75366" lon="5.90165">
        <ele>308</ele>
        <time>2024-07-01T19:24:52Z</time>
      </trkpt>
      <trkpt lat="43.7536" lon="5.90118">
        <ele>307</ele>
        <time>2024-07-01T19:25:00Z</time>
      </trkpt>
      <trkpt lat="43.75359" lon="5.90062">
        <ele>306</ele>
        <time>2024-07-01T19:25:09Z</time>
      </trkpt>
      <trkpt lat="43.75362" lon="5.89966">
        <ele>306</ele>
        <time>2024-07-01T19:25:26Z</time>
      </trkpt>
      <trkpt lat="43.75359" lon="5.89919">
        <ele>307</ele>
        <time>2024-07-01T19:25:33Z</time>
      </trkpt>
      <trkpt lat="43.75352" lon="5.89861">
        <ele>306</ele>
        <time>2024-07-01T19:25:43Z</time>
      </trkpt>
      <trkpt lat="43.75349" lon="5.89718">
        <ele>304</ele>
        <time>2024-07-01T19:26:08Z</time>
      </trkpt>
      <trkpt lat="43.75368" lon="5.89652">
        <ele>305</ele>
        <time>2024-07-01T19:26:20Z</time>
      </trkpt>
      <trkpt lat="43.75375" lon="5.8964">
        <ele>305</ele>
        <time>2024-07-01T19:26:22Z</time>
      </trkpt>
      <trkpt lat="43.7538" lon="5.89547">
        <ele>304</ele>
        <time>2024-07-01T19:26:38Z</time>
      </trkpt>
      <trkpt lat="43.75392" lon="5.89434">
        <ele>303</ele>
        <time>2024-07-01T19:26:57Z</time>
      </trkpt>
      <trkpt lat="43.75392" lon="5.89406">
        <ele>303</ele>
        <time>2024-07-01T19:27:02Z</time>
      </trkpt>
      <trkpt lat="43.754" lon="5.89325">
        <ele>304</ele>
        <time>2024-07-01T19:27:16Z</time>
      </trkpt>
      <trkpt lat="43.75395" lon="5.89249">
        <ele>304</ele>
        <time>2024-07-01T19:27:29Z</time>
      </trkpt>
      <trkpt lat="43.754" lon="5.8921">
        <ele>304</ele>
        <time>2024-07-01T19:27:35Z</time>
      </trkpt>
      <trkpt lat="43.75403" lon="5.89155">
        <ele>305</ele>
        <time>2024-07-01T19:27:44Z</time>
      </trkpt>
      <trkpt lat="43.75401" lon="5.8913">
        <ele>306</ele>
        <time>2024-07-01T19:27:49Z</time>
      </trkpt>
      <trkpt lat="43.75403" lon="5.89118">
        <ele>306</ele>
        <time>2024-07-01T19:27:51Z</time>
      </trkpt>
    </trkseg>
  </trk>
</gpx>